     2              OBSERVATION DATA    GPS                 RINEX VERSION / TYPE
teqc 1999Jul19 19991123 03:17:40UTC                         PGM / RUN BY / DATE
                                                            COMMENT
Original Marker Name: DIAB                                  COMMENT
Campaign Name: HPGN 1991                                    COMMENT
4-Character Station Name: DIAB                              COMMENT
6-Character Antenna Code: TRMSST                            COMMENT
Vertical Measurement Point: BPA                             COMMENT
Vertical Offset to Rinex Ref. Point: 0.0000                 COMMENT
Radial Measurement Point: RRP                               COMMENT
Radial Offset to Rinex Ref. Point: 0.0000                   COMMENT
Antenna Height from Field Measurement: 2.2200 m             COMMENT
                                                            COMMENT
Original XYZ: -2665163.5638 -4279309.3728 3895805.1237      COMMENT
New XYZ position is based on association with SCEC monument COMMENT
E1F8K0S1+0011. Position of that monument is believed to be  COMMENT
valid to within 1 m horizontally; vertical accuracy         COMMENT
should be no worse than 3-times this value.                 COMMENT
                                                            COMMENT
Revised Rinex header created by UCSD GPS archive for        COMMENT
GSAC on 10-Mar-2000 (2000:070) 17:36:16 GMT                 COMMENT
For assistance contact dagnew@ucsd.edu or hjohnson@ucsd.edu COMMENT
                                                            COMMENT
DIABLO ECC RM 2 1962                                        MARKER NAME
DIAB                                                        MARKER NUMBER
-Unknown- CALIF DEPT TRANSPORTATION                         OBSERVER / AGENCY
484 TRIMBLE 4000 SST NP 4.30 / SP 4.20                      REC # / TYPE / VERS
18 TR 4000SST L1/L2 GEO                                     ANT # / TYPE
 -2665165.6881 -4279311.5862  3895800.4475                  APPROX POSITION XYZ
        2.2200        0.0000        0.0000                  ANTENNA: DELTA H/E/N
     1     1     0                                          WAVELENGTH FACT L1/2
     5    C1    L1    L2    S1    S2                        # / TYPES OF OBSERV
     0                                                      INTERVAL
  1991     5    21    18     4   45.000000                  TIME OF FIRST OBS
  1991     5    21    23    52   15.000000                  TIME OF LAST OBS
                                                            END OF HEADER
 91  5 21 18  4 45.0000000  0  5G18G 2G19G11G16
  21034496.156          -0.73917                        22.750
  23798543.445          -0.74315                        11.000
  20831516.289          -0.10816                        17.000
  24138749.648          -0.86716                        12.250
  24174029.063          -0.89115                         9.500
 91  5 21 18  5  0.0000000  0  5G18G 2G19G11G16
  21036912.906       12699.824 7        -0.08732        23.750           1.938
  23787085.586      -60211.537 5        -0.44631        11.500           0.406
  20829420.719      -11014.769 6        -0.07431        17.750           1.375
  24130091.547      -45495.885 6        -0.36331        12.250           0.406
  24165966.656      -42362.441 5        -0.44931         9.500           0.188
 91  5 21 18  5 15.0000000  0  5G18G 2G19G11G16
  21039352.844       25511.458 7      9982.97222        25.750           1.781
  23775637.422     -120370.812 5    -46877.71521        11.500           0.406
  20827335.781      -21969.061 6     -8535.89121        18.000           1.250
  24121453.953      -90892.804 6    -35374.49921        13.250           0.406
  24157929.570      -84603.011 5    -32915.18321         9.750           0.281
 91  5 21 18  5 30.0000000  0  5G18G 2G19G11G16
  21041810.102       38429.781 7     20049.14021        24.500           0.125
  23764199.188     -180482.570 5    -93717.98821        11.500           0.063
  20825261.961      -32867.206 6    -17027.99721        18.000           0.281
  24112834.000     -136195.470 6    -70675.21321        13.500           0.094
  24149909.023     -126726.518 5                         8.750
 91  5 21 18  5 45.0000000  0  5G18G 2G19G11G16
  21044286.180       51446.133 7     30191.76122        24.000           1.906
  23752768.344     -240555.626 5   -140528.03821        11.750           0.406
  20823198.164      -43718.175 6    -25483.26821        18.000           1.313
  24104227.750     -181412.389 6   -105909.08521        13.250           0.406
  24141918.922     -168741.530 5                         8.750
 91  5 21 18  6  0.0000000  0  5G18G 2G19G11G16
  21046786.461       64580.561 7     40426.33522        23.750           1.969
  23741345.773     -300569.454 5   -187291.99121        11.750           0.531
  20821144.555      -54501.688 6    -33886.01321        17.750           1.406
  24095645.133     -226522.926 6   -141060.09521        13.000           0.469
  24133942.953     -210627.456 5                         8.750
 91  5 21 18  6 15.0000000  0  5G18G 2G19G11G16
  21049307.828       77830.689 7     50751.08322        24.250           1.875
  23729938.844     -360526.288 6   -234011.51821        12.000           0.375
  20819105.648      -65220.087 6    -42238.02421        17.250           1.344
  24087079.938     -271529.065 6   -176129.73521        12.750           0.344
  24125999.125     -252386.287 5        -0.24531         9.000           0.250
 91  5 21 18  6 30.0000000  0  5G18G 2G19G11G16
  21051849.820       91190.096 7     61160.97022        24.000           1.750
  23718539.281     -420432.257 6   -280691.41421        12.000           0.469
  20817076.617      -75879.625 6    -50544.16721        17.250           1.188
  24078533.188     -316436.783 6   -211122.69421        12.250           0.313
  24118077.109     -294024.181 5    -32445.33321         9.000           0.250
 91  5 21 18  6 45.0000000  0  5G18G 2G19G11G16
  21054413.945      104665.940 7     71661.59422        23.750           1.688
  23707149.867     -480279.794 6   -327325.78821        12.250           0.438
  20815060.875      -86473.224 6    -58798.91621        17.250           1.219
  24070008.883     -361238.427 6   -246032.99121        12.500           0.438
  24110178.859     -335533.987 5    -64790.63121         9.250           0.125
 91  5 21 18  7  0.0000000  0  5G18G 2G19G11G16
  21056999.031      118242.963 7     82241.05622        24.250           1.688
  23695767.641     -540083.736 6   -373926.16521        12.000           0.375
  20813054.609      -97015.931 6    -67014.02021        17.500           1.125
  24061499.969     -405948.528 6   -280871.95821        12.500           0.281
  24102298.367     -376930.380 5    -97047.49921         9.000           0.219
 91  5 21 18  7 15.0000000  0  5G18G 2G19G11G16
  21059602.961      131930.399 7     92906.56622        24.000           1.938
  23684399.422     -599834.832 6   -420485.38321        12.000           0.469
  20811060.609     -107498.796 6    -75182.48621        17.750           1.406
  24053012.094     -450557.719 6   -315632.30321        12.750           0.406
  24094444.195     -418204.090 5   -129208.79621         8.750           0.219
 91  5 21 18  7 30.0000000  0  5G18G 2G19G11G16
  21062226.758      145722.325 7    103653.49222        24.000           2.094
  23673035.852     -659538.856 6   -467007.91221        12.750           0.500
  20809075.852     -117927.675 6    -83308.89322        18.750           1.563
  24044541.156     -495071.600 6   -350318.37721        13.750           0.469
  24086613.422     -459360.883 5   -161279.02821         9.750           0.250
 91  5 21 18  7 45.0000000  0  5G18G 2G19G11G16
  21064864.445      159581.760 7    114453.00622        24.500           1.938
  23661677.719     -719232.400 6   -513522.28421        12.500           0.406
  20807094.820     -128339.302 6    -91421.86321        18.500           1.406
  24036080.758     -539526.539 6   -384958.51921        13.000           0.469
  24078795.906     -500436.990 5   -193286.33421         9.750           0.250
 91  5 21 18  8  0.0000000  0  5G18G 2G19G11G16
  21067523.789      173555.879 7    125341.90222        25.000           2.188
  23650327.508     -778867.886 6   -559991.42121        12.250           0.594
  20805124.969     -138686.525 6    -99484.63322        18.750           1.563
  24027641.680     -583874.879 6   -419515.60221        13.000           0.531
  24071006.477     -541385.323 5   -225194.08421         9.750           0.188
 91  5 21 18  8 15.0000000  0  5G18G 2G19G11G16
  21070208.398      187664.206 7    136335.31921        23.750           1.031
  23638994.023     -838425.705 5                        11.750
  20803172.063     -148949.916 6                        17.750
  24019226.867     -628096.705 6                        12.250
  24063240.945     -582185.914 5   -256986.71521         9.000           0.125
 91  5 21 18  8 30.0000000  0  5G18G 2G19G11G16
  21072911.461      201873.767 7    147407.73022        23.000           1.688
  23627669.727     -897938.292 6                        12.250
  20801227.602     -159162.193 6                        18.500
  24010829.352     -672224.393 6                        12.000
  24055496.055     -622871.121 5   -288689.45221         8.750           0.188
 91  5 21 18  8 45.0000000  0  5G18G 2G19G11G16
  21075632.336      216169.487 7    158547.20822        24.000           1.875
  23616350.969     -957421.054 6                        12.750
  20799292.820     -169338.892 6                        18.750
  24002447.703     -716272.968 6                        12.750
  24047774.234     -663456.369 5   -320314.30421         9.250           0.250
 91  5 21 18  9  0.0000000  0  5G18G 2G19G11G16
  21078377.359      230588.035 7    169782.40222        24.500           2.219
  23605042.641    -1016836.582 6        -0.26531        12.500           0.531
  20797369.680     -179442.945 6        -0.41732        18.750           1.563
  23994087.250     -760205.039 6                        12.750
  24040077.258     -703904.119 5   -351831.98521         9.250           0.313
 91  5 21 18  9 15.0000000  0  5G18G 2G19G11G16
  21081138.828      245102.895 7    181092.65922        23.750           2.031
  23593744.781    -1076211.279 6    -46266.17821        12.250           0.469
  20795455.922     -189500.657 6     -7837.60422        18.750           1.531
  23985743.609     -804046.562 6        -0.17631        12.500           0.438
  24032402.898     -744240.563 5   -383262.95621         9.500           0.219
 91  5 21 18  9 30.0000000  0  5G18G 2G19G11G16
  21083919.813      259722.767 7    192484.73622        23.500           2.000
  23582455.969    -1135536.098 6    -92493.24421        12.750           0.563
  20793552.008     -199503.257 6    -15631.84322        18.750           1.563
  23977420.008     -847788.488 6    -34084.72921        12.250           0.500
  24024748.586     -784456.979 5   -414600.38721         9.750           0.375
 91  5 21 18  9 45.0000000  0  5G18G 2G19G11G16
  21086723.820      274451.616 7    203961.72322        24.000           1.938
  23571176.086    -1194806.963 6   -138678.25921        13.000           0.406
  20791659.383     -209447.044 6    -23380.25922        18.750           1.500
  23969116.875     -891426.631 6    -68088.42121        12.000           0.531
  24017119.258     -824549.178 5   -445841.03321         9.750           0.406
 91  5 21 18 10  0.0000000  0  5G18G 2G19G11G16
  21089544.250      289272.822 7    215510.67722        24.750           2.031
  23559903.977    -1254040.234 6   -184833.96921        13.000           0.563
  20789777.758     -219348.482 6    -31095.67122        18.500           1.625
  23960827.523     -934977.121 6   -102023.82121        12.250           0.500
  24009511.719     -864533.479 5   -476997.61821         9.750           0.344
 91  5 21 18 10 15.0000000  0  5G18G 2G19G11G16
  21092387.016      304211.108 7    227150.86722        24.250           1.625
  23548644.945    -1313210.848 6   -230940.87821        12.750           0.438
  20787904.797     -229182.730 6    -38758.73421        18.500           1.313
  23952562.734     -978414.586 6   -135871.14221        12.000           0.438
  24001928.469     -904384.834 5   -508050.60221         9.250           0.250
 91  5 21 18 10 30.0000000  0  5G18G 2G19G11G16
  21095250.461      319264.781 7    238880.96922        23.000           1.750
  23537396.977    -1372320.196 6   -277000.04121        13.000           0.531
  20786045.336     -238951.243 6    -46370.56722        18.500           1.563
  23944318.844    -1021740.094 6   -169631.21121        12.750           0.500
  23994364.617     -944104.500 5   -539000.99521         8.500           0.188
 91  5 21 18 10 45.0000000  0  5G18G 2G19G11G16
  21098136.422      334426.289 7    250695.09122        24.500           1.875
  23526159.531    -1431375.586 6   -323017.14621        13.500           0.469
  20784198.328     -248661.536 6    -53937.03522        19.000           1.531
  23936092.750    -1064960.913 6   -203309.73021        12.750           0.531
  23986832.688     -983699.659 5   -569854.30621         8.750           0.219
 91  5 21 18 11  0.0000000  0  5G18G 2G19G11G16
  21101042.758      349698.559 7    262595.53222        25.250           1.938
  23514933.586    -1490373.856 6   -368989.75721        13.750           0.563
  20782365.141     -258310.871 6    -61456.00821        17.750           1.469
  23927888.742    -1108073.748 6   -236904.09221        13.000           0.375
  23979323.219    -1023167.246 5   -600608.22621         8.750           0.281
 91  5 21 18 11 15.0000000  0  5G18G 2G19G11G16
  21103968.469      365075.284 7    274577.36222        24.500           2.000
  23503716.383    -1549320.983 6   -414922.51121        13.250           0.563
  20780535.930     -267905.427 6    -68932.28922        18.250           1.531
  23919704.477    -1151084.467 6   -270418.89821        12.750           0.438
  23971836.648    -1062513.247 5   -631267.44821         8.750           0.375
 91  5 21 18 11 30.0000000  0  5G18G 2G19G11G16
  21106914.734      380558.328 7    286642.04322        24.000           2.094
  23492509.602    -1608214.719 6   -460813.63921        13.750           0.563
  20778723.156     -277443.021 6    -76364.18821        17.500           1.469
  23911540.789    -1193990.549 6   -303852.15421        12.750           0.438
  23964371.758    -1101735.343 5   -661830.08821         9.250           0.344
 91  5 21 18 11 45.0000000  0  5G18G 2G19G11G16
  21109878.977      396134.249 7    298779.07822        23.250           1.875
  23481309.891    -1667068.319 6   -506673.52721        13.750           0.625
  20776914.914     -286937.227 6    -83762.27921        18.250           1.438
  23903393.563    -1236805.106 6   -337214.11821        12.750           0.406
  23956930.492    -1140846.764 5   -692306.49921         9.750           0.344
 91  5 21 18 12  0.0000000  0  5G18G 2G19G11G16
  21112864.813      411821.051 7    311002.52422        24.500           2.031
  23470121.891    -1725863.589 6   -552487.95421        13.750           0.531
  20775121.406     -296370.037 6    -91112.51821        17.250           1.406
  23895266.102    -1279509.862 6   -370490.51021        13.250           0.469
  23949514.891    -1179829.634 5   -722682.72221         9.750           0.281
 91  5 21 18 12 15.0000000  0  5G18G 2G19G11G16
  21115872.500      427626.744 7    323318.61822        24.500           1.969
  23458947.102    -1784592.121 6   -598250.37821        13.500           0.781
  20773337.680     -305733.188 6    -98408.49322        18.000           1.531
  23887162.664    -1322096.179 6   -403674.61321        13.750           0.531
  23942120.016    -1218675.438 5   -752952.14221         9.500           0.313
 91  5 21 18 12 30.0000000  0  5G18G 2G19G11G16
  21118905.125      443568.482 7    335740.72322        23.250           1.906
  23447785.266    -1843236.560 6   -643947.26421        13.000           0.531
  20771575.070     -315009.534 6   -105636.82321        17.250           1.313
  23879084.461    -1364546.572 6   -436752.81621        13.250           0.406
  23934757.594    -1257366.613 5   -783101.09621         9.500           0.344
 91  5 21 18 12 45.0000000  0  5G18G 2G19G11G16
  21121964.484      459643.098 7    348266.36022        24.250           2.063
  23436642.219    -1901799.635 6   -689580.75521        14.000           0.688
  20769823.203     -324202.096 6   -112799.87221        18.500           1.406
  23871031.250    -1406863.551 6   -469727.03421        13.250           0.469
  23927424.492    -1295905.494 5   -813131.38221         9.750           0.281
 91  5 21 18 13  0.0000000  0  5G18G 2G19G11G16
  21125041.563      475815.851 7    360868.46422        24.000           1.750
  23425505.914    -1960316.048 6   -735177.90021        13.750           0.594
  20768084.742     -333345.833 6   -119924.86921        17.750           1.125
  23862998.094    -1449081.554 6   -502624.15321        13.250           0.313
  23920111.375    -1334327.106 5   -843070.27621         9.750           0.219
 91  5 21 18 13 15.0000000  0  6G18G 2G19G11G16G 6
  21128140.367      492090.128 7    373549.68922        25.250           2.094
  23414379.898    -2018782.084 6   -780735.76921        13.250           0.594
  20766353.969     -342437.216 6   -127009.06622        18.500           1.531
  23854984.211    -1491196.888 6   -535441.24121        13.500           0.438
  23912824.188    -1372628.014 5   -872915.10921         9.500           0.281
  24565466.117          -0.00513                         5.500
 91  5 21 18 13 30.0000000  0  6G18G 2G19G11G16G 6
  21131257.313      508474.703 7    386316.86422        24.750           1.813
  23403266.563    -2077188.840 6   -826247.46021        13.500           0.594
  20764634.633     -351467.449 6   -134045.62121        18.000           1.281
  23846991.141    -1533200.144 6   -568171.02421        13.500           0.406
  23905557.898    -1410798.866 5   -902658.60821         9.500           0.250
  24556167.078      -48886.177 4                         6.250
 91  5 21 18 13 45.0000000  0  6G18G 2G19G11G16G 6
  21134392.977      524958.421 7    399161.27922        24.250           2.000
  23392160.461    -2135547.030 6   -871721.29921        13.750           0.688
  20762926.273     -360447.512 6   -141043.07621        18.250           1.438
  23839017.805    -1575102.139 6   -600821.87321        14.000           0.469
  23898318.891    -1448850.565 5   -932309.23521         9.750           0.313
  24546865.211      -97751.679 3        -0.30231         6.000           0.250
 91  5 21 18 14  0.0000000  0  6G18G 2G19G11G16G 6
  21137548.797      541536.402 7    412079.14822        24.250           1.750
  23381064.797    -2193861.248 6   -917160.88121        13.250           0.625
  20761226.047     -369382.092 6   -148005.09321        18.000           1.188
  23831062.219    -1616907.165 6   -633397.19121        13.250           0.438
  23891098.680    -1486787.545 5   -961870.50521         9.500           0.344
  24537563.320     -146601.340 3    -38064.89421         5.500           0.156
 91  5 21 18 14 15.0000000  0  6G18G 2G19G11G16G 6
  21140724.328      558223.205 7    425081.81322        25.000           1.875
  23369977.578    -2252116.846 6   -962554.78021        13.750           0.563
  20759537.203     -378256.763 6   -154920.42021        18.500           1.281
  23823127.289    -1658600.313 6   -665885.31321        13.500           0.344
  23883905.789    -1524595.186 5   -991330.98521        10.000           0.313
  24528275.203     -195420.579 3    -76105.82821         6.000           0.250
 91  5 21 18 14 30.0000000  0  6G18G 2G19G11G16G 6
  21143925.586      575040.618 7    438186.25622        25.000           2.219
  23358907.242    -2310291.362 6  -1007885.50421        13.000           0.719
  20757864.109     -387049.399 6   -161771.82721        17.750           1.469
  23815219.828    -1700159.031 6   -698268.67421        13.250           0.563
  23876741.781    -1562251.068 5  -1020673.19821        10.250           0.281
  24518996.719     -244187.363 3   -114105.79721         6.000           0.313
 91  5 21 18 14 45.0000000  0  6G18G 2G19G11G16G 6
  21147141.953      591945.758 7    451359.06622        24.750           2.219
  23347842.203    -2368427.810 6  -1053186.55921        13.000           0.719
  20756199.102     -395803.073 6   -168592.87222        18.250           1.563
  23807328.344    -1741626.064 6   -730580.60521        13.500           0.531
  23869595.086    -1599797.664 5  -1049930.26721        10.500           0.469
  24509719.367     -292944.713 3   -152098.45721         6.000           0.188
 91  5 21 18 15  0.0000000  0  6G18G 2G19G11G16G 6
  21150377.813      608960.043 7    464616.90822        23.500           2.125
  23336790.844    -2426504.487 6  -1098441.04421        13.250           0.719
  20754544.367     -404496.217 6   -175366.75521        18.500           1.281
  23799457.898    -1782979.553 6   -762804.06121        13.500           0.469
  23862474.328    -1637213.641 5  -1079085.55521        10.250           0.344
  24500449.164     -341671.057 4   -190066.94621         7.000           0.281
 91  5 21 18 15 15.0000000  0  6G18G 2G19G11G16G 6
  21153636.539      626077.343 7    477955.02121        24.500           0.469
  23325751.406    -2484527.089 6  -1143653.39721        13.250           0.031
  20752901.281     -413134.915 6   -182098.21721        18.750           0.031
  23791610.703    -1824224.980 6   -794943.31121        13.750           0.094
  23855377.055    -1674504.846 5  -1108143.62021        10.000           0.031
  24491180.891     -390372.345 4   -228015.92021         7.000           0.031
 91  5 21 18 15 30.0000000  0  6G18G 2G19G11G16G 6
  21156915.125      643303.713 7                        24.750
  23314718.852    -2542489.114 6                        13.000
  20751267.953     -421713.022 6                        18.750
  23783782.836    -1865355.924 6                        13.750
  23848309.578    -1711664.763 5                        10.250
  24481918.117     -439042.543 4                         6.500
 91  5 21 18 15 45.0000000  0  6G18G 2G19G11G16G 6
  21160210.164      660620.341 7                        25.250
  23303698.016    -2600409.287 6                        13.500
  20749644.273     -430249.375 6                        19.000
  23775974.070    -1906390.812 6                        14.250
  23841255.117    -1748711.820 5                        10.250
  24472656.297     -487700.366 4                         6.750
 91  5 21 18 16  0.0000000  0  6G18G 2G19G11G16G 6
  21163523.180      678034.733 7                        25.250
  23292685.664    -2658279.856 6                        13.500
  20748031.469     -438736.203 6                        17.750
  23768186.031    -1947321.749 6                        14.750
  23834230.398    -1785638.606 5                        10.250
  24463401.844     -536338.268 4                         6.500
 91  5 21 18 16 15.0000000  0  6G18G 2G19G11G16G 6
  21166854.953      695540.793 7                        25.000
  23281682.320    -2716106.623 6                        13.500
  20746421.266     -447179.552 6                        18.250
  23760416.250    -1988154.326 6                        15.000
  23827223.438    -1822450.896 5                        10.000
  24454149.883     -584962.310 4                         7.000
 91  5 21 18 16 30.0000000  0  6G18G 2G19G11G16G 6
  21170205.914      713144.934 7                        25.000
  23270686.422    -2773882.892 6                        13.250
  20744823.484     -455573.012 6        -0.38931        18.500           1.438
  23752665.695    -2028881.726 6                        14.500
  23820240.023    -1859141.803 5                         9.750
  24444899.781     -633565.945 4                         6.750
 91  5 21 18 16 45.0000000  0  6G18G 2G19G11G16G 6
  21173575.453      730852.943 7        -0.38332        25.000           2.375
  23259702.867    -2831602.725 6        -0.06331        13.250           0.625
  20743238.727     -463910.736 6     -6497.32121        18.250           1.469
  23744935.820    -2069497.787 6        -0.22431        14.250           0.500
  23813283.852    -1895705.266 5        -0.43731         9.750           0.344
  24435654.359     -682143.407 4        -0.00731         6.250           0.219
 91  5 21 18 17  0.0000000  0  6G18G 2G19G11G16G 6
  21176967.094      748680.233 7     13890.97222        25.250           2.406
  23248734.539    -2889250.301 6    -44920.19021        13.750           0.719
  20741663.883     -472177.238 6    -12938.75522        18.500           1.500
  23737232.875    -2109986.615 6    -31549.91121        14.750           0.531
  23806354.297    -1932125.545 5    -28379.86121        10.250           0.313
  24426418.336     -730679.213 4    -37820.03821         7.000           0.344
 91  5 21 18 17 15.0000000  0  6G18G 2G19G11G16G 6
  21180382.773      766621.974 7     27871.50922        25.250           2.125
  23237778.023    -2946829.912 6    -89787.35421        13.500           0.625
  20740104.531     -480376.937 6    -19328.14421        18.500           1.344
  23729550.234    -2150352.329 6    -63003.68221        14.250           0.656
  23799452.016    -1968407.013 5    -56651.12521        10.500           0.281
  24417192.055     -779177.881 4    -75611.11321         7.000           0.188
 91  5 21 18 17 30.0000000  0  6G18G 2G19G11G16G 6
  21183815.688      784673.351 7     41937.47622        23.250           1.844
  23226831.961    -3004346.479 6   -134605.39421        13.250           0.656
  20738555.664     -488514.883 6    -25669.40221        18.000           1.219
  23721889.953    -2190599.559 6    -94365.11721        13.750           0.500
  23792573.758    -2004554.784 5    -84818.19321        10.500           0.375
  24407968.938     -827644.316 4   -113377.08721         7.000           0.188
 91  5 21 18 17 45.0000000  0  6G18G 2G19G11G16G 6
  21187271.906      802828.007 7     56083.91222        24.000           1.813
  23215898.164    -3061805.716 6   -179378.75721        13.500           0.625
  20737017.453     -496597.084 6    -31967.23621        18.250           1.250
  23714254.633    -2230733.914 6   -125638.58621        13.750           0.469
  23785717.977    -2040574.263 5   -112885.30921        10.750           0.281
  24398751.070     -876084.631 4   -151122.69821         7.000           0.219
 91  5 21 18 18  0.0000000  0  6G18G 2G19G11G16G 6
  21190748.813      821100.846 7     70322.45022        24.000           1.844
  23204977.844    -3119192.771 6   -224095.87421        13.750           0.531
  20735493.430     -504608.839 6    -38210.16821        18.750           1.156
  23706640.398    -2270740.234 6   -156812.29921        13.750           0.438
  23778891.641    -2076450.538 5   -140840.83121        10.750           0.375
  24389543.203     -924484.031 4   -188836.44521         7.250           0.125
 91  5 21 18 18 15.0000000  0  6G18G 2G19G11G16G 6
  21194243.680      839470.414 7     84636.36922        24.250           2.094
  23194066.383    -3176528.725 6   -268773.17821        14.000           0.688
  20733978.000     -512571.205 6    -44414.61521        19.250           1.406
  23699046.383    -2310639.512 6   -187902.59921        14.000           0.563
  23772087.445    -2112204.731 5   -168701.22421        11.250           0.469
  24380335.125     -972863.704 4   -226534.80721         7.250           0.156
 91  5 21 18 18 30.0000000  0  6G18G 2G19G11G16G 6
  21197758.828      857939.688 7     99027.96922        24.250           2.250
  23183167.109    -3233810.319 6   -313408.10521        14.000           0.781
  20732473.758     -520481.290 6    -50578.33322        19.000           1.531
  23691477.164    -2350428.351 6   -218906.84521        14.000           0.625
  23765306.992    -2147833.464 5   -196463.83821        11.000           0.406
  24371136.391    -1021220.820 5   -264215.57521         7.500           0.219
 91  5 21 18 18 45.0000000  0  6G18G 2G19G11G16G 6
  21201290.656      876501.691 7    113491.83022        24.000           2.156
  23172276.992    -3291044.272 6   -358005.93321        14.750           0.750
  20730977.102     -528346.081 6    -56706.75321        19.250           1.469
  23683925.375    -2390113.406 6   -249830.22021        14.250           0.563
  23758552.703    -2183343.957 5   -224134.34621        11.250           0.375
  24361935.164    -1069562.178 5   -301884.08421         7.500           0.156
 91  5 21 18 19  0.0000000  0  6G18G 2G19G11G16G 6
  21204844.898      895181.979 7    128047.85222        23.000           2.094
  23161397.969    -3348204.723 6   -402546.47521        14.500           0.656
  20729492.438     -536140.013 6    -62779.95521        18.750           1.406
  23676397.070    -2429668.569 6   -280652.38521        13.750           0.563
  23751823.078    -2218709.907 5   -251692.22521        10.750           0.344
  24352743.500    -1117862.155 4   -339520.36321         7.250           0.219
 91  5 21 18 19 15.0000000  0  6G18G 2G19G11G16G 6
  21208418.391      913957.182 7    142677.84322        23.250           2.031
  23150530.664    -3405314.783 6   -447047.75721        14.250           0.781
  20728018.758     -543886.137 6    -68815.90221        18.000           1.406
  23668891.063    -2469116.759 6   -311391.18421        13.750           0.531
  23745114.898    -2253954.315 5   -279155.38721        11.000           0.313
  24343556.453    -1166143.935 5   -377142.43821         7.500           0.219
 91  5 21 18 19 30.0000000  0  6G18G 2G19G11G16G 6
  21212009.906      932831.568 7    157385.12022        23.250           2.156
  23139672.633    -3462369.820 6   -491506.15421        14.500           0.906
  20726554.867     -551580.121 6    -74811.21822        18.500           1.563
  23661405.859    -2508453.184 6   -342042.90421        14.000           0.594
  23738428.813    -2289072.751 5   -306520.38821        10.750           0.500
  24334373.172    -1214403.205 5   -414746.99821         7.500           0.250
 91  5 21 18 19 45.0000000  0  6G18G 2G19G11G16G 6
  21215621.508      951812.338 7    172175.26321        23.500           0.156
  23128827.734    -3519362.285 6                        14.750
  20725101.781     -559214.394 6    -80760.03421        18.250           0.125
  23653943.859    -2547670.040 6                        14.500
  23731772.570    -2324057.688 5                        10.750
  24325192.406    -1262632.557 5                         7.500
 91  5 21 18 20  0.0000000  0  6G18G 2G19G11G16G 6
  21219256.375      970909.788 7    187056.39322        23.500           1.969
  23117996.078    -3576281.690 6                        15.000
  20723663.383     -566778.872 6    -86654.41022        18.500           1.531
  23646504.133    -2586756.713 6                        14.500
  23725141.672    -2358898.786 5                        10.750
  24316022.125    -1310821.630 4                         7.250
 91  5 21 18 20 15.0000000  0  6G18G 2G19G11G16G 6
  21222909.258      990102.962 7    202012.06722        22.750           1.813
  23107175.281    -3633148.669 6                        14.750
  20722232.680     -574294.334 6    -92510.63321        17.750           1.313
  23639087.742    -2625733.720 6                        14.000
  23718536.375    -2393616.243 5                        10.500
  24306853.016    -1358991.368 4                         6.750
 91  5 21 18 20 30.0000000  0  6G18G 2G19G11G16G 6
  21226583.023     1009412.315 7    217058.27422        23.750           1.844
  23096367.680    -3689942.591 6        -0.32131        15.000           0.656
  20720815.969     -581740.408 6    -98312.78921        18.500           1.313
  23631695.414    -2664580.317 6        -0.23931        14.250           0.625
  23711956.672    -2428189.773 5        -0.22731        10.500           0.313
  24297696.844    -1407121.280 4        -0.08331         7.000           0.219
 91  5 21 18 20 45.0000000  0  6G18G 2G19G11G16G 6
  21230277.906     1028828.048 7    232187.38122        23.750           1.781
  23085570.922    -3746672.974 6    -44205.74221        15.000           0.750
  20719410.789     -589126.829 6   -104068.44221        18.750           1.281
  23624325.664    -2703305.886 6    -30175.94721        14.250           0.531
  23705401.742    -2462628.800 5    -26835.80421        10.250           0.375
  24288545.016    -1455221.175 4    -37480.42121         7.250           0.125
 91  5 21 18 21  0.0000000  0  6G18G 2G19G11G16G 6
  21233990.023     1048335.176 7    247387.70922        23.500           1.719
  23074785.906    -3803354.570 6    -88373.14621        15.000           0.688
  20718012.336     -596468.538 6   -109789.25521        19.250           1.313
  23616977.195    -2741925.055 6    -60268.76121        14.000           0.500
  23698872.344    -2496948.104 5    -53578.10421        10.250           0.313
  24279393.648    -1503305.936 4    -74948.98621         7.250           0.250
 91  5 21 18 21 15.0000000  0  6G18G 2G19G11G16G 6
  21237723.875     1067956.210 7    262676.79322        23.750           1.813
  23064012.930    -3859964.246 6   -132484.52321        15.000           0.688
  20716629.539     -603742.530 6   -115457.31021        18.250           1.281
  23609652.086    -2780414.437 6    -90260.44021        13.500           0.500
  23692369.453    -2531124.577 5    -80209.10821        10.000           0.313
  24270249.344    -1551352.656 4   -112387.92221         6.750           0.219
 91  5 21 18 21 30.0000000  0  6G18G 2G19G11G16G 6
  21241476.289     1087676.290 7    278043.05422        23.500           1.719
  23053251.836    -3916517.000 6   -176551.54421        15.000           0.781
  20715255.492     -610963.840 6   -121084.31222        18.750           1.500
  23602349.258    -2818788.752 6   -120162.46221        13.500           0.469
  23685889.289    -2565173.167 5   -106740.46121        10.250           0.281
  24261112.008    -1599376.335 4   -149808.86221         7.250           0.156
 91  5 21 18 21 45.0000000  0  6G18G 2G19G11G16G 6
  21245246.992     1107490.174 7    293482.40522        24.750           1.781
  23042499.492    -3973017.506 6   -220577.83321        15.500           0.844
  20713889.320     -618137.441 6   -126674.13421        18.500           1.375
  23595069.594    -2857052.601 6   -149978.39821        14.500           0.406
  23679433.898    -2599098.697 5   -133175.91621        10.750           0.344
  24251979.672    -1647381.956 5   -187215.75921         7.750           0.031
 91  5 21 18 22  0.0000000  0  6G18G 2G19G11G16G 6
  21249041.063     1127428.276 7    309018.56022        24.000           1.969
  23031762.563    -4029435.014 6   -264539.46021        15.000           0.844
  20712538.625     -625232.724 6   -132202.94221        17.750           1.469
  23587815.266    -2895175.091 6   -179684.18221        14.500           0.469
  23673006.805    -2632870.388 5   -159491.50621        10.500           0.250
  24242851.922    -1695339.048 5   -224584.83721         7.500           0.219
 91  5 21 18 22 15.0000000  0  6G18G 2G19G11G16G 6
  21252854.383     1147464.811 7    324631.41122        24.000           1.750
  23021038.172    -4085795.244 6   -308456.45221        15.250           0.719
  20711199.672     -632275.482 6   -137690.81521        18.250           1.344
  23580583.266    -2933181.768 6   -209299.73221        15.000           0.438
  23666604.234    -2666513.836 5   -185707.15721        10.750           0.344
  24233732.258    -1743273.410 4   -261936.18321         7.000           0.219
 91  5 21 18 22 30.0000000  0  6G18G 2G19G11G16G 6
  21256682.766     1167587.083 7    340311.06422        25.000           1.750
  23010322.563    -4142110.336 6   -352338.26721        15.750           0.844
  20709868.016     -639278.143 6   -143147.44321        18.000           1.375
  23573368.539    -2971084.761 6   -238834.49721        15.000           0.406
  23660226.289    -2700041.395 5   -211832.51021        11.000           0.313
  24224609.883    -1791197.400 4   -299279.45621         7.250           0.219
 91  5 21 18 22 45.0000000  0  6G18G 2G19G11G16G 6
  21260533.328     1187819.874 7    356076.84222        25.000           1.938
  22999618.164    -4198355.269 6   -396165.43221        15.250           0.844
  20708546.875     -646216.053 6   -148553.61622        18.500           1.531
  23566181.039    -3008858.955 6   -268268.89221        15.000           0.625
  23653872.836    -2733427.938 5   -237847.96721        11.000           0.500
  24215499.914    -1839086.437 4   -336595.51221         7.250           0.250
 91  5 21 18 23  0.0000000  0  6G18G 2G19G11G16G 6
  21264404.484     1208160.844 7    371926.91522        24.750           1.781
  22988927.805    -4254532.258 6   -439939.63621        15.500           0.719
  20707238.195     -653091.398 6   -153911.03421        18.750           1.344
  23559018.008    -3046506.181 6   -297604.34021        15.000           0.406
  23647545.289    -2766675.445 5   -263755.11621        11.000           0.375
  24206391.953    -1886942.724 4   -373886.01821         7.250           0.250
 91  5 21 18 23 15.0000000  0  6G18G 2G19G11G16G 6
  21268293.398     1228599.367 7    387852.99222        24.750           1.750
  22978249.180    -4310651.790 6   -483669.07521        15.750           0.656
  20705940.375     -659914.748 6   -159227.94021        18.250           1.344
  23551875.148    -3084036.630 6   -326848.81521        15.000           0.500
  23641244.477    -2799794.418 5   -289562.08921        11.000           0.313
  24197289.469    -1934776.746 5   -411159.20121         7.500           0.219
 91  5 21 18 23 30.0000000  0  6G18G 2G19G11G16G 6
  21272203.984     1249145.045 7    403862.57522        24.250           1.938
  22967582.461    -4366703.827 6   -527345.91821        15.250           0.781
  20704657.320     -666676.343 6   -164496.72321        16.750           1.375
  23544757.953    -3121440.251 6   -355994.43921        14.250           0.531
  23634966.750    -2832774.995 5   -315261.20821        10.500           0.344
  24188189.484    -1982578.827 4   -448407.47521         7.000           0.313
 91  5 21 18 23 45.0000000  0  6G18G 2G19G11G16G 6
  21276129.570     1269776.046 7    419938.65122        24.750           2.063
  22956925.016    -4422709.779 6   -570986.85821        15.500           0.875
  20703373.617     -673397.772 6   -169734.20922        17.750           1.625
  23537660.602    -3158738.319 6   -385057.81921        14.500           0.656
  23628715.992    -2865638.532 5   -340869.15921        11.000           0.469
  24179099.148    -2030370.605 4   -485647.75021         7.250           0.313
 91  5 21 18 24  0.0000000  0  6G18G 2G19G11G16G 6
  21280076.250     1290518.630 7    436101.65822        25.000           2.063
  22946281.273    -4478643.224 6   -614571.28921        15.750           0.875
  20702110.164     -680052.703 6   -174919.87721        17.000           1.406
  23530587.883    -3195904.295 6   -414018.27121        16.000           0.688
  23622489.141    -2898358.644 5   -366365.34821        11.250           0.375
  24170012.156    -2078125.755 5   -522859.44121         7.750           0.281
 91  5 21 18 24 15.0000000  0  6G18G 2G19G11G16G 6
  21284045.367     1311370.475 7    452349.81222        24.750           2.031
  22935650.281    -4534506.197 6   -658100.79721        15.250           0.969
  20700853.273     -686643.382 6   -180055.48222        17.000           1.531
  23523539.992    -3232940.122 6   -442877.31721        16.250           0.625
  23616289.797    -2930937.465 5   -391751.40821        10.750           0.313
  24160930.227    -2125846.567 5   -560044.40921         7.750           0.344
 91  5 21 18 24 30.0000000  0  6G18G 2G19G11G16G 6
  21288033.258     1332331.424 7    468682.97622        25.000           1.844
  22925032.945    -4590298.600 6   -701575.32621        15.750           0.813
  20699613.742     -693170.180 6   -185141.30321        16.250           1.406
  23516516.180    -3269845.498 6   -471634.70621        16.250           0.625
  23610115.219    -2963374.957 5   -417027.35021        10.500           0.281
  24151859.898    -2173533.151 5   -597202.68421         8.250           0.281
 91  5 21 18 24 45.0000000  0  6G18G 2G19G11G16G 6
  21292042.516     1353394.128 7    485095.44522        25.750           1.844
  22914429.016    -4646027.234 6   -745000.16921        16.500           0.875
  20698381.211     -699640.031 6   -190182.76121        17.000           1.313
  23509518.625    -3306627.225 6   -500295.74621        16.500           0.594
  23603968.844    -2995678.096 5   -442198.62821        10.500           0.281
  24142783.602    -2221192.614 5   -634339.85421         7.500           0.344
 91  5 21 18 25  0.0000000  0  6G18G 2G19G11G16G 6
  21296068.906     1374556.512 7    501585.57522        24.250           2.063
  22903836.477    -4701694.102 6   -788376.87821        15.750           0.875
  20697159.313     -706054.949 6   -195181.40321        16.250           1.469
  23502541.445    -3343286.954 6   -528861.72421        15.750           0.563
  23597846.977    -3027848.613 5   -467266.53821        10.000           0.406
  24133721.555    -2268826.940 5   -671457.41121         7.500           0.281
 91  5 21 18 25 15.0000000  0  6G18G 2G19G11G16G 6
  21300112.813     1395807.718 7    518144.91322        24.750           2.156
  22893253.516    -4757309.603 6   -831713.57021        16.250           0.875
  20695947.859     -712425.491 6   -200145.47121        17.000           1.438
  23495584.953    -3379835.015 6   -557340.69821        15.500           0.625
  23591749.797    -3059896.938 5   -492239.24321        10.500           0.406
  24124658.000    -2316446.807 5   -708563.69721         7.750           0.313
 91  5 21 18 25 30.0000000  0  6G18G 2G19G11G16G 6
  21304173.641     1417149.572 7    534774.89122        24.500           1.875
  22882678.789    -4812871.596 6   -875008.55021        15.750           0.813
  20694745.703     -718749.739 6   -205073.46421        16.250           1.344
  23488652.859    -3416269.103 6   -585730.84821        15.250           0.656
  23585672.852    -3091821.165 5   -517115.24521        10.000           0.438
  24115597.148    -2364050.270 5   -745657.22321         7.750           0.313
 91  5 21 18 25 45.0000000  0  6G18G 2G19G11G16G 6
  21308257.047     1438604.418 7    551492.91122        25.000           2.031
  22872120.016    -4868357.764 6   -918244.44921        16.000           0.875
  20693552.578     -725005.501 6   -209948.09121        17.000           1.375
  23481744.531    -3452566.667 6   -614014.62121        15.500           0.656
  23579624.961    -3123598.951 5   -541877.15621        10.250           0.438
  24106546.844    -2411615.180 5   -782720.71721         7.500           0.281
 91  5 21 18 26  0.0000000  0  6G18G 2G19G11G16G 6
  21312359.609     1460165.355 7    568293.60222        24.750           1.906
  22861574.289    -4923774.585 6   -961426.32521        16.250           0.844
  20692375.320     -731199.292 6   -214774.42721        17.250           1.406
  23474863.359    -3488734.022 6   -642196.92821        15.250           0.594
  23573606.125    -3155236.175 5   -566529.51321        10.000           0.375
  24097501.016    -2459148.078 4   -819759.20821         7.250           0.313
 91  5 21 18 26 15.0000000  0  6G18G 2G19G11G16G 6
  21316476.547     1481802.726 7    585153.85022        25.500           2.063
  22851038.586    -4979151.523 6  -1004577.10521        17.250           1.031
  20691202.180     -737360.691 6   -219575.52721        18.000           1.344
  23468000.508    -3524800.503 6   -670300.63421        16.000           0.594
  23567601.773    -3186762.735 5   -591095.65121        10.000           0.406
  24088457.656    -2506678.644 5   -856795.96321         8.000           0.375
 91  5 21 18 26 30.0000000  0  6G18G 2G19G11G16G 6
  21320612.664     1503536.170 7    602088.95422        24.500           1.969
  22840511.633    -5034468.494 6  -1047681.16121        16.500           0.906
  20690040.336     -743469.829 6   -224335.90421        17.500           1.375
  23461161.547    -3560745.913 6   -698310.01721        15.250           0.625
  23561630.477    -3218158.743 5   -615560.07321        10.000           0.281
  24079418.031    -2554187.014 5   -893815.35321         7.750           0.281
 91  5 21 18 26 45.0000000  0  6G18G 2G19G11G16G 6
  21324767.789     1525372.070 7    619103.90922        24.500           2.031
  22829997.648    -5089719.070 6  -1090733.49121        17.000           0.938
  20688889.586     -749520.428 6   -229050.66021        17.750           1.469
  23454343.688    -3596563.536 6   -726219.80421        15.250           0.625
  23555680.641    -3249417.657 5   -639917.64121        10.000           0.406
  24070381.500    -2601666.836 5   -930812.53521         7.750           0.313
 91  5 21 18 27  0.0000000  0  6G18G 2G19G11G16G 6
  21328939.141     1547293.152 7    636185.14221        24.500           0.125
  22819493.469    -5144919.940 6                        17.250
  20687745.102     -755529.576 6   -233733.18821        18.250           0.094
  23447549.375    -3632270.092 6                        16.250
  23549753.758    -3280556.295 5                        10.500
  24061348.336    -2649135.197 5                         8.000
 91  5 21 18 27 15.0000000  0  6G18G 2G19G11G16G 6
  21333130.922     1569321.561 7    653350.15122        24.250           2.031
  22809001.844    -5200048.683 6                        16.250
  20686613.219     -761474.937 6   -238365.90421        17.250           1.406
  23440779.320    -3667842.975 6                        15.750
  23543856.633    -3311552.056 5                        10.250
  24052321.891    -2696569.815 5                         8.000
 91  5 21 18 27 30.0000000  0  6G18G 2G19G11G16G 6
  21337346.922     1591470.114 7    670608.74122        24.500           2.031
  22798526.758    -5255092.282 6                        16.250
  20685497.273     -767343.524 6   -242938.79721        17.750           1.469
  23434038.180    -3703269.136 6                        15.500
  23537988.039    -3342392.352 5                        10.000
  24043304.352    -2743957.896 5                         7.750
 91  5 21 18 27 45.0000000  0  6G18G 2G19G11G16G 6
  21341580.930     1613722.799 7    687948.45622        24.750           1.813
  22788066.195    -5310066.296 6        -0.34731        16.250           0.969
  20684392.797     -773151.205 6   -247464.28121        17.500           1.344
  23427321.984    -3738563.933 6                        15.500
  23532148.273    -3373092.498 5                        10.250
  24034292.578    -2791315.195 5                         8.000
 91  5 21 18 28  0.0000000  0  6G18G 2G19G11G16G 6
  21345833.367     1636066.688 7    705359.23122        25.250           1.969
  22777616.656    -5364983.420 6    -42792.83421        16.500           1.031
  20683295.961     -778910.653 6   -251952.17221        17.750           1.438
  23420626.977    -3773739.726 6        -0.47031        15.750           0.563
  23526329.820    -3403665.025 5        -0.31931        10.250           0.375
  24025285.328    -2838654.323 5        -0.17831         7.750           0.281
 91  5 21 18 28 15.0000000  0  6G18G 2G19G11G16G 6
  21350104.930     1658514.289 7    722850.82322        24.750           1.781
  22767179.359    -5419830.786 6    -85530.97621        16.750           0.844
  20682212.906     -784609.434 6   -256392.79121        17.500           1.406
  23413958.984    -3808783.581 6    -27307.33421        15.750           0.563
  23520538.016    -3434097.358 5    -23713.79721        10.000           0.344
  24016282.781    -2885962.698 5    -36863.75621         7.500           0.344
 91  5 21 18 28 30.0000000  0  6G18G 2G19G11G16G 6
  21354394.766     1681058.942 7    740418.03622        23.750           1.781
  22756753.984    -5474614.969 6   -128219.88621        17.000           0.938
  20681139.961     -790254.264 6   -260791.36421        16.500           1.469
  23407314.547    -3843702.036 6    -54516.47521        15.500           0.656
  23514773.500    -3464395.955 5    -47323.09721        10.000           0.438
  24007287.852    -2933247.233 5    -73708.74021         7.750           0.250
 91  5 21 18 28 45.0000000  0  6G18G 2G19G11G16G 6
  21358702.391     1703694.786 7    758056.30022        24.500           2.063
  22746340.172    -5529341.355 6   -170863.76421        16.500           1.031
  20680072.883     -795850.599 6   -265152.15621        17.500           1.469
  23400692.719    -3878500.473 6    -81632.10021        15.750           0.688
  23509032.938    -3494566.325 5    -70832.46821        10.500           0.438
  23998290.023    -2980513.514 5   -110539.52021         8.000           0.281
 91  5 21 18 29  0.0000000  0  6G18G 2G19G11G16G 6
  21363029.227     1726432.680 7    775774.09222        23.750           2.031
  22735939.242    -5583998.850 6   -213453.95021        16.250           1.031
  20679018.805     -801387.526 6   -269466.65422        17.750           1.531
  23394097.195    -3913167.545 6   -108645.34621        16.000           0.719
  23503318.719    -3524597.382 5    -94233.28221        10.500           0.375
  23989302.102    -3027750.556 5   -147347.54521         8.000           0.313
 91  5 21 18 29 15.0000000  0  6G18G 2G19G11G16G 6
  21367373.945     1749263.645 7    793564.40122        24.750           1.938
  22725550.828    -5638595.997 6   -255997.11121        17.000           0.969
  20677974.672     -806873.734 6   -273741.63722        17.500           1.688
  23387523.797    -3947711.641 6   -135562.78021        16.750           0.656
  23497628.922    -3554497.543 5   -117532.11121        10.750           0.375
  23980317.414    -3074966.978 5   -184139.46621         8.000           0.438
 91  5 21 18 29 30.0000000  0  6G18G 2G19G11G16G 6
  21371737.805     1772196.169 7    811433.85822        24.250           1.938
  22715173.008    -5693124.374 6   -298486.69721        16.250           0.906
  20676941.758     -812300.914 6   -277970.61622        17.000           1.500
  23380973.656    -3982124.105 6   -162377.64121        15.500           0.563
  23491965.781    -3584258.371 5   -140722.34621        10.000           0.531
  23971336.680    -3122154.463 5   -220908.83121         8.000           0.281
 91  5 21 18 29 45.0000000  0  6G18G 2G19G11G16G 6
  21376120.633     1795228.821 7    829381.33022        24.000           1.906
  22704808.859    -5747584.898 6   -340923.39821        16.500           0.969
  20675919.656     -817670.235 6   -282154.52022        17.250           1.500
  23374451.508    -4016405.808 6   -189090.61821        16.250           0.625
  23486326.789    -3613881.030 5   -163804.92621        10.500           0.406
  23962361.031    -3169314.256 5   -257656.65921         8.500           0.281
 91  5 21 18 30  0.0000000  0  6G18G 2G19G11G16G 6
  21380521.773     1818354.342 7    847401.16322        24.000           1.750
  22694458.711    -5801984.465 6   -383312.60621        17.000           1.000
  20674905.992     -822988.958 6   -286298.98222        16.750           1.531
  23367951.555    -4050563.560 6   -215706.99921        16.250           0.750
  23480714.805    -3643372.479 5   -186785.25621        10.500           0.438
  23953394.078    -3216453.541 5   -294388.47421         8.500           0.281
 91  5 21 18 30 15.0000000  0  6G18G 2G19G11G16G 6
  21384937.602     1841561.554 7    865484.65422        24.500           2.031
  22684115.094    -5856333.967 6   -425662.80321        17.000           1.031
  20673903.164     -828267.957 6   -290412.50422        17.000           1.656
  23361472.766    -4084608.065 6   -242235.14621        16.000           0.719
  23475124.023    -3672743.566 5   -209671.81121        10.000           0.500
  23944421.750    -3263583.361 5   -331112.93221         8.000           0.313
 91  5 21 18 30 30.0000000  0  6G18G 2G19G11G16G 6
  21389373.141     1864874.749 7    883650.73522        23.500           1.969
  22673787.383    -5910608.706 6   -467954.74321        16.750           1.000
  20672910.477     -833482.656 6   -294475.90822        17.250           1.594
  23355021.000    -4118514.566 6   -268655.74421        16.000           0.750
  23469561.078    -3701969.858 5   -232445.52821        10.250           0.500
  23935459.609    -3310679.137 5   -367810.82921         8.250           0.313
 91  5 21 18 30 45.0000000  0  6G18G 2G19G11G16G 6
  21393829.383     1888287.178 7    901894.12922        24.250           1.969
  22663471.656    -5964815.423 6   -510193.67921        16.750           0.938
  20671929.938     -838639.809 6   -298494.48022        17.000           1.750
  23348594.227    -4152289.534 6   -294973.85421        15.750           0.750
  23464027.773    -3731057.906 5   -255111.53921        10.750           0.438
  23926500.516    -3357747.711 5   -404487.56821         7.750           0.281
 91  5 21 18 31  0.0000000  0  6G18G 2G19G11G16G 6
  21398300.070     1911783.996 7    920203.27721        23.500           0.156
  22653166.344    -6018968.639 6   -552390.95321        16.500           0.063
  20670956.039     -843754.080 6   -302479.66121        16.750           0.063
  23342188.000    -4185947.331 6                        15.500
  23458517.992    -3760022.217 5                        11.000
  23917547.922    -3404803.807 5                         7.750
 91  5 21 18 31 15.0000000  0  6G18G 2G19G11G16G 6
  21402791.258     1935385.118 7    938593.71322        24.000           1.938
  22642875.492    -6073048.022 6   -594530.65321        16.750           1.125
  20669995.750     -848805.493 6   -306415.81622        17.000           1.594
  23335808.813    -4219467.510 6                        15.750
  23453033.664    -3788842.532 5                        11.250
  23908596.648    -3451827.326 5                         7.500
 91  5 21 18 31 30.0000000  0  6G18G 2G19G11G16G 6
  21407301.453     1959085.167 7    957061.22922        23.750           1.781
  22632596.008    -6127058.762 6   -636616.87321        16.750           1.094
  20669042.922     -853799.268 6   -310307.08222        17.000           1.625
  23329455.461    -4252855.138 6                        16.250
  23447577.891    -3817524.099 5                        11.250
  23899659.422    -3498823.512 5                         8.000
 91  5 21 18 31 45.0000000  0  6G18G 2G19G11G16G 6
  21411827.992     1982875.402 7    975599.02022        23.250           1.781
  22622331.250    -6181009.000 6   -678655.96021        16.500           1.094
  20668104.492     -858743.810 6   -314159.98722        17.250           1.500
  23323124.703    -4286118.389 6        -0.39931        16.500           0.656
  23442142.273    -3846075.140 5        -0.32131        11.250           0.438
  23890718.750    -3545800.837 5        -0.12031         8.000           0.344
 91  5 21 18 32  0.0000000  0  6G18G 2G19G11G16G 6
  21416373.773     2006763.981 7    994213.44322        23.250           1.563
  22612076.313    -6234890.459 6   -720641.45321        16.500           0.844
  20667174.570     -863630.867 6   -317968.08921        17.750           1.313
  23316820.656    -4319248.872 6    -25816.30621        16.250           0.688
  23436738.289    -3874487.352 5    -22139.72421        11.750           0.281
  23881783.805    -3592751.226 5    -36584.76921         8.000           0.281
 91  5 21 18 32 15.0000000  0  6G18G 2G19G11G16G 6
  21420940.906     2030759.808 7   1012911.43222        23.500           1.688
  22601839.164    -6288694.071 6   -762566.28621        17.500           1.156
  20666257.109     -868451.581 6   -321724.50322        17.500           1.563
  23310542.508    -4352237.187 6    -51521.44521        16.000           0.594
  23431361.219    -3902751.735 6    -44163.90721        12.000           0.375
  23872858.992    -3639665.671 5    -73141.39321         8.250           0.313
 91  5 21 18 32 30.0000000  0  6G18G 2G19G11G16G 6
  21425525.078     2054849.862 7   1031682.85122        23.500           1.688
  22591613.188    -6342432.512 6   -804440.33421        17.750           1.063
  20665349.836     -873218.861 6   -325439.27222        17.750           1.500
  23304290.859    -4385095.950 6    -77125.63821        16.000           0.688
  23426008.438    -3930881.038 6    -66082.83521        12.500           0.375
  23863934.195    -3686557.128 5   -109680.10121         8.000           0.313
 91  5 21 18 32 45.0000000  0  6G18G 2G19G11G16G 6
  21430129.609     2079047.284 7   1050537.92522        23.500           1.781
  22581401.367    -6396092.164 6   -846252.97921        17.500           1.063
  20664456.773     -877919.129 6   -329101.82821        18.250           1.469
  23298065.211    -4417811.309 6   -102618.07321        16.500           0.719
  23420680.375    -3958861.664 5    -87885.91821        11.500           0.344
  23855017.328    -3733411.926 5   -146190.26021         8.250           0.344
 91  5 21 18 33  0.0000000  0  6G18G 2G19G11G16G 6
  21434753.406     2103340.900 7   1069467.95822        24.000           1.906
  22571204.086    -6449684.171 6   -888012.91821        18.750           1.188
  20663570.977     -882563.682 6   -332720.97322        18.500           1.750
  23291865.359    -4450394.470 6   -128007.51621        16.500           0.906
  23415378.039    -3986704.935 5   -109581.97321        10.750           0.500
  23846107.203    -3780241.512 5   -182680.75321         8.250           0.281
 91  5 21 18 33 15.0000000  0  6G18G 2G19G11G16G 6
  21439396.148     2127742.360 7   1088482.02622        23.750           1.594
  22561021.320    -6503196.513 6   -929710.78521        18.750           1.063
  20662700.773     -887140.635 6   -336287.44221        18.000           1.375
  23285692.414    -4482833.186 6   -153284.39021        16.250           0.719
  23410110.211    -4014398.704 5   -131161.54721        11.000           0.406
  23837201.898    -3827034.075 5   -219142.42821         8.250           0.250
 91  5 21 18 33 30.0000000  0  6G18G 2G19G11G16G 6
  21444057.133     2152234.225 7   1107566.54022        23.500           1.813
  22550850.039    -6556646.231 6   -971359.85521        18.250           1.125
  20661838.266     -891667.025 6   -339814.50322        18.500           1.594
  23279543.789    -4515144.342 6   -178461.87121        15.750           0.719
  23404864.492    -4041959.884 5   -152637.77221        11.000           0.375
  23828299.555    -3873806.685 5   -255588.52121         7.750           0.313
 91  5 21 18 33 45.0000000  0  6G18G 2G19G11G16G 6
  21448739.227     2176835.478 7   1126736.29221        24.000           1.281
  22540694.008    -6610013.965 6  -1012945.03921        18.750           0.813
  20660992.344     -896123.826 6   -343287.34421        18.000           1.250
  23273422.844    -4547308.692 6   -203524.96421        16.250           0.500
  23399648.695    -4069369.477 5   -173995.89921        11.250           0.313
  23819407.695    -3920540.380 5   -292004.31621         8.250           0.156
 91  5 21 18 34  0.0000000  0  6G18G 2G19G11G16G 6
  21453437.141     2201527.975 7   1145977.14022        23.750           1.625
  22530550.969    -6663317.669 6  -1054480.33521        18.500           1.031
  20660153.320     -900529.294 6   -346720.18422        18.000           1.656
  23267327.438    -4579344.047 6   -228487.53021        16.250           0.688
  23394458.430    -4096645.605 5   -195250.02321        11.500           0.313
  23810512.750    -3967253.165 5   -328403.81421         7.750           0.313
 91  5 21 18 34 15.0000000  0  6G18G 2G19G11G16G 6
  21458155.492     2226320.653 7   1165296.04621        23.750           1.469
  22520420.148    -6716548.025 6  -1095958.48621        18.250           1.000
  20659324.953     -904874.201 6   -350105.83621        17.500           1.469
  23261256.938    -4611240.912 6   -253342.19021        16.000           0.625
  23389297.492    -4123778.713 5   -216392.67421        11.500           0.344
  23801632.102    -4013936.089 5   -364780.04421         8.000           0.281
 91  5 21 18 34 30.0000000  0  6G18G 2G19G11G16G 6
  21462890.000     2251201.649 7   1184683.76722        23.750           1.813
  22510303.766    -6769716.435 6  -1137388.35221        18.000           1.156
  20658508.789     -909169.878 6   -353453.12122        18.000           1.563
  23255211.047    -4643010.430 6   -278097.62221        16.250           0.688
  23384158.617    -4150780.396 5   -237432.95321        11.500           0.281
  23792755.070    -4060600.455 5   -401141.80421         8.000           0.281
 91  5 21 18 34 45.0000000  0  6G18G 2G19G11G16G 6
  21467642.469     2276178.799 7   1204146.42222        23.000           1.781
  22500198.297    -6822815.031 6  -1178763.81721        17.500           1.250
  20657702.133     -913408.892 6   -356756.25422        17.500           1.656
  23249190.984    -4674644.752 6   -302747.70421        16.000           0.688
  23379049.398    -4177642.593 5   -258364.54121        11.500           0.406
  23783881.172    -4107238.716 5   -437483.20521         8.000           0.313
 91  5 21 18 34 59.9990000  0  6G18G 2G19G11G16G 6
  21472414.167     2301248.717 7   1223681.36522        23.250           1.906
  22490107.519    -6875841.807 6  -1220083.32321        17.750           1.281
  20656908.065     -917592.361 6   -360016.11322        17.250           1.688
  23243196.948    -4706142.988 6   -327291.74121        16.250           0.750
  23373966.112    -4204365.022 5   -279187.21321        11.750           0.313
  23775009.870    -4153849.239 5   -473803.04921         7.750           0.281
 91  5 21 18 35 14.9990000  0  6G18G 2G19G11G16G 6
  21477199.940     2326399.201 7   1243279.08322        24.250           1.781
  22480026.597    -6928819.079 6  -1261364.25821        17.750           1.219
  20656119.128     -921736.308 6   -363245.17522        18.250           1.625
  23237225.722    -4737524.562 6   -351744.88021        16.750           0.719
  23368903.261    -4230966.733 6   -299915.82821        12.000           0.406
  23766141.331    -4200453.800 5   -510118.21121         8.250           0.250
 91  5 21 18 35 29.9990000  0  6G18G 2G19G11G16G 6
  21482002.847     2351638.008 7   1262945.63721        24.250           1.469
  22469956.581    -6981733.346 6  -1302596.09521        17.500           1.063
  20655336.987     -925830.603 6   -366435.54321        17.750           1.313
  23231279.745    -4768777.266 6   -376097.59621        16.750           0.531
  23363863.605    -4257436.244 5   -320541.41921        11.250           0.313
  23757279.511    -4247039.412 5   -546418.59921         8.750           0.250
 91  5 21 18 35 44.9990000  0  6G18G 2G19G11G16G 6
  21486823.558     2376973.059 7   1282687.17322        23.500           1.813
  22459901.120    -7034576.357 6  -1343772.40821        18.000           1.250
  20654570.003     -929867.146 6   -369580.91922        18.000           1.594
  23225358.269    -4799892.709 6   -400343.36921        16.750           0.781
  23358849.073    -4283765.181 5   -341057.46521        10.750           0.344
  23748418.753    -4293598.054 5   -582697.98021         8.250           0.406
 91  5 21 18 35 59.9990000  0  6G18G 2G19G11G16G 6
  21491666.605     2402418.181 7   1302514.47522        24.250           1.719
  22449861.245    -7087334.157 6  -1384882.33521        17.750           1.188
  20653819.237     -933832.224 6   -372670.60022        17.500           1.563
  23219464.839    -4830856.870 6   -424471.26421        16.250           0.531
  23353868.222    -4309939.855 5   -361453.31321        11.000           0.438
  23739565.034    -4340115.910 5   -618945.58921         8.500           0.313
 91  5 21 18 36 14.9990000  0  6G18G 2G19G11G16G 6
  21496524.128     2427947.073 7   1322407.06822        24.000           1.813
  22439832.581    -7140032.527 6  -1425945.94421        17.750           1.344
  20653070.206     -937751.770 6   -375724.79522        18.250           1.813
  23213596.995    -4861695.561 6   -448501.37621        15.500           0.656
  23348912.323    -4335985.952 5   -381748.96521        10.750           0.469
  23730713.050    -4386619.237 5   -655181.88021         8.000           0.313
 91  5 21 18 36 29.9990000  0  6G18G 2G19G11G16G 6
  21501398.855     2453565.347 7   1342369.30022        23.500           1.719
  22429817.823    -7192665.502 6  -1466958.59021        18.000           1.125
  20652337.034     -941619.795 6   -378738.84922        17.500           1.563
  23207753.558    -4892402.559 6   -472428.87221        15.500           0.563
  23343983.558    -4361897.491 5   -401939.78821        11.750           0.406
  23721870.675    -4433101.902 5   -691402.05521         8.500           0.281
 91  5 21 18 36 44.9990000  0  6G18G 2G19G11G16G 6
  21506291.995     2479272.386 7   1362400.69522        24.000           1.750
  22419814.519    -7245233.738 6  -1507920.80321        18.000           1.188
  20651606.855     -945437.058 6   -381713.35522        18.250           1.719
  23201934.284    -4922978.393 6   -496254.17221        15.250           0.563
  23339079.487    -4387675.156 5   -422026.27521        11.500           0.375
  23713025.183    -4479564.644 5   -727606.73521         8.000           0.313
 91  5 21 18 36 59.9990000  0  6G18G 2G19G11G16G 6
  21511201.394     2505075.528 7   1382506.98322        23.750           1.938
  22409825.581    -7297729.513 6  -1548826.54921        18.250           1.344
  20650892.433     -949196.074 6   -384642.46722        18.750           1.688
  23196142.519    -4953415.236 6   -519971.16321        15.750           0.625
  23334200.464    -4413311.331 5   -442002.52121        11.500           0.469
  23704191.933    -4526000.066 5   -763790.10221         8.750           0.406
 91  5 21 18 37 14.9990000  0  6G18G 2G19G11G16G 6
  21516127.745     2530965.342 7   1402680.80322        23.250           1.625
  22399847.597    -7350161.706 6  -1589682.75321        18.500           1.125
  20650187.300     -952906.012 6   -387533.34222        18.750           1.625
  23190375.019    -4983721.955 6   -543586.76021        16.000           0.625
  23329348.542    -4438815.024 5   -461875.53021        11.750           0.438
  23695358.909    -4572417.310 5   -799959.31421         8.750           0.313
 91  5 21 18 37 29.9990000  0  6G18G 2G19G11G16G 6
  21521073.948     2556950.563 7   1422928.96722        23.500           1.500
  22389883.347    -7402521.489 6  -1630482.52921        18.750           1.125
  20649493.167     -956557.942 6   -390379.00822        18.000           1.594
  23184633.956    -5013889.471 6   -567093.88321        15.750           0.594
  23324522.714    -4464177.256 5   -481638.30621        11.750           0.313
  23686531.105    -4618807.569 5   -836107.49021         8.750           0.344
 91  5 21 18 37 44.9990000  0  6G18G 2G19G11G16G 6
  21526037.269     2583034.382 7   1443253.95622        22.750           1.531
  22379935.503    -7454805.530 6  -1671223.29121        18.500           1.063
  20648807.245     -960148.732 6   -393177.04621        18.250           1.438
  23178921.464    -5043914.317 6   -590489.84421        15.750           0.688
  23319722.487    -4489394.929 5   -501288.45321        11.500           0.438
  23677711.847    -4665167.699 5   -872232.19621         9.000           0.250
 91  5 21 18 37 59.9990000  0  6G18G 2G19G11G16G 6
  21531020.698     2609225.591 7   1463662.63022        22.750           1.750
  22370001.292    -7507004.382 6  -1711897.67221        19.000           1.250
  20648140.261     -963669.112 6   -395920.20322        17.250           1.719
  23173236.878    -5073787.002 6   -613767.22321        15.750           0.750
  23314954.097    -4514458.689 5   -520818.65121        11.750           0.438
  23668898.425    -4711488.365 5   -908326.15521         9.000           0.281
 91  5 21 18 38 14.9990000  0  6G18G 2G19G11G16G 6
  21536021.448     2635500.254 7   1484136.33722        22.750           1.688
  22360079.940    -7559141.630 6  -1752524.05521        19.000           1.156
  20647478.526     -967142.908 6   -398627.07122        18.500           1.625
  23167576.980    -5103531.053 6   -636944.37321        16.000           0.719
  23310206.995    -4539392.100 6   -540247.29621        12.000           0.406
  23660083.862    -4757793.442 5   -944407.95121         8.750           0.438
 91  5 21 18 38 29.9990000  0  6G18G 2G19G11G16G 6
  21541037.495     2661862.801 7   1504678.51722        23.000           1.531
  22350170.339    -7611212.530 6  -1793098.74221        18.750           1.125
  20646826.394     -970565.468 6   -401294.01122        18.250           1.656
  23161942.315    -5133141.638 6   -660017.52721        16.000           0.719
  23305487.253    -4564190.284 6   -559570.57721        12.000           0.281
  23651272.034    -4804078.328 5   -980474.03821         8.500           0.344
 91  5 21 18 38 44.9990000  0  6G18G 2G19G11G16G 6
  21546070.800     2688315.471 7   1525290.92621        22.000           1.438
  22340274.972    -7663214.773 6  -1833619.91821        18.750           1.063
  20646184.964     -973934.466 6   -403919.22022        18.000           1.625
  23156332.628    -5162616.318 6   -682984.77721        15.750           0.625
  23300797.058    -4588851.341 6   -578786.98921        12.250           0.344
  23642470.237    -4850340.822 5  -1016522.62721         8.750           0.281
 91  5 21 18 38 59.9990000  0  6G18G 2G19G11G16G 6
  21551123.073     2714862.791 7   1545977.07522        22.750           1.531
  22330392.933    -7715143.405 6  -1874083.74321        19.250           1.031
  20645554.690     -977245.171 6   -406498.99822        18.500           1.656
  23150749.269    -5191950.028 6   -705842.19621        16.000           0.750
  23296129.284    -4613370.556 6   -597892.87821        12.250           0.406
  23633673.214    -4896576.190 5  -1052550.13321         8.750           0.313
 91  5 21 18 39 14.9990000  0  6G18G 2G19G11G16G 6
  21556194.440     2741515.881 7   1566745.66022        22.750           1.563
  22320528.011    -7766987.060 6  -1914481.34921        19.000           1.063
  20644939.042     -980486.314 6   -409024.57622        18.250           1.625
  23145197.940    -5221131.098 6   -728580.65721        16.250           0.656
  23291493.855    -4637736.232 5   -616879.12721        11.750           0.375
  23624880.933    -4942773.137 5  -1088547.65421         8.750           0.313
 91  5 21 18 39 29.9990000  0  6G18G 2G19G11G16G 6
  21561282.862     2768254.397 7   1587580.80421        22.250           1.406
  22310674.815    -7818766.074 6  -1954828.58921        18.500           0.938
  20644329.972     -983678.233 6   -411511.79621        17.750           1.438
  23139670.331    -5250179.874 6   -751216.04821        16.750           0.688
  23286883.198    -4661968.862 5   -635761.72221        11.750           0.375
  23616095.276    -4988951.970 5  -1124531.09921         8.750           0.313
 91  5 21 18 39 44.9990000  0  6G18G 2G19G11G16G 6
  21566390.581     2795096.603 7   1608496.74122        22.500           1.563
  22300837.612    -7870461.805 6  -1995110.93421        18.500           1.063
  20643736.878     -986802.384 6   -413946.21622        18.250           1.531
  23134170.605    -5279077.660 6   -773733.77921        16.750           0.750
  23282301.972    -4686049.720 5   -654526.01521        11.500           0.313
  23607314.675    -5035094.409 5  -1160486.15221         8.500           0.313
 91  5 21 18 39 59.9990000  0  6G18G 2G19G11G16G 6
  21571516.620     2822030.771 7   1629484.33422        22.500           1.750
  22291013.175    -7922085.514 6  -2035337.15921        19.000           1.156
  20643152.855     -989870.303 6   -416336.81222        18.250           1.750
  23128699.167    -5307835.559 6   -796142.51721        16.500           0.813
  23277742.948    -4709990.068 5   -673180.84721        11.000           0.406
  23598538.558    -5081211.752 5  -1196421.69121         8.750           0.438
 91  5 21 18 40 14.9990000  0  6G18G 2G19G11G16G 6
  21576658.198     2849051.272 7   1650539.20522        22.500           1.625
  22281204.323    -7973642.183 6  -2075511.14721        19.750           1.000
  20642578.073     -992887.356 6   -418687.77622        18.500           1.688
  23123251.370    -5336458.646 6   -818446.19921        16.250           0.781
  23273214.097    -4733795.372 5   -691730.43321        11.250           0.438
  23589770.487    -5127309.271 5  -1232341.76321         8.750           0.250
 91  5 21 18 40 29.9990000  0  6G18G 2G19G11G16G 6
  21581818.855     2876172.830 7   1671672.81322        22.250           1.719
  22271408.097    -8025117.067 6  -2115621.41021        19.250           1.031
  20642017.144     -995838.802 6   -420987.61922        18.000           1.813
  23117833.331    -5364931.980 6   -840633.17421        16.500           0.750
  23268711.433    -4757450.811 5   -710163.25921        11.250           0.469
  23581000.308    -5173372.518 5  -1268235.13621         8.250           0.406
 91  5 21 18 40 44.9990000  0  6G18G 2G19G11G16G 6
  21586997.730     2903387.670 7   1692879.10222        22.500           1.688
  22261626.558    -8076517.889 6  -2155673.96321        19.000           0.938
  20641467.175     -998732.241 6   -423242.26522        18.250           1.563
  23112441.339    -5393263.034 6   -862709.31721        16.500           0.563
  23264239.886    -4780964.061 5   -728485.26821        11.500           0.469
  23572242.948    -5219409.102 5  -1304107.73221         8.500           0.250
 91  5 21 18 40 59.9990000  0  6G18G 2G19G11G16G 6
  21592192.940     2930686.354 7   1714150.73822        22.250           1.813
  22251857.003    -8127853.495 6  -2195675.68321        19.000           1.094
  20640928.667    -1001576.722 6   -425458.74922        16.750           1.813
  23107076.753    -5421460.617 6   -884681.43621        15.750           0.781
  23259794.144    -4804344.210 6   -746703.56921        12.000           0.438
  23563480.730    -5265428.125 5  -1339966.66521         7.750           0.406
 91  5 21 18 41 14.9990000  0  6G18G 2G19G11G16G 6
  21597406.558     2958079.197 7   1735495.74322        22.750           1.594
  22242103.870    -8179113.153 6  -2235618.22721        19.250           1.125
  20640393.862    -1004361.685 6   -427628.86222        17.250           1.688
  23101738.011    -5449513.972 6   -906541.17121        16.750           0.750
  23255370.815    -4827580.534 6   -764809.81121        12.000           0.406
  23554730.534    -5311419.064 5  -1375803.68221         8.000           0.344
 91  5 21 18 41 29.9990000  0  6G18G 2G19G11G16G 6
  21602636.808     2985563.926 7   1756912.34222        23.000           1.688
  22232363.003    -8230299.039 6  -2275503.29721        19.250           1.219
  20639875.417    -1007089.438 6   -429754.40122        18.000           1.813
  23096427.167    -5477425.133 6   -928290.11221        16.750           0.719
  23250974.675    -4850675.229 6   -782805.69021        12.000           0.438
  23545981.745    -5357384.182 5  -1411620.59721         8.250           0.500
 91  5 21 18 41 44.9990000  0  6G18G 2G19G11G16G 6
  21607885.636     3013143.685 7   1778402.98922        23.000           1.844
  22222637.081    -8281407.836 7  -2315328.30021        20.000           1.281
  20639367.526    -1009756.836 6   -431832.91522        18.000           1.781
  23091142.323    -5505190.781 6   -949925.67621        16.500           0.719
  23246608.480    -4873624.926 6   -800688.59121        12.500           0.344
  23537240.440    -5403320.289 5  -1447414.91121         8.500           0.375
 91  5 21 18 41 59.9990000  0  6G18G 2G19G11G16G 6
  21613150.440     3040816.031 7   1799965.74022        23.000           1.563
  22212925.034    -8332441.426 6  -2355094.71621        19.750           1.156
  20638872.214    -1012366.083 6   -433866.10822        18.000           1.750
  23085886.597    -5532812.737 6   -971449.26821        16.250           0.781
  23242265.409    -4896431.784 6   -818460.15621        12.500           0.406
  23528505.870    -5449229.496 5  -1483188.28521         8.750           0.313
 91  5 21 18 42 14.9990000  0  6G18G 2G19G11G16G 6
  21618430.315     3068557.682 7                        23.250
  22203224.245    -8383422.780 6                        19.750
  20638381.042    -1014940.022 6                        17.750
  23080654.542    -5560313.780 6                        16.250
  23237951.464    -4919118.779 6   -836138.38221        12.750           0.375
  23519768.222    -5495134.868 5                         8.750
 91  5 21 18 42 29.9990000  0  6G18G 2G19G11G16G 6
  21623727.058     3096396.717 7                        23.250
  22193537.167    -8434323.532 6                        19.250
  20637903.565    -1017450.519 6                        17.500
  23075449.745    -5587665.568 6                        16.250
  23233662.855    -4941657.728 6   -853701.17821        12.500           0.313
  23511040.214    -5541008.297 5                         9.500
 91  5 21 18 42 44.9990000  0  6G18G 2G19G11G16G 6
  21629044.112     3124336.297 7        -0.20832        23.000           1.938
  22183868.542    -8485140.347 6        -0.24031        19.750           1.281
  20637440.589    -1019894.165 6        -0.19232        18.000           1.844
  23070273.136    -5614864.536 6        -0.16831        16.000           0.844
  23229403.073    -4964045.490 6   -871146.22821        12.750           0.500
  23502320.065    -5586846.466 5        -0.04331         9.500           0.344
 91  5 21 18 42 59.9990000  0  6G18G 2G19G11G16G 6
  21634375.183     3152351.919 7     21830.06422        22.250           1.813
  22174208.558    -8535897.409 6    -39551.15921        19.750           1.344
  20636982.081    -1022295.259 6     -1871.18522        18.000           1.813
  23065121.323    -5641934.627 6    -21093.72221        15.750           0.813
  23225168.323    -4986306.130 6   -888492.18721        12.750           0.406
  23493600.370    -5632673.655 5    -35709.47421         9.500           0.375
 91  5 21 18 43 14.9990000  0  6G18G 2G19G11G16G 6
  21639721.815     3180450.769 7     43725.19922        22.000           1.781
  22164563.339    -8586586.981 6    -79049.48921        19.500           1.406
  20636534.136    -1024646.550 6     -3703.37422        17.250           1.906
  23059996.300    -5668868.308 6    -42080.98121        16.500           0.844
  23220957.355    -5008432.080 6   -905733.20021        12.750           0.469
  23484882.605    -5678482.550 5    -71404.64121         9.750           0.344
 91  5 21 18 43 29.9990000  0  6G18G 2G19G11G16G 6
  21645085.331     3208632.649 7     65685.02922        21.750           1.688
  22154929.925    -8637209.092 6   -118495.24621        19.500           1.281
  20636096.534    -1026947.958 6     -5496.70422        17.750           1.750
  23054896.503    -5695665.491 6    -62961.89521        16.500           0.813
  23216768.605    -5030423.349 6   -922869.28721        12.250           0.406
  23476167.847    -5724273.198 5   -107085.59221         9.250           0.281
 91  5 21 18 43 44.9990000  0  6G18G 2G19G11G16G 6
  21650461.495     3236890.779 7     87704.27322        22.250           1.688
  22145308.448    -8687770.257 7   -157893.51221        20.000           1.156
  20635668.159    -1029205.973 6     -7256.20622        18.000           1.594
  23049822.105    -5722332.423 6    -83741.30721        16.250           0.750
  23212606.737    -5052286.537 5   -939905.54221        11.750           0.438
  23467454.362    -5770052.078 5   -142757.37121         9.000           0.344
 91  5 21 18 43 59.9990000  0  6G18G 2G19G11G16G 6
  21655856.644     3265239.870 7    109794.39722        22.500           1.625
  22135701.417    -8738255.685 7   -197232.76521        20.000           1.219
  20635249.026    -1031405.927 6     -8970.47122        18.000           1.625
  23044775.308    -5748854.273 6   -104407.67021        16.000           0.750
  23208474.276    -5074006.998 6   -956830.60121        12.000           0.469
  23458746.495    -5815804.667 5   -178408.65621         9.250           0.469
 91  5 21 18 44 14.9990000  0  6G18G 2G19G11G16G 6
  21661268.933     3293679.780 7    131955.27821        22.500           1.188
  22126109.003    -8788664.738 7   -236512.52421        20.250           1.188
  20634841.300    -1033547.184 6    -10639.00822        18.000           1.563
  23039755.948    -5775230.393 6   -124960.47521        16.000           0.656
  23204368.581    -5095584.164 6   -973643.97721        12.000           0.375
  23450042.417    -5861530.451 5   -214039.07821         9.000           0.250
 91  5 21 18 44 29.9990000  0  6G18G 2G19G11G16G 6
  21666698.370     3322210.667 7    154187.08321        22.250           0.188
  22116531.597    -8838997.171 7   -275732.54321        20.250           0.406
  20634445.659    -1035629.661 6    -12261.73721        18.500           0.469
  23034765.011    -5801460.418 6   -145399.44221        16.000           0.438
  23200288.636    -5117017.699 5   -990345.46321        11.750           0.219
  23441345.511    -5907229.327 5   -249648.49921         9.000           0.438
 91  5 21 18 44 44.9990000  0  6G18G 2G19G11G16G 6
  21672143.823     3350827.910 7    176486.15721        21.750           1.344
  22106965.394    -8889257.567 7   -314896.43521        20.250           1.375
  20634059.378    -1037658.241 6    -13842.44922        18.250           1.594
  23029800.089    -5827548.821 6   -165728.03121        16.750           0.813
  23196239.433    -5138312.584 6  -1006938.89021        12.000           0.375
  23432654.558    -5952906.109 5   -285240.75321         9.250           0.438
 91  5 21 18 44 59.9990000  0  6G18G 2G19G11G16G 6
  21677607.073     3379536.970 7    198856.74121        21.500           0.063
  22097416.542    -8939439.615 7   -353999.30621        20.000           0.156
  20633685.628    -1039626.880 6    -15376.49221        18.500           0.219
  23024863.214    -5853489.402 6   -185941.46821        17.000           0.031
  23192214.620    -5159462.512 6  -1023419.39121        12.000           0.063
  23423969.784    -5998554.698 5                         9.250
 91  5 21 18 45 14.9990000  0  6G18G 2G19G11G16G 6
  21683085.925     3408328.012 7                        22.000
  22087880.753    -8989553.210 7                        20.250
  20633318.042    -1041545.437 6                        18.000
  23019952.933    -5879291.750 6                        17.500
  23188216.308    -5180477.593 6                        12.500
  23415286.315    -6044184.936 5                         9.000
 91  5 21 18 45 29.9990000  0  6G18G 2G19G11G16G 6
  21688581.534     3437204.935 7                        21.750
  22078359.237    -9039594.059 6                        19.750
  20632963.425    -1043409.752 6                        18.250
  23015071.159    -5904951.538 6                        17.250
  23184244.120    -5201353.439 6                        12.750
  23406611.003    -6089792.718 5                         9.500
 91  5 21 18 45 44.9990000  0  6G18G 2G19G11G16G 6
  21694093.386     3466169.950 7                        22.000
  22068850.300    -9089559.832 7                        20.000
  20632620.409    -1045217.549 6                        18.000
  23010214.831    -5930466.462 6                        17.500
  23180296.534    -5222087.590 6                        12.750
  23397934.815    -6135375.835 5                         9.500
 91  5 21 18 45 59.9990000  0  6G18G 2G19G11G16G 6
  21699625.706     3495239.838 7                        21.500
  22059360.206    -9139432.989 7        -0.11131        20.250           1.063
  20632290.237    -1046951.552 6        -0.07231        18.250           1.313
  23005390.956    -5955818.987 6                        17.250
  23176381.175    -5242662.813 6                        12.750
  23389264.558    -6180917.096 5                         9.000
 91  5 21 18 46 14.9990000  0  6G18G 2G19G11G16G 6
  21705170.433     3524380.863 7        -0.28131        21.250           1.031
  22049880.292    -9189247.124 7    -38816.27621        20.000           1.156
  20631967.362    -1048645.213 6     -1319.82621        17.750           1.313
  23000592.128    -5981042.436 6        -0.33731        17.500           0.563
  23172488.784    -5263112.573 6        -0.22731        13.000           0.313
  23380602.776    -6226450.072 5                         9.500
 91  5 21 18 46 29.9990000  0  6G18G 2G19G11G16G 6
  21710731.386     3553603.981 7     22770.88421        21.250           1.250
  22040413.605    -9238991.102 6    -77577.77021        19.500           1.344
  20631654.855    -1050287.609 6     -2599.63322        18.000           1.500
  22995818.550    -6006125.647 6    -19545.67921        17.750           0.625
  23168624.995    -5283426.106 6    -15828.98221        12.750           0.438
  23371941.878    -6271963.850 5        -0.20531         9.000           0.344
 91  5 21 18 46 44.9990000  0  6G18G 2G19G11G16G 6
  21716309.401     3582914.857 7     45610.45021        21.750           1.281
  22030961.042    -9288659.094 6   -116280.05322        19.250           1.531
  20631353.386    -1051873.078 6     -3835.07822        18.000           1.813
  22991072.183    -6031062.750 6    -38977.17721        18.000           0.719
  23164784.753    -5303597.664 6    -31547.09921        12.500           0.406
  23363285.980    -6317452.624 5    -35445.93521         9.000           0.438
 91  5 21 18 46 59.9990000  0  6G18G 2G19G11G16G 6
  21721902.925     3612306.942 7     68513.30221        21.250           1.250
  22021523.886    -9338256.912 6   -154927.65421        19.500           1.406
  20631061.034    -1053407.611 6     -5030.83222        17.750           1.719
  22986354.480    -6055859.451 6    -58299.26221        18.500           0.875
  23160972.683    -5323633.202 6    -47159.23721        12.250           0.406
  23354631.511    -6362922.447 5    -70876.89021         8.500           0.406
 91  5 21 18 47 14.9990000  0  6G18G 2G19G11G16G 6
  21727513.276     3641791.720 7     91488.37021        21.250           1.188
  22012100.534    -9387773.055 6   -193511.61721        19.750           1.344
  20630781.745    -1054879.529 6     -6177.80522        17.500           1.531
  22981664.472    -6080504.075 6    -77502.85421        18.750           0.719
  23157189.456    -5343521.091 6    -62656.30521        12.250           0.281
  23345984.589    -6408361.793 5   -106284.10521         8.750           0.406
 91  5 21 18 47 29.9990000  0  6G18G 2G19G11G16G 6
  21733142.769     3671374.716 7    114539.96921        21.250           1.219
  22002695.667    -9437201.688 6   -232027.38321        19.750           1.281
  20630517.753    -1056283.405 6     -7271.74622        17.250           1.531
  22977004.245    -6104990.957 6    -96583.52221        18.500           0.656
  23153434.800    -5363255.915 6    -78034.11321        12.500           0.375
  23337347.019    -6453765.153 5   -141663.27621         9.250           0.375
 91  5 21 18 47 44.9990000  0  6G18G 2G19G11G16G 6
  21738785.112     3701019.411 7    137639.64721        21.500           1.344
  21993299.815    -9486579.012 6   -270503.17022        19.750           1.563
  20630253.878    -1057655.419 6     -8340.86722        17.250           1.750
  22972367.159    -6129356.025 6   -115569.26521        17.750           0.813
  23149701.011    -5382874.035 6    -93320.97821        12.500           0.438
  23328703.284    -6499168.862 5   -177042.74021         9.000           0.563
 91  5 21 18 47 59.9990000  0  6G18G 2G19G11G16G 6
  21744440.550     3730744.609 7    160802.05121        21.750           1.219
  21983915.206    -9535885.866 7   -308924.05521        20.000           1.375
  20630001.909    -1058976.436 6     -9370.24822        17.250           1.563
  22967758.714    -6153579.961 6   -134445.04521        17.750           0.719
  23145996.417    -5402356.265 6   -108501.96321        13.250           0.438
  23320072.480    -6544553.752 5   -212407.50421         9.750           0.469
 91  5 21 18 48 14.9990000  0  6G18G 2G19G11G16G 6
  21750115.042     3760561.091 7    184035.58821        21.250           1.344
  21974549.597    -9585111.316 7   -347281.50522        20.250           1.594
  20629761.370    -1060235.511 6    -10351.36422        17.250           1.844
  22963177.175    -6177651.721 6   -153202.24521        17.500           0.781
  23142315.558    -5421691.563 6   -123568.44621        13.000           0.531
  23311442.558    -6589908.852 5   -247749.07721        10.250           0.469
 91  5 21 18 48 29.9990000  0  6G18G 2G19G11G16G 6
  21755805.558     3790465.884 7    207337.94321        20.750           1.469
  21965196.847    -9634257.854 7   -385577.45322        20.500           1.531
  20629538.112    -1061435.533 6    -11286.45222        16.000           1.969
  22958624.745    -6201573.978 6   -171842.95021        17.250           0.719
  23138665.308    -5440882.634 6   -138522.55521        13.250           0.531
  23302816.175    -6635237.030 5   -283069.66921         9.500           0.500
 91  5 21 18 48 44.9990000  0  6G18G 2G19G11G16G 6
  21761512.761     3820453.805 7                        20.250
  21955859.956    -9683330.343 6   -423815.73421        19.750           0.188
  20629316.097    -1062581.491 6                        17.000
  22954100.323    -6225351.487 6                        17.250
  23135035.761    -5459934.638 6                        12.750
  23294191.511    -6680543.323 5                         9.500
 91  5 21 18 48 59.9990000  0  6G18G 2G19G11G16G 6
  21767234.589     3850525.722 7                        20.000
  21946535.081    -9732327.416 6   -461995.23321        19.750           0.219
  20629110.948    -1063672.160 6                        16.250
  22949604.378    -6248982.867 6                        17.250
  23131436.550    -5478846.118 6                        12.750
  23285575.487    -6725826.635 5                         9.000
 91  5 21 18 49 14.9990000  0  6G18G 2G19G11G16G 6
  21772971.167     3880679.131 6                        19.500
  21937225.300    -9781251.570 7   -500117.87321        20.000           1.406
  20628911.065    -1064709.815 6                        17.250
  22945135.120    -6272470.472 6                        17.500
  23127865.526    -5497619.668 6                        12.750
  23276960.503    -6771089.380 5                         9.500
 91  5 21 18 49 29.9990000  0  6G18G 2G19G11G16G 6
  21778724.550     3910907.316 6                        19.500
  21927927.511    -9830109.302 6   -538188.78822        19.500           1.625
  20628725.761    -1065701.048 6                        16.250
  22940690.909    -6295820.750 6                        17.250
  23124319.175    -5516261.879 6                        13.000
  23268354.730    -6816338.148 5                        10.000
 91  5 21 18 49 44.9990000  0  6G18G 2G19G11G16G 6
  21784492.269     3941216.342 7        -0.12631        20.500           1.125
  21918644.292    -9878893.940 7   -576202.74021        20.750           1.250
  20628544.073    -1066639.375 6        -0.47631        17.000           1.438
  22936274.855    -6319026.966 6        -0.20331        17.000           0.563
  23120798.151    -5534766.175 6        -0.11731        13.000           0.406
  23259749.526    -6861566.453 5        -0.44131        10.500           0.438
 91  5 21 18 49 59.9990000  0  6G18G 2G19G11G16G 6
  21790276.206     3971607.953 7     23681.56021        20.750           1.063
  21909375.831    -9927603.568 7   -614158.25721        21.000           1.438
  20628378.503    -1067523.099 6      -689.10522        16.500           1.719
  22931887.370    -6342087.229 6    -17969.21921        17.500           0.750
  23117301.894    -5553130.729 6    -14310.16921        13.000           0.531
  23251146.659    -6906772.542 5    -35225.89321        11.250           0.375
 91  5 21 18 50 14.9990000  0  6G18G 2G19G11G16G 6
  21796076.417     4002094.132 7     47436.93721        20.500           1.406
  21900122.495    -9976225.937 7   -652045.76822        20.750           1.500
  20628220.940    -1068339.802 6     -1325.50922        17.000           1.875
  22927527.472    -6364989.034 6    -35814.76921        17.500           0.844
  23113836.925    -5571343.464 6    -28501.92521        13.250           0.375
  23242550.761    -6951944.295 5    -70424.59121        11.000           0.469
 91  5 21 18 50 29.9990000  0  6G18G 2G19G11G16G 6
  21801898.394     4032681.306 7     71271.00321        20.750           1.406
  21890886.269   -10024754.464 7   -689860.16921        20.250           1.375
  20628079.651    -1069082.997 6     -1904.63922        16.500           1.719
  22923201.105    -6387725.693 6    -53531.64221        17.250           0.906
  23110400.706    -5589397.732 6    -42570.19721        13.000           0.375
  23233960.214    -6997075.100 5   -105591.37421        10.500           0.313
 91  5 21 18 50 44.9990000  0  6G18G 2G19G11G16G 6
  21807731.987     4063338.444 7     95159.58922        20.750           1.500
  21881665.011   -10073219.664 7   -727625.21122        20.500           1.656
  20627946.558    -1069783.550 6     -2450.53822        17.000           1.906
  22918901.315    -6410327.843 6    -71143.69321        17.500           0.875
  23106989.019    -5607324.437 6    -56539.07121        12.750           0.531
  23225375.792    -7042195.779 5   -140750.27721        11.000           0.469
 91  5 21 18 50 59.9990000  0  6G18G 2G19G11G16G 6
  21813580.464     4094072.058 7    119107.76121        21.000           1.219
  21872455.347   -10121614.409 7   -765335.36021        20.750           1.344
  20627820.761    -1070434.586 6     -2957.85422        16.750           1.719
  22914626.542    -6432788.396 6    -88645.42121        17.750           0.719
  23103604.230    -5625116.736 6    -70403.22521        13.250           0.344
  23216791.917    -7087299.418 5   -175895.91221        10.500           0.375
 91  5 21 18 51 14.9990000  0  6G18G 2G19G11G16G 6
  21819446.987     4124896.961 7    143127.07821        20.750           1.313
  21863262.315   -10169924.087 7   -802979.22021        20.250           1.375
  20627711.284    -1071021.390 6     -3415.12522        17.250           1.625
  22910382.026    -6455092.586 6   -106025.30321        17.250           0.750
  23100246.269    -5642759.677 6    -84150.98121        12.500           0.313
  23208214.925    -7132371.404 5   -211016.86621        10.000           0.344
 91  5 21 18 51 29.9990000  0  6G18G 2G19G11G16G 6
  21825329.245     4155804.511 7    167210.79922        20.250           1.500
  21854084.323   -10218156.875 6   -840563.16722        19.750           1.500
  20627609.433    -1071552.209 6     -3828.75722        17.000           1.906
  22906165.503    -6477248.513 6   -123289.64821        17.000           0.906
  23096914.644    -5660261.985 6    -97789.15621        12.500           0.531
  23199641.690    -7177420.059 5   -246119.63921         9.500           0.438
 91  5 21 18 51 44.9990000  0  6G18G 2G19G11G16G 6
  21831224.198     4186790.583 7    191355.69422        20.500           1.531
  21844919.386   -10266316.735 7   -878090.28122        20.500           1.531
  20627517.058    -1072030.937 6     -4201.80422        17.250           1.781
  22901977.386    -6499259.867 6   -140441.35121        18.000           0.875
  23093609.409    -5677627.296 6   -111320.58121        12.750           0.438
  23191067.222    -7222449.293 5   -281207.29221         9.250           0.375
 91  5 21 18 51 59.9990000  0  6G18G 2G19G11G16G 6
  21837136.417     4217861.399 7    215566.62621        20.250           1.156
  21835770.894   -10314396.738 7   -915555.16521        21.250           1.219
  20627438.151    -1072450.892 6     -4529.05921        17.250           1.344
  22897819.198    -6521119.883 6   -157475.12821        18.500           0.656
  23090333.339    -5694848.939 6   -124740.05221        12.250           0.344
  23182503.776    -7267452.502 5   -316274.66321         9.750           0.250
 91  5 21 18 52 14.9990000  0  6G18G 2G19G11G16G 6
  21843064.808     4249015.104 7    239842.15121        20.000           1.156
  21826636.097   -10362398.503 7   -952959.09921        21.000           1.188
  20627369.698    -1072813.742 6     -4811.81121        17.750           1.313
  22893687.894    -6542830.137 6   -174392.21721        18.500           0.594
  23087083.105    -5711928.833 6   -138049.09321        12.250           0.313
  23173942.855    -7312431.402 5   -351323.10821         9.250           0.219
 91  5 21 18 52 29.9990000  0  6G18G 2G19G11G16G 6
  21849006.190     4280238.050 7    264171.63221        20.000           1.219
  21817514.597   -10410335.701 7   -990312.70322        21.500           1.531
  20627307.292    -1073133.112 6     -5060.68722        17.000           1.625
  22889582.026    -6564404.145 6   -191203.12921        18.000           0.719
  23083859.144    -5728880.571 6   -151258.26221        12.500           0.375
  23165389.495    -7357399.772 5   -386363.30621         9.250           0.344
 91  5 21 18 52 44.9990000  0  6G18G 2G19G11G16G 6
  21854965.362     4311547.362 7    288568.40021        20.250           1.219
  21808407.894   -10458190.523 7  -1027602.12821        21.500           1.438
  20627259.339    -1073391.529 6     -5262.07722        17.750           1.563
  22885504.019    -6585824.104 6   -207894.01021        17.750           0.688
  23080658.120    -5745686.549 6   -164353.85421        12.500           0.375
  23156838.948    -7402339.856 5                        10.000
 91  5 21 18 52 59.9990000  0  6G18G 2G19G11G16G 6
  21860937.019     4342929.334 7    313021.79921        20.250           1.438
  21799314.972   -10505976.439 7  -1064837.85222        21.750           1.688
  20627218.847    -1073602.574 6     -5426.52022        17.500           1.906
  22881455.073    -6607103.483 6   -224475.33721        17.250           0.813
  23077484.909    -5762360.447 6   -177346.50621        12.500           0.375
  23148288.511    -7447265.399 5                        10.000
 91  5 21 18 53 14.9990000  0  6G18G 2G19G11G16G 6
  21866922.784     4374385.168 7    337532.74722        20.250           1.500
  21790234.550   -10553692.095 7  -1102018.83822        21.750           1.781
  20627185.995    -1073764.936 6                        17.500
  22877433.495    -6628240.789 6   -240945.96021        17.500           0.906
  23074338.105    -5778900.665 6   -190235.00421        12.500           0.438
  23139742.401    -7492175.046 5        -0.31531        10.500           0.438
 91  5 21 18 53 29.9990000  0  6G18G 2G19G11G16G 6
  21872922.495     4405914.980 7    362101.34621        20.000           1.125
  21781168.480   -10601337.109 7  -1139144.77222        21.750           1.781
  20627169.347    -1073878.235 6                        17.000
  22873437.995    -6649235.691 6   -257305.61221        17.750           0.906
  23071214.901    -5795307.072 6   -203019.23121        12.250           0.438
  23131199.550    -7537068.555 5    -34982.20221        11.250           0.406
 91  5 21 18 53 44.9990000  0  6G18G 2G19G11G16G 6
  21878940.769     4437539.619 7    386743.83821        20.500           1.250
  21772118.745   -10648890.347 7  -1176199.19622        21.750           1.688
  20627159.167    -1073921.369 6                        17.750
  22869474.058    -6670066.967 6   -273537.77321        17.500           0.813
  23068123.925    -5811558.896 6   -215683.00421        12.500           0.438
  23122663.901    -7581924.816 5    -69935.08521        11.000           0.500
 91  5 21 18 53 59.9990000  0  6G18G 2G19G11G16G 6
  21884973.206     4469237.650 7    411443.51821        20.250           1.406
  21763082.855   -10696372.855 7  -1213198.50122        21.250           1.781
  20627157.675    -1073915.547 6                        17.250
  22865536.909    -6690755.665 6   -289658.82721        17.250           0.906
  23065059.065    -5827677.377 6   -228242.88221        12.250           0.438
  23114134.097    -7626765.118 5   -104875.51721        10.750           0.531
 91  5 21 18 54 14.9990000  0  6G18G 2G19G11G16G 6
  21891022.105     4501025.609 7    436213.26321        20.000           1.281
  21754064.370   -10743767.802 7  -1250129.58422        21.500           1.813
  20627173.417    -1073844.075 6                        17.250
  22861629.776    -6711284.818 6   -305655.56321        16.250           0.875
  23062018.901    -5843645.353 6   -240685.46821        12.000           0.344
  23105605.089    -7671572.634 5   -139790.40921        11.000           0.469
 91  5 21 18 54 29.9990000  0  6G18G 2G19G11G16G 6
  21897087.026     4532897.825 7    461048.66021        20.250           1.188
  21745061.355   -10791080.218 7  -1286996.34722        21.250           1.813
  20627199.073    -1073712.043 6                        17.500
  22857751.573    -6731659.575 6   -321531.98521        16.250           0.781
  23059006.730    -5859468.285 5   -253015.06621        11.750           0.438
  23097084.534    -7716352.741 5   -174683.92221        10.750           0.500
 91  5 21 18 54 44.9990000  0  6G18G 2G19G11G16G 6
  21903165.347     4564842.085 7    485940.20121        20.250           1.125
  21736070.980   -10838322.261 7  -1323808.27722        22.250           1.906
  20627231.769    -1073531.668 6                        17.250
  22853903.245    -6751892.003 6   -337297.51321        16.750           0.875
  23056019.698    -5875158.377 5   -265241.11521        11.750           0.438
  23088567.128    -7761117.565 5   -209565.55421        10.500           0.469
 91  5 21 18 54 59.9990000  0  6G18G 2G19G11G16G 6
  21909260.542     4596867.308 7    510894.83521        20.250           1.188
  21727094.753   -10885484.905 7  -1360558.35222        21.500           1.813
  20627277.589    -1073294.037 6                        17.500
  22850082.487    -6771972.993 6   -352945.03221        17.000           0.906
  23053062.151    -5890706.920 5   -277356.88321        11.500           0.406
  23080052.800    -7805858.246 5   -244428.35521        10.250           0.375
 91  5 21 18 55 14.9990000  0  6G18G 2G19G11G16G 6
  21915371.370     4628981.478 7    535918.77321        20.000           1.406
  21718135.683   -10932559.478 7  -1397239.78422        21.000           2.063
  20627335.675    -1072990.646 6     -4949.79622        17.250           1.750
  22846291.644    -6791893.851 6   -368467.77821        17.750           0.875
  23050130.956    -5906105.295 5   -289355.63421        11.250           0.531
  23071547.276    -7850566.269 5   -279265.73521        10.250           0.500
 91  5 21 18 55 29.9990000  0  6G18G 2G19G11G16G 6
  21921498.144     4661174.486 6    561004.12521        19.750           0.813
  21709194.026   -10979555.820 7  -1433860.26122        21.250           1.563
  20627402.120    -1072631.467 6     -4669.94121        17.250           1.344
  22842529.323    -6811664.494 6   -383873.46821        17.250           0.094
  23047229.800    -5921363.590 5   -301245.23021        11.500           0.406
  23063041.651    -7895251.579 5   -314085.38621        10.250           0.156
 91  5 21 18 55 44.9990000  0  6G18G 2G19G11G16G 6
  21927639.175     4693449.669 6                        19.250
  21700265.831   -11026470.664 7  -1470417.25322        20.750           1.906
  20627483.753    -1072213.326 6     -4344.14522        17.000           1.563
  22838795.019    -6831281.463 6   -399159.42421        17.250           0.750
  23044351.948    -5936478.580 5                        11.000
  23054543.081    -7939910.910 5                        10.000
 91  5 21 18 55 59.9990000  0  6G18G 2G19G11G16G 6
  21933793.862     4725787.175 6                        19.500
  21691350.534   -11073323.066 7  -1506925.56422        21.750           1.750
  20627571.667    -1071755.143 6     -3987.11422        17.500           1.531
  22835087.831    -6850763.895 6   -414340.53221        18.000           0.813
  23041500.308    -5951469.496 5                        11.250
  23046043.276    -7984563.599 5                        10.000
 91  5 21 18 56 14.9990000  0  6G18G 2G19G11G16G 6
  21939962.855     4758209.462 6                        19.250
  21682450.589   -11120090.368 7  -1543367.60621        21.500           0.156
  20627668.855    -1071234.309 6     -3581.31921        16.750           0.094
  22831410.019    -6870088.976 6                        18.000
  23038676.815    -5966313.470 5                        11.750
  23037554.019    -8029186.965 5                        10.500
 91  5 21 18 56 29.9990000  0  6G18G 2G19G11G16G 6
  21946147.823     4790712.156 6                        19.250
  21673567.323   -11166776.912 7  -1579746.67121        21.750           0.188
  20627779.815    -1070655.199 6                        17.500
  22827762.565    -6889260.902 6                        18.500
  23035879.737    -5981015.163 6                        12.000
  23029067.362    -8073785.323 5                        10.250
 91  5 21 18 56 44.9990000  0  6G18G 2G19G11G16G 6
  21952348.511     4823294.727 6                        19.250
  21664698.026   -11213382.936 7                        22.000
  20627901.339    -1070018.210 6                        17.250
  22824144.073    -6908279.960 6                        19.250
  23033107.901    -5995574.881 6                        12.500
  23020585.230    -8118359.136 5                        10.750
 91  5 21 18 56 59.9990000  0  6G18G 2G19G11G16G 6
  21958563.276     4855954.401 6                        19.000
  21655843.034   -11259910.855 7                        21.500
  20628031.901    -1069325.794 6                        17.750
  22820553.230    -6927148.418 6                        18.500
  23030366.487    -6009995.289 6                        12.750
  23012106.105    -8162910.833 5                        10.250
 91  5 21 18 57 14.9990000  0  6G18G 2G19G11G16G 6
  21964791.714     4888688.460 6                        18.750
  21647003.276   -11306362.956 7                        21.250
  20628175.800    -1068580.304 6        -0.26431        18.000           1.219
  22816990.761    -6945868.658 6                        18.250
  23027644.980    -6024278.760 6                        12.500
  23003630.894    -8207442.927 5                        10.250
 91  5 21 18 57 29.9990000  0  6G18G 2G19G11G16G 6
  21971038.886     4921513.201 6        -0.28631        18.750           1.000
  21638182.542   -11352722.821 7        -0.36932        21.750           1.531
  20628330.503    -1067765.534 6       634.61621        17.750           1.406
  22813459.120    -6964424.363 6        -0.07631        17.750           0.750
  23024955.972    -6038408.828 6        -0.47031        12.750           0.438
  22995162.815    -8251939.075 5        -0.17131        10.250           0.406
 91  5 21 18 57 44.9990000  0  6G18G 2G19G11G16G 6
  21977302.597     4954429.763 6     25648.88321        18.000           1.031
  21629377.628   -11398988.895 7    -36051.81022        21.500           1.594
  20628498.550    -1066880.057 6      1324.57422        18.250           1.531
  22809960.667    -6982813.961 6    -14329.62021        18.250           0.688
  23022299.355    -6052384.320 6    -10890.47421        13.000           0.313
  22986702.370    -8296397.957 5    -34643.39221        10.750           0.313
 91  5 21 18 57 59.9990000  0  6G18G 2G19G11G16G 6
  21983577.909     4987410.015 6     51347.67421        17.750           0.844
  21620587.011   -11445188.945 7    -72051.80221        21.000           1.406
  20628675.745    -1065951.526 6      2048.09221        18.750           1.344
  22806487.417    -7001064.964 6    -28551.17321        18.000           0.625
  23019662.284    -6066233.082 6    -21681.74421        12.250           0.375
  22978245.159    -8340847.253 5    -69279.15221        10.750           0.344
 91  5 21 18 58 14.9990000  0  6G18G 2G19G11G16G 6
  21989866.690     5020454.097 6     77096.22021        18.250           1.094
  21611807.831   -11491322.484 7   -107999.96722        21.500           1.625
  20628859.667    -1064979.673 6      2805.37422        18.500           1.500
  22803039.503    -7019176.908 6    -42664.36821        17.750           0.688
  23017051.292    -6079954.870 6    -32374.06121        12.500           0.406
  22969787.487    -8385286.606 5   -103907.15821        10.750           0.438
 91  5 21 18 58 29.9990000  0  6G18G 2G19G11G16G 6
  21996169.667     5053578.311 6    102907.19721        18.000           0.906
  21603044.651   -11537373.091 7   -143883.50221        21.750           1.375
  20629053.651    -1063948.088 6      3609.18821        19.250           1.375
  22799622.644    -7037133.521 6    -56656.52221        17.500           0.500
  23014467.011    -6093532.991 6    -42954.45021        12.750           0.281
  22961336.034    -8429699.830 5   -138514.79821        10.750           0.375
 91  5 21 18 58 44.9990000  0  6G18G 2G19G11G16G 6
  22002486.081     5086772.627 6    128772.79921        18.000           1.156
  21594294.964   -11583350.031 7   -179709.63922        21.500           1.844
  20629263.183    -1062866.336 6      4452.09922        18.000           1.750
  22796234.698    -7054944.145 6    -70534.92321        17.500           0.719
  23011908.839    -6106977.556 6    -53430.75721        12.000           0.406
  22952888.808    -8474096.391 5   -173109.45421        11.000           0.500
 91  5 21 18 58 59.9990000  0  6G18G 2G19G11G16G 6
  22008816.870     5120034.803 6    154691.27821        18.000           1.219
  21585559.972   -11629255.465 7   -215480.05522        21.750           1.781
  20629477.581    -1061736.403 6      5332.55222        18.000           1.969
  22792872.269    -7072610.663 6    -84301.03321        16.750           0.844
  23009374.597    -6120290.532 5    -63804.51521        11.750           0.594
  22944443.690    -8518478.324 5   -207692.71921        11.000           0.531
 91  5 21 18 59 14.9990000  0  6G18G 2G19G11G16G 6
  22015161.644     5153379.113 6    180673.75421        18.000           1.031
  21576842.089   -11675074.944 7   -251183.50122        22.000           1.563
  20629704.128    -1060543.945 6      6261.72921        17.750           1.469
  22789540.081    -7090118.767 6    -97943.69821        17.000           0.719
  23006868.511    -6133457.605 6    -74064.60521        12.000           0.375
  22936004.558    -8562831.463 5   -242253.55921        11.500           0.438
 91  5 21 18 59 29.9990000  0  6G18G 2G19G11G16G 6
  22021519.683     5186787.473 6    206706.14221        17.750           1.094
  21568134.690   -11720826.361 7   -286833.91122        21.000           1.656
  20629939.675    -1059306.840 6      7225.69722        17.750           1.625
  22786236.019    -7107486.256 6   -111476.79121        17.250           0.781
  23004387.597    -6146496.813 5    -84225.04321        11.250           0.375
  22927566.003    -8607173.678 5   -276805.87621        11.500           0.469
 91  5 21 18 59 44.9990000  0  6G18G 2G19G11G16G 6
  22027890.136     5220266.358 6    232793.48821        17.500           1.031
  21559442.417   -11766502.725 7   -322425.84022        21.250           1.531
  20630183.886    -1058018.103 6      8229.88922        17.500           1.594
  22782959.440    -7124706.146 6   -124894.87621        17.250           0.719
  23001932.159    -6159401.339 5    -94280.54721        11.000           0.375
  22919131.550    -8651498.088 5   -311344.32121        11.750           0.500
 91  5 21 18 59 59.9990000  0  6G18G 2G19G11G16G 6
  22034277.042     5253831.091 6    258947.71921        17.250           1.156
  21550768.472   -11812088.653 7   -357947.29422        21.250           1.750
  20630445.433    -1056662.505 6      9286.18822        17.000           1.625
  22779712.714    -7141762.898 6   -138185.83421        17.500           0.781
  22999504.198    -6172155.844 5   -104219.15821        11.250           0.438
  22910702.800    -8695789.247 5   -345856.85521        11.250           0.438
 91  5 21 19  0 14.9990000  0  6G18G 2G19G11G16G 6
  22040681.714     5287485.646 6    285171.93221        17.750           0.875
  21542110.425   -11857579.743 7   -393394.86921        21.750           1.344
  20630714.722    -1055235.781 6     10397.90421        18.000           1.375
  22776498.198    -7158652.256 6   -151346.36721        17.500           0.719
  22997106.206    -6184756.230 5   -114037.66221        11.500           0.344
  22902281.456    -8740043.120 5   -380340.35821        11.500           0.469
 91  5 21 19  0 29.9990000  0  6G18G 2G19G11G16G 6
  22047101.394     5321220.679 6    311458.87021        18.000           1.031
  21533470.667   -11902984.886 7   -428775.45822        21.500           1.531
  20630998.159    -1053746.992 6     11557.99322        18.750           1.563
  22773314.167    -7175383.107 6   -164383.37721        17.750           0.719
  22994736.355    -6197211.246 5   -123742.89621        11.250           0.313
  22893867.136    -8784268.574 5   -414801.69421        11.750           0.594
 91  5 21 19  0 44.9990000  0  6G18G 2G19G11G16G 6
  22053535.323     5355028.238 6    337802.32921        18.250           0.906
  21524846.597   -11948311.775 7   -464095.06421        21.500           1.406
  20631292.792    -1052203.792 6     12760.48221        18.500           1.438
  22770160.855    -7191962.992 6   -177302.74721        18.000           0.688
  22992395.511    -6209528.847 5   -133341.03821        11.500           0.281
  22885453.183    -8828473.456 5   -449246.99521        11.250           0.438
 91  5 21 19  0 59.9990000  0  6G18G 2G19G11G16G 6
  22059981.925     5388908.042 6    364202.06621        18.250           0.969
  21516235.261   -11993560.356 7   -499353.66022        21.500           1.594
  20631599.019    -1050606.025 6     14005.48022        17.500           1.656
  22767033.980    -7208391.895 6   -190104.49121        18.250           0.656
  22990075.487    -6221709.269 5   -142832.31721        11.000           0.313
  22877043.222    -8872657.661 5   -483676.19121        10.750           0.438
 91  5 21 19  1 14.9990000  0  6G18G 2G19G11G16G 6
  22066441.972     5422857.114 6    390655.76621        18.250           1.063
  21507639.058   -12038733.440 7   -534553.45222        21.250           1.563
  20631909.159    -1048956.850 6     15290.52122        18.250           1.625
  22763936.058    -7224672.711 6   -202790.86021        17.750           0.719
  22987780.870    -6233755.744 5   -152219.19921        11.000           0.406
  22868641.183    -8916824.274 5   -518091.66921        10.500           0.563
 91  5 21 19  1 29.9990000  0  6G18G 2G19G11G16G 6
  22072914.667     5456866.834 6    417156.75821        18.000           0.156
  21499056.089   -12083839.012 7   -569700.60521        21.500           0.219
  20632234.675    -1047264.308 6     16609.36921        17.750           0.344
  22760864.651    -7240813.398 6   -215367.97321        17.750           0.031
  22985511.839    -6245676.096 5   -161507.83421        11.000           0.031
  22860234.206    -8960981.367 5   -552499.76221        10.500           0.125
 91  5 21 19  1 44.9990000  0  6G18G 2G19G11G16G 6
  22079400.565     5490949.322 6    443714.45621        18.000           1.125
  21490487.589   -12128864.736 7   -604785.51522        21.500           1.813
  20632564.245    -1045516.107 6     17971.62022        18.250           1.844
  22757821.581    -7256801.646 6   -227826.34021        17.500           0.875
  22983271.878    -6257458.234 5   -170688.71021        11.000           0.438
  22851838.206    -9005116.771 5   -586890.91921        11.000           0.531
 91  5 21 19  1 59.9990000  0  6G18G 2G19G11G16G 6
  22085902.378     5525115.914 6    470337.67521        18.000           1.063
  21481937.315   -12173798.981 7   -639799.18822        22.000           1.813
  20632912.589    -1043700.705 6     19386.20222        17.250           1.719
  22754810.683    -7272625.735 6   -240156.79521        17.500           0.844
  22981059.362    -6269090.468 5   -179752.81521        11.500           0.438
  22843444.683    -9049218.811 5   -621256.09221        10.750           0.500
 91  5 21 19  2 14.9990000  0  6G18G 2G19G11G16G 6
  22092419.878     5559367.986 6    497027.50321        17.750           1.031
  21473404.894   -12218640.558 7   -674740.62822        22.500           1.656
  20633268.417    -1041816.614 6     20854.31922        17.750           1.625
  22751831.042    -7288284.285 6   -252358.24521        16.750           0.844
  22978872.128    -6280571.651 5   -188699.21921        11.000           0.375
  22835060.308    -9093286.246 5   -655594.29221        11.000           0.531
 91  5 21 19  2 29.9990000  0  6G18G 2G19G11G16G 6
  22098951.753     5593687.430 6    523769.82921        18.250           1.063
  21464885.550   -12263406.915 7   -709623.46322        22.250           1.813
  20633640.019    -1039881.288 6     22362.34922        17.500           1.719
  22748879.980    -7303794.896 6   -264444.42521        17.250           0.875
  22976714.675    -6291919.727 5   -197541.90721        11.500           0.500
  22826679.237    -9137336.674 5   -689919.26221        11.500           0.563
 91  5 21 19  2 44.9990000  0  6G18G 2G19G11G16G 6
  22105491.417     5628053.053 6    550548.13221        18.000           1.094
  21456376.355   -12308118.821 7   -744463.86922        23.500           1.906
  20634011.308    -1037915.992 6     23893.73222        18.250           1.969
  22745953.308    -7319178.333 6   -276431.50621        18.000           0.781
  22974577.159    -6303155.378 5   -206296.98321        11.750           0.500
  22818297.300    -9181391.130 5   -724247.35621        11.500           0.625
 91  5 21 19  2 59.9990000  0  6G18G 2G19G11G16G 6
  22112044.542     5662487.453 6    577380.03121        17.750           1.031
  21447884.245   -12352753.350 7   -779243.98622        22.750           1.969
  20634396.394    -1035897.717 6     25466.40422        17.500           1.938
  22743054.011    -7334411.660 6   -288301.62621        18.000           0.781
  22972463.605    -6314256.008 5   -214946.86221        11.250           0.375
  22809914.370    -9225426.697 5   -758560.73521        11.250           0.531
 91  5 21 19  3 14.9990000  0  6G18G 2G19G11G16G 6
  22118610.019     5696995.228 6    604269.10021        18.000           1.094
  21439405.659   -12397305.865 7   -813960.18622        23.000           2.031
  20634789.362    -1033821.981 6     27083.84822        17.750           1.781
  22740183.612    -7349490.295 6   -300051.20221        18.000           1.031
  22970378.948    -6325217.154 5   -223488.05021        11.500           0.375
  22801539.792    -9269438.794 5   -792855.84121        10.750           0.625
 91  5 21 19  3 29.9990000  0  6G18G 2G19G11G16G 6
  22125188.987     5731562.825 6    631204.78821        17.750           1.125
  21430939.190   -12441789.542 7   -848622.74922        23.000           2.031
  20635193.534    -1031701.816 6     28735.90722        17.750           1.875
  22737340.980    -7364427.286 6   -311690.40321        18.000           0.906
  22968318.519    -6336052.088 5   -231930.87921        11.250           0.375
  22793166.386    -9313440.772 5   -827143.04421        11.000           0.563
 91  5 21 19  3 44.9990000  0  6G18G 2G19G11G16G 6
  22131780.065     5766201.592 6    658195.92221        17.750           0.938
  21422491.073   -12486192.449 7   -883222.38022        23.500           1.938
  20635607.565    -1029525.504 6     30431.71922        17.500           1.688
  22734529.808    -7379210.739 6   -323209.97021        18.250           0.844
  22966279.808    -6346749.041 5   -240266.20321        11.250           0.406
  22784795.605    -9357420.468 5   -861412.82321        10.750           0.531
 91  5 21 19  3 59.9990000  0  6G18G 2G19G11G16G 6
  22138387.339     5800923.479 6    685251.84221        17.750           1.094
  21414057.894   -12530502.491 7   -917749.64822        23.500           2.094
  20636034.589    -1027280.862 6     32180.77122        18.000           1.938
  22731747.800    -7393828.669 6   -334600.56321        18.250           0.906
  22964272.870    -6357296.129 5   -248484.73521        11.750           0.406
  22776432.769    -9401366.139 5   -895656.03821        10.750           0.594
 91  5 21 19  4 14.9990000  0  6G18G 2G19G11G16G 6
  22145009.855     5835722.637 6    712367.95021        17.250           0.969
  21405643.339   -12574725.173 7   -952208.83122        23.750           2.063
  20636472.683    -1024973.551 6     33978.66122        17.750           1.844
  22728995.339    -7408286.638 6   -345866.50321        18.250           0.906
  22962293.628    -6367698.833 5   -256590.77121        11.500           0.406
  22768077.401    -9445283.461 5   -929877.28821        11.000           0.594
 91  5 21 19  4 29.9990000  0  6G18G 2G19G11G16G 6
  22151644.917     5870595.074 6    739541.18321        17.250           1.000
  21397243.159   -12618864.330 7   -986602.93922        23.000           1.906
  20636924.073    -1022607.453 6     35822.35922        17.750           1.781
  22726274.980    -7422588.357 6   -357010.69621        18.500           0.875
  22960341.206    -6377961.360 5   -264587.59921        11.500           0.375
  22759724.597    -9489176.316 5   -964079.46221        11.000           0.563
 91  5 21 19  4 44.9990000  0  6G18G 2G19G11G16G 6
  22158294.659     5905534.312 6    766766.45721        17.250           0.969
  21388858.714   -12662926.214 7  -1020936.82422        23.250           2.219
  20637384.159    -1020188.849 6     37706.97522        18.000           1.813
  22723579.878    -7436739.958 6   -368037.91521        18.000           0.813
  22958413.995    -6388090.028 5   -272480.08621        11.250           0.406
  22751375.472    -9533050.865 5   -998267.35721        11.250           0.563
 91  5 21 19  4 59.9990000  0  6G18G 2G19G11G16G 6
  22164955.558     5940540.524 6    794043.92321        17.250           0.938
  21380488.808   -12706910.139 7  -1055209.96222        23.000           2.250
  20637855.565    -1017717.151 6     39632.95922        17.750           1.875
  22720915.003    -7450740.989 6   -378947.79821        17.750           0.781
  22956509.253    -6398084.255 5   -280267.82821        10.750           0.531
  22743029.237    -9576906.748 5  -1032440.73521        11.250           0.594
 91  5 21 19  5 14.9990000  0  6G18G 2G19G11G16G 6
  22171630.276     5975615.499 6    821374.94621        17.000           0.844
  21372134.026   -12750814.066 7                        22.750
  20638335.589    -1015190.273 6     41601.93422        17.750           1.625
  22718279.909    -7464589.297 6   -389738.68421        17.750           0.813
  22954630.659    -6407942.185 5   -287949.37221        10.250           0.406
  22734689.792    -9620741.836 5                        11.500
 91  5 21 19  5 29.9990000  0  6G18G 2G19G11G16G 6
  22178319.386     6010764.942 6    848764.01321        17.250           0.875
  21363795.651   -12794631.921 7                        23.000
  20638826.792    -1012602.382 6     43618.45922        18.000           1.656
  22715678.003    -7478278.910 6   -400405.90521        18.250           0.844
  22952785.230    -6417658.067 5   -295520.20821        10.750           0.344
  22726352.433    -9664550.195 6                        12.250
 91  5 21 19  5 44.9990000  0  6G18G 2G19G11G16G 6
  22185022.011     6045988.503 6    876210.83921        17.000           0.844
  21355473.901   -12838363.835 7                        23.250
  20639331.925    -1009953.377 6     45682.59522        17.750           1.719
  22713102.081    -7491809.747 6   -410949.41321        18.500           0.719
  22950962.683    -6427232.079 5   -302980.49821        10.750           0.438
  22718021.464    -9708331.878 6                        12.000
 91  5 21 19  5 59.9990000  0  6G18G 2G19G11G16G 6
  22191737.230     6081278.420 6    903709.36521        16.750           0.750
  21347165.862   -12882017.313 7  -1191656.94122        22.750           2.063
  20639849.362    -1007250.889 6     47788.41622        16.750           1.688
  22710554.487    -7505189.354 6   -421375.07621        18.000           0.906
  22949170.667    -6436671.885 5   -310336.23221        11.250           0.375
  22709695.565    -9752094.594 6  -1168950.52921        12.000           0.563
 91  5 21 19  6 14.9990000  0  6G18G 2G19G11G16G 6
  22198468.995     6116643.657 6    931266.57721        17.250           0.719
  21338874.128   -12925582.981 7  -1225604.17122        22.250           1.938
  20640372.370    -1004485.617 6     49943.15122        17.500           1.625
  22708040.105    -7518408.572 6   -431675.76021        18.000           0.688
  22947399.855    -6445968.274 6   -317580.20121        12.000           0.344
  22701372.589    -9795829.086 5  -1203029.30021        11.750           0.406
 91  5 21 19  6 29.9990000  0  6G18G 2G19G11G16G 6
  22205208.995     6152063.507 6    958866.33821        17.500           0.938
  21330597.698   -12969081.314 7  -1259498.93422        22.500           2.000
  20640905.839    -1001678.163 6     52130.76122        18.000           1.656
  22705550.175    -7531487.836 6   -441867.38921        17.750           0.813
  22945657.050    -6455141.978 6   -324728.58521        12.500           0.375
  22693049.206    -9839555.768 5  -1237101.98521        11.500           0.531
 91  5 21 19  6 44.9980000  0  6G18G 2G19G11G16G 6
  22211959.553     6187538.597 6    986509.15221        17.000           0.844
  21322336.123   -13012505.918 7  -1293336.24922        23.000           2.156
  20641450.217     -998825.339 6     54353.72422        17.750           1.844
  22703089.701    -7544422.907 6   -451946.66621        18.000           0.813
  22943932.139    -6464189.386 6   -331778.54721        12.000           0.438
  22684729.982    -9883268.498 5  -1271163.78721        11.500           0.563
 91  5 21 19  6 59.9980000  0  6G18G 2G19G11G16G 6
  22218724.061     6223087.496 6   1014209.47721        17.000           0.844
  21314086.873   -13055848.447 7  -1327109.60422        22.750           2.406
  20642003.725     -995912.637 6     56623.34522        17.750           2.125
  22700657.053    -7557201.284 6   -461903.84321        17.750           1.031
  22942235.240    -6473097.222 5   -338719.75221        11.750           0.406
  22676416.662    -9926959.073 6  -1305208.32921        12.500           0.625
 91  5 21 19  7 14.9980000  0  6G18G 2G19G11G16G 6
  22225502.709     6258712.328 6   1041968.97621        16.500           0.906
  21305856.006   -13099101.273 7  -1360813.06222        22.500           2.188
  20642569.389     -992935.589 6     58943.10622        17.500           1.813
  22698257.943    -7569817.580 6   -471734.71621        17.750           0.875
  22940567.537    -6481860.531 5   -345548.33021        11.500           0.406
  22668110.287    -9970619.970 6  -1339229.76321        12.250           0.500
 91  5 21 19  7 29.9980000  0  6G18G 2G19G11G16G 6
  22232295.693     6294410.611 6   1069785.70921        16.500           1.031
  21297641.404   -13142266.726 7  -1394448.43022        22.750           2.250
  20643148.170     -989896.324 6     61311.34322        17.500           2.000
  22695886.928    -7582273.843 6   -481440.89021        17.750           1.000
  22938928.334    -6490481.548 5   -352266.04221        11.500           0.469
  22659807.920   -10014253.316 6  -1373229.70921        12.500           0.625
 91  5 21 19  7 44.9980000  0  6G18G 2G19G11G16G 6
  22239102.186     6330175.701 6   1097654.49021        16.250           0.938
  21289443.084   -13185351.257 7  -1428020.75722        22.750           2.406
  20643737.107     -986801.471 6     63722.90422        17.750           2.063
  22693546.451    -7594576.569 6   -491027.42421        17.250           1.063
  22937314.232    -6498967.223 5   -358878.28021        11.750           0.500
  22651505.772   -10057865.628 6  -1407213.26221        12.500           0.625
 91  5 21 19  7 59.9980000  0  6G18G 2G19G11G16G 6
  22245919.732     6366002.960 6   1125571.71621        16.750           0.938
  21281258.498   -13228359.005 7  -1461533.24823        22.250           2.531
  20644335.318     -983655.442 6     66174.34822        17.750           2.031
  22691232.232    -7606730.165 6   -500497.74221        17.750           1.063
  22935725.568    -6507322.043 5   -365388.56621        11.750           0.469
  22643210.279   -10101461.330 6  -1441183.90521        12.500           0.656
 91  5 21 19  8 14.9980000  0  6G18G 2G19G11G16G 6
  22252752.193     6401900.933 6   1153544.03621        16.500           0.719
  21273090.568   -13271281.318 7  -1494979.16122        22.500           2.188
  20644947.451     -980449.371 6     68672.56222        17.750           1.813
  22688949.373    -7618725.777 6   -509844.95921        17.250           0.906
  22934161.826    -6515537.013 5   -371789.88221        11.500           0.406
  22634921.537   -10145031.737 6  -1475134.80821        12.500           0.656
 91  5 21 19  8 29.9980000  0  6G18G 2G19G11G16G 6
  22259592.365     6437854.538 6   1181559.72121        16.250           0.906
  21264936.951   -13314132.859 7  -1528369.93222        21.750           2.281
  20645564.951     -977197.957 6     71206.12422        17.000           2.031
  22686695.123    -7630577.983 6   -519080.42921        17.500           1.031
  22932625.779    -6523627.358 6   -378094.07621        12.000           0.438
  22626632.365   -10188591.475 6  -1509077.40521        12.750           0.656
 91  5 21 19  8 44.9980000  0  6G18G 2G19G11G16G 6
  22266445.686     6473870.793 6   1209624.21421        16.250           0.938
  21256797.131   -13356906.031 7  -1561699.63322        22.250           2.219
  20646194.154     -973893.784 6     73780.79222        17.500           1.906
  22684467.225    -7642279.440 6   -528198.43521        17.500           0.938
  22931106.170    -6531585.533 5   -384295.28021        10.750           0.406
  22618347.545   -10232133.114 6  -1543005.89721        13.000           0.625
 91  5 21 19  8 59.9980000  0  6G18G 2G19G11G16G 6
  22273312.975     6509950.665 6   1237738.27721        15.750           0.781
  21248672.967   -13399599.918 7  -1594967.55722        22.250           2.063
  20646832.732     -970535.934 6     76397.28022        17.000           1.688
  22682268.709    -7653829.110 6   -537198.16321        17.250           0.969
  22929616.436    -6539410.761 5   -390392.91321        10.250           0.281
  22610062.514   -10275655.926 6  -1576919.71121        12.750           0.594
 91  5 21 19  9 14.9980000  0  6G18G 2G19G11G16G 6
  22280194.514     6546117.738 6   1265920.29021        16.000           0.906
  21240567.928   -13442190.431 7  -1628154.93222        21.750           2.344
  20647486.068     -967100.337 6     79074.35722        17.250           2.063
  22680105.373    -7665202.901 6   -546060.84921        17.500           0.906
  22928159.701    -6547079.294 5   -396368.42421        10.750           0.438
  22601787.615   -10319135.674 6  -1610799.97821        12.250           0.750
 91  5 21 19  9 29.9980000  0  6G18G 2G19G11G16G 6
  22287088.225     6582343.847 6   1294148.29121        16.000           0.781
  21232478.061   -13484705.565 7  -1661283.56722        23.000           2.063
  20648149.857     -963615.015 6     81790.18522        17.000           1.781
  22677970.459    -7676428.914 6   -554808.38421        17.750           0.844
  22926722.639    -6554619.095 5   -402243.62321        10.500           0.313
  22593519.139   -10362600.533 6  -1644668.64921        12.750           0.531
 91  5 21 19  9 44.9980000  0  6G18G 2G19G11G16G 6
  22293994.514     6618639.077 6   1322430.17021        15.750           0.781
  21224405.389   -13527134.614 7  -1694345.12422        23.000           2.031
  20648825.147     -960069.400 6     84552.98122        17.250           1.875
  22675862.592    -7687496.624 6   -563432.56521        17.500           0.750
  22925320.107    -6562019.864 5   -408010.50021        10.750           0.406
  22585251.389   -10406040.026 6  -1678517.55321        12.750           0.531
 91  5 21 19  9 59.9980000  0  6G18G 2G19G11G16G 6
  22300915.147     6655003.177 6   1350765.70421        15.750           0.781
  21216346.029   -13569478.010 7  -1727339.93322        23.750           1.875
  20649510.568     -956463.942 6     87362.42122        17.500           1.781
  22673787.553    -7698406.442 6   -571933.69821        18.500           0.656
  22923937.162    -6569282.228 5   -413669.53621        11.000           0.406
  22576988.373   -10449454.583 6  -1712347.01921        12.750           0.500
 91  5 21 19 10 14.9980000  0  6G18G 2G19G11G16G 6
  22307845.639     6691421.711 6   1379143.65821        15.500           0.719
  21208302.248   -13611749.624 7  -1760278.82222        23.250           1.813
  20650206.287     -952812.403 6     90207.75222        17.500           1.781
  22671737.537    -7709172.185 6   -580322.58121        17.750           0.656
  22922575.436    -6576420.093 5   -419231.55121        10.750           0.438
  22568731.318   -10492858.004 6  -1746167.81821        13.000           0.563
 91  5 21 19 10 29.9980000  0  6G18G 2G19G11G16G 6
  22314788.584     6727911.765 6   1407577.33821        15.500           0.875
  21200275.068   -13653932.184 7  -1793148.31322        23.250           2.063
  20650910.920     -949097.650 6     93102.35622        17.500           1.938
  22669720.115    -7719776.446 6   -588585.63021        17.750           0.719
  22921246.373    -6583416.185 5   -424683.09221        11.250           0.406
  22560475.811   -10536233.014 6  -1779966.47221        12.750           0.531
 91  5 21 19 10 44.9980000  0  6G18G 2G19G11G16G 6
  22321745.147     6764467.007 6   1436061.81021        15.000           0.719
  21192263.881   -13696031.599 7  -1825953.02522        22.250           1.906
  20651630.186     -945325.754 6     96041.48522        17.500           1.813
  22667732.756    -7730225.323 6   -596727.60921        17.500           0.656
  22919941.623    -6590276.803 5   -430029.07621        11.500           0.344
  22552225.982   -10579585.718 6  -1813747.75421        13.000           0.531
 91  5 21 19 10 59.9980000  0  6G18G 2G19G11G16G 6
  22328713.647     6801084.746 6   1464594.97821        14.250           0.750
  21184268.928   -13738049.961 7  -1858694.56522        22.500           2.063
  20652357.029     -941498.623 6     99023.65522        17.500           2.063
  22665772.436    -7740520.958 6   -604750.15821        16.750           0.844
  22918662.498    -6597004.382 5   -435271.37421        11.500           0.344
  22543979.334   -10622918.288 6  -1847513.32821        12.500           0.563
 91  5 21 19 11 14.9980000  0  6G18G 2G19G11G16G 6
  22335693.928     6837769.185 6   1493180.13821        14.250           0.594
  21176288.787   -13779983.319 7  -1891369.87622        22.250           1.969
  20653099.193     -937612.524 6    102051.76922        17.000           1.875
  22663842.459    -7750659.456 6   -612650.27621        16.750           0.688
  22917410.389    -6603595.031 6   -440406.99321        12.000           0.375
  22535738.264   -10666226.791 6  -1881260.16521        12.000           0.438
 91  5 21 19 11 29.9980000  0  6G18G 2G19G11G16G 6
  22342688.139     6874522.042 6   1521818.58721        14.250           0.625
  21168326.740   -13821829.639 7  -1923977.37322        23.000           1.875
  20653849.584     -933665.302 6    105127.51222        17.500           1.813
  22661944.600    -7760638.700 6   -620426.30421        17.250           0.688
  22916179.342    -6610046.741 5   -445434.35421        11.500           0.344
  22527501.764   -10709509.148 6  -1914986.64121        12.000           0.438
 91  5 21 19 11 44.9980000  0  6G18G 2G19G11G16G 6
  22349695.639     6911343.141 6   1550510.22521        14.500           0.625
  21160380.412   -13863588.363 7  -1956516.61122        23.500           1.844
  20654611.936     -929656.695 6    108251.09522        17.000           2.031
  22660076.178    -7770458.417 6   -628078.01021        16.750           0.844
  22914978.139    -6616359.520 6   -450353.45621        12.000           0.438
  22519270.334   -10752765.100 6  -1948692.54221        12.000           0.500
 91  5 21 19 11 59.9980000  0  6G18G 2G19G11G16G 6
  22356712.865     6948215.538 6   1579241.84321        14.750           0.844
  21152447.482   -13905276.288 7  -1989000.68022        23.500           1.938
  20655384.451     -925603.394 6    111409.50022        17.500           2.000
  22658234.022    -7780135.307 6   -635618.43621        16.750           0.750
  22913799.982    -6622550.425 5   -455177.56821        11.750           0.438
  22511038.201   -10796011.401 5  -1982390.89221        11.500           0.656
 91  5 21 19 12 14.9980000  0  6G18G 2G19G11G16G 6
  22363737.522     6985134.896 6   1608010.03421        15.000           0.719
  21144526.561   -13946897.393 7  -2021432.67722        24.000           1.719
  20656162.342     -921509.602 6    114599.45522        17.500           1.844
  22656418.381    -7789673.527 6   -643050.79721        16.500           0.656
  22912642.982    -6628623.359 5   -459909.78221        11.500           0.438
  22502810.967   -10839252.124 6  -2016084.92021        12.750           0.406
 91  5 21 19 12 29.9980000  0  6G18G 2G19G11G16G 6
  22370776.412     7022120.711 6   1636830.01421        15.750           0.563
  21136623.264   -13988432.030 7  -2053797.30422        23.500           1.594
  20656954.022     -917355.468 6    117836.42722        17.000           1.656
  22654633.209    -7799053.286 6   -650359.68821        16.750           0.563
  22911515.381    -6634558.431 5   -464534.57321        11.000           0.313
  22494588.951   -10882467.597 6  -2049759.27421        13.250           0.594
 91  5 21 19 12 44.9980000  0  6G18G 2G19G11G16G 6
  22377827.389     7059169.458 6   1665699.04821        15.750           0.688
  21128733.553   -14029883.696 7  -2086097.28122        22.500           1.906
  20657754.240     -913144.356 6    121117.80522        17.250           1.875
  22652878.561    -7808278.135 6   -657547.85921        16.500           0.656
  22910408.295    -6640359.305 5   -469054.69621        11.500           0.500
  22486368.873   -10925661.294 6  -2083416.66021        12.500           0.594
 91  5 21 19 12 59.9980000  0  6G18G 2G19G11G16G 6
  22384891.795     7096296.742 6   1694629.27121        15.500           0.719
  21120864.772   -14071236.243 7  -2118320.01722        22.500           2.000
  20658569.982     -908860.242 6    124456.07122        17.500           1.813
  22651155.506    -7817331.897 6   -664602.72221        16.500           0.750
  22909334.764    -6646010.602 5   -473458.26821        11.250           0.469
  22478158.264   -10968817.150 6  -2117044.54821        12.500           0.500
 91  5 21 19 13 14.9980000  0  6G18G 2G19G11G16G 6
  22391969.131     7133484.719 6   1723606.77121        15.250           0.656
  21113010.522   -14112507.338 7  -2150479.28822        22.500           1.594
  20659394.686     -904520.764 6    127837.47521        16.750           1.469
  22649462.279    -7826232.216 6   -671538.02421        17.000           0.563
  22908283.037    -6651530.043 5   -477759.16821        11.000           0.313
  22469949.561   -11011952.925 6  -2150656.78921        12.250           0.438
 91  5 21 19 13 29.9980000  0  6G18G 2G19G11G16G 6
  22399057.147     7170729.393 6   1752628.46321        16.000           0.688
  21105171.881   -14153700.402 7  -2182577.75222        23.500           2.125
  20660235.639     -900129.562 6    131259.18122        16.500           2.000
  22647797.654    -7834982.681 6   -678356.55521        17.000           0.750
  22907258.350    -6656921.392 5   -481960.25321        11.250           0.531
  22461743.740   -11055072.050 6  -2184256.07321        12.250           0.656
 91  5 21 19 13 44.9980000  0  6G18G 2G19G11G16G 6
  22406154.381     7208026.743 6   1781691.19221        16.000           0.719
  21097348.342   -14194819.341 7  -2214618.46122        23.500           2.406
  20661075.889     -895690.483 6    134718.19822        17.000           2.063
  22646159.678    -7843587.331 6   -685061.45821        16.750           0.781
  22906255.428    -6662188.292 5   -486064.36221        10.750           0.563
  22453535.443   -11098178.540 5  -2217845.50521        11.500           0.688
 91  5 21 19 13 59.9980000  0  6G18G 2G19G11G16G 6
  22413268.623     7245409.100 6   1810820.16621        16.250           0.625
  21089543.357   -14235831.450 7  -2246575.92522        23.250           2.188
  20661939.506     -891170.744 6    138240.06522        16.250           1.938
  22644556.350    -7852013.351 6   -691627.17221        16.500           0.688
  22905282.943    -6667298.475 5   -490046.36321        10.250           0.563
  22445345.732   -11141239.658 5  -2251399.56921        11.750           0.500
 91  5 21 19 14 14.9980000  0  6G18G 2G19G11G16G 6
  22420392.256     7282842.317 6   1839988.77421        15.750           0.531
  21081753.217   -14276770.545 7  -2278476.49422        23.250           1.875
  20662804.881     -886604.299 6    141798.32322        17.000           1.688
  22642979.732    -7860294.821 6   -698080.25021        16.000           0.719
  22904333.022    -6672286.273 5   -493933.00321        10.250           0.406
  22437155.373   -11184289.393 5  -2284944.77621        11.500           0.438
 91  5 21 19 14 29.9980000  0  6G18G 2G19G11G16G 6
  22427526.615     7320337.973 6   1869206.03621        15.500           0.656
  21073980.139   -14317624.827 7  -2310310.97522        23.500           2.063
  20663687.826     -881979.331 6    145402.18822        16.500           1.844
  22641434.998    -7868419.874 6   -704411.44621        16.500           0.750
  22903406.256    -6677139.711 5   -497714.93821        10.000           0.438
  22428965.678   -11227316.008 6  -2318471.96821        12.000           0.563
 91  5 21 19 14 44.9980000  0  6G18G 2G19G11G16G 6
  22434676.654     7357914.046 6   1898485.94921        15.500           0.750
  21066223.303   -14358375.994 7  -2342065.11322        23.500           2.031
  20664580.154     -877277.600 6    149065.86522        17.000           1.750
  22639921.139    -7876370.290 6   -710606.56921        16.750           0.781
  22902513.615    -6681840.879 5   -501378.23921         9.750           0.438
  22420788.326   -11270301.068 6  -2351966.75721        12.000           0.500
 91  5 21 19 14 59.9980000  0  6G18G 2G19G11G16G 6
  22441839.592     7395546.978 6   1927810.16621        15.750           0.625
  21058484.186   -14399047.381 7  -2373757.07922        23.250           1.813
  20665487.256     -872522.447 6    152771.16722        16.250           1.688
  22638437.240    -7884169.513 6   -716683.88021        16.750           0.625
  22901645.842    -6686413.500 5   -504941.36721        10.000           0.375
  22412609.764   -11313268.065 6  -2385447.47921        12.250           0.500
 91  5 21 19 15 14.9980000  0  6G18G 2G19G11G16G 6
  22449013.857     7433254.622 6   1957192.60721        15.500           0.719
  21050762.475   -14439620.724 7  -2405372.64922        23.000           2.313
  20666401.943     -867695.705 6    156532.26122        16.750           2.000
  22636984.162    -7891799.237 6   -722629.10621        16.500           0.844
  22900802.272    -6690839.232 5   -508390.01521        10.000           0.656
  22404442.061   -11356198.848 6  -2418899.98621        12.500           0.625
 91  5 21 19 15 29.9980000  0  6G18G 2G19G11G16G 6
  22456199.982     7471011.425 6   1986613.35621        15.000           0.719
  21043056.561   -14480121.292 7  -2436931.50922        23.250           2.281
  20667330.897     -862822.698 6    160329.40122        16.500           2.063
  22635560.436    -7899284.785 6   -728462.00021        16.500           0.813
  22899984.881    -6695143.345 5   -511743.91521        10.750           0.531
  22396272.873   -11399118.605 6  -2452343.88821        13.000           0.594
 91  5 21 19 15 44.9980000  0  6G18G 2G19G11G16G 6
  22463397.506     7508833.614 6   2016085.05421        14.500           0.656
  21035366.834   -14520532.504 7  -2468420.74722        23.500           2.219
  20668268.045     -857886.820 6    164175.53122        16.750           2.063
  22634166.318    -7906609.559 6   -734169.59821        16.250           0.688
  22899192.561    -6699309.751 5   -514990.50521        10.750           0.531
  22388113.342   -11442010.857 6  -2485766.36921        13.000           0.563
 91  5 21 19 15 59.9980000  0  6G18G 2G19G11G16G 6
  22470607.732     7546720.296 6   2045607.00421        14.750           0.594
  21027692.232   -14560854.918 7  -2499840.78922        23.000           1.906
  20669220.678     -852888.753 6    168070.12022        17.000           1.688
  22632800.772    -7913774.357 6   -739752.55821        16.250           0.594
  22898426.381    -6703338.908 5   -518130.14821        11.000           0.344
  22379955.537   -11484876.293 6  -2519167.97121        12.750           0.594
 91  5 21 19 16 14.9980000  0  6G18G 2G19G11G16G 6
  22477827.014     7584666.634 6   2075175.43721        14.750           0.750
  21020037.240   -14601093.419 7  -2531195.43422        22.750           2.313
  20670183.412     -847833.151 6    172009.54522        17.250           1.969
  22631468.522    -7920783.990 6   -745214.60321        16.250           0.813
  22897685.232    -6707236.014 5   -521166.88121        10.750           0.531
  22371797.701   -11527719.688 6  -2552552.37021        12.000           0.594
 91  5 21 19 16 29.9980000  0  6G18G 2G19G11G16G 6
  22485057.647     7622665.668 6   2104784.92921        14.500           0.719
  21012393.295   -14641254.612 7  -2562489.84222        22.500           2.281
  20671154.443     -842726.638 6    175988.63622        17.500           2.063
  22630163.217    -7927645.191 6   -750560.99621        16.000           0.656
  22896969.467    -6711008.144 5   -524106.26321        11.500           0.469
  22363648.615   -11570547.765 5  -2585924.85021        11.750           0.781
 91  5 21 19 16 44.9980000  0  6G18G 2G19G11G16G 6
  22492299.490     7660711.614 6   2134430.97221        14.250           0.719
  21004763.740   -14681343.810 7  -2593728.15322        21.750           2.156
  20672134.357     -837574.573 6    180003.21822        17.750           2.000
  22628885.451    -7934363.270 6   -755795.86121        16.500           0.719
  22896273.498    -6714660.650 5   -526952.40121        11.500           0.438
  22355504.162   -11613365.748 6  -2619289.47321        12.000           0.594
 91  5 21 19 16 59.9980000  0  6G18G 2G19G11G16G 6
  22499549.959     7698816.435 6   2164122.90521        14.000           0.625
  20997151.397   -14721348.835 7  -2624900.87222        22.250           2.406
  20673125.443     -832365.011 6    184062.60822        17.500           2.063
  22627637.123    -7940926.130 6   -760909.77721        16.500           0.781
  22895604.779    -6718181.704 5   -529696.11321        11.500           0.531
  22347360.912   -11656161.693 6  -2652636.92621        12.250           0.719
 91  5 21 19 17 14.9980000  0  6G18G 2G19G11G16G 6
  22506812.568     7736989.939 6   2193868.35521        13.500           0.750
  20989556.818   -14761259.408 7  -2655999.98922        22.500           2.281
  20674129.350     -827087.584 6    188174.87822        18.000           1.906
  22626418.928    -7947323.554 6   -765894.77921        16.500           0.750
  22894960.803    -6721561.053 5   -532329.43621        11.250           0.375
  22339223.342   -11698925.289 6  -2685959.15521        12.500           0.719
 91  5 21 19 17 29.9980000  0  6G18G 2G19G11G16G 6
  22514090.740     7775230.552 6   2223666.08621        13.250           0.625
  20981980.428   -14801076.913 7  -2687026.58422        22.500           2.125
  20675147.389     -821743.813 6    192338.84822        17.750           1.656
  22625232.303    -7953556.998 6   -770752.01521        16.250           0.813
  22894345.826    -6724800.466 5   -534853.69421        11.750           0.375
  22331086.693   -11741657.950 6  -2719257.29721        12.000           0.656
 91  5 21 19 17 44.9980000  0  6G18G 2G19G11G16G 6
  22521377.397     7813522.703 6   2253503.99321        13.250           0.688
  20974419.107   -14840816.297 7  -2717992.30523        23.250           2.531
  20676173.654     -816348.556 6    196542.94022        18.000           1.906
  22624075.123    -7959641.693 6   -775493.33821        16.500           0.906
  22893753.318    -6727915.095 5   -537280.71021        11.500           0.500
  22322961.061   -11784374.818 6  -2752543.12521        12.500           0.656
 91  5 21 19 17 59.9980000  0  6G18G 2G19G11G16G 6
  22528678.873     7851889.181 6   2283399.79421        13.000           0.750
  20966876.240   -14880455.040 7  -2748879.60622        23.000           2.438
  20677214.834     -810879.164 6    200804.79622        18.500           1.969
  22622950.201    -7965555.029 6   -780101.12921        17.000           0.844
  22893186.232    -6730882.240 5   -539592.82221        11.500           0.375
  22314839.350   -11827053.128 6  -2785798.90321        12.750           0.656
 91  5 21 19 18 14.9980000  0  6G18G 2G19G11G16G 6
  22535991.076     7890312.917 6   2313340.21621        12.750           0.906
  20959349.732   -14920009.618 7  -2779701.32022        23.750           2.469
  20678265.311     -805352.309 6    205111.42922        18.250           2.000
  22621856.045    -7971313.515 6   -784588.25721        17.500           0.844
  22892648.467    -6733718.773 5   -541803.15821        11.500           0.531
  22306721.303   -11869709.615 6  -2819037.68321        13.000           0.594
 91  5 21 19 18 29.9980000  0  6G18G 2G19G11G16G 6
  22543315.779     7928802.592 6   2343332.01721        13.000           0.688
  20951839.740   -14959471.160 7  -2810450.54122        23.500           2.375
  20679334.600     -799759.208 6    209469.68522        17.750           1.938
  22620790.357    -7976908.280 6   -788947.81821        17.500           0.938
  22892131.779    -6736416.448 5   -543905.28621        11.250           0.500
  22298610.631   -11912335.303 6  -2852252.46021        13.000           0.656
 91  5 21 19 18 44.9980000  0  6G18G 2G19G11G16G 6
  22550650.076     7967352.081 6   2373370.45021        13.250           0.719
  20944347.029   -14998845.410 7  -2841131.73822        23.500           2.469
  20680406.545     -794105.610 6    213875.07722        17.750           2.000
  22619754.584    -7982345.250 6   -793184.42721        16.500           0.938
  22891642.967    -6738981.022 5   -545903.70021        11.250           0.531
  22290503.475   -11954936.030 6  -2885447.78721        13.000           0.656
 91  5 21 19 18 59.9980000  0  6G18G 2G19G11G16G 6
  22557997.701     8005960.598 6   2403454.86421        12.750           0.594
  20936871.818   -15038132.674 7  -2871745.16222        22.750           2.406
  20681491.959     -788391.986 6    218327.24222        18.250           1.844
  22618750.561    -7987624.878 6   -797298.42221        16.250           0.875
  22891179.732    -6741412.977 5   -547798.78421        10.500           0.469
  22282404.061   -11997512.245 6  -2918624.01721        13.000           0.625
 91  5 21 19 19 14.9980000  0  6G18G 2G19G11G16G 6
  22565352.756     8044615.905 6   2433575.73721        12.750           0.781
  20929409.061   -15077345.069 7  -2902300.24623        23.750           2.500
  20682590.647     -782630.342 6    222816.82322        18.000           1.781
  22617773.600    -7992759.274 6   -801299.25021        16.750           0.781
  22890743.264    -6743724.586 5   -549600.08221        11.500           0.500
  22274306.053   -12040076.027 6  -2951790.55021        13.250           0.656
 91  5 21 19 19 29.9980000  0  6G18G 2G19G11G16G 6
  22572721.600     8083334.854 6   2463746.18521        13.000           0.656
  20921965.225   -15116465.505 7  -2932783.67622        24.000           2.000
  20683699.311     -776803.417 6    227357.26921        18.000           1.375
  22616826.795    -7997731.291 6   -805173.55721        16.750           0.656
  22890327.068    -6745898.855 5   -551294.36721        10.750           0.344
  22266207.357   -12082610.169 6  -2984933.99521        12.750           0.594
 91  5 21 19 19 44.9980000  0  6G18G 2G19G11G16G 6
  22580099.811     8122109.186 6   2493959.80321        13.000           0.688
  20914536.272   -15155501.816 7  -2963201.54422        23.500           2.125
  20684819.584     -770919.167 6    231942.39522        17.500           1.688
  22615910.404    -8002549.078 6   -808927.69021        16.250           0.688
  22889941.389    -6747943.842 5   -552887.92921        11.500           0.375
  22258115.311   -12125122.790 6  -3018060.67621        12.750           0.625
 91  5 21 19 19 59.9980000  0  6G18G 2G19G11G16G 6
  22587490.256     8160946.499 6   2524222.49321        13.750           0.625
  20907123.639   -15194446.255 7  -2993547.82422        23.500           2.344
  20685951.404     -764969.843 6    236578.21522        18.000           1.563
  22615023.428    -8007204.817 6   -812555.55421        17.000           0.719
  22889575.311    -6749852.073 5   -554374.92221        11.750           0.406
  22250034.240   -12167605.983 6  -3051164.41221        13.250           0.531
 91  5 21 19 20 14.9980000  0  6G18G 2G19G11G16G 6
  22594893.889     8199845.861 6   2554533.53621        13.500           0.594
  20899730.107   -15233299.510 7  -3023823.05022        23.750           2.375
  20687094.920     -758956.133 6    241264.20422        17.750           1.625
  22614168.787    -8011699.212 6   -816057.69221        17.000           0.781
  22889237.779    -6751624.533 5   -555756.08721        11.750           0.438
  22241957.725   -12210060.456 6  -3084245.78121        13.500           0.750
 91  5 21 19 20 29.9980000  0  6G18G 2G19G11G16G 6
  22602307.029     8238802.908 6   2584889.53021        13.000           0.656
  20892354.061   -15272065.940 7  -3054030.62323        23.750           2.500
  20688250.740     -752882.242 6    245997.09622        18.500           1.906
  22613343.397    -8016036.642 6   -819437.51521        17.000           0.906
  22888926.615    -6753265.730 6   -557035.00621        12.000           0.469
  22233879.623   -12252490.546 6  -3117308.15121        13.500           0.781
 91  5 21 19 20 44.9980000  0  6G18G 2G19G11G16G 6
  22609732.553     8277822.901 6   2615294.58321        12.500           0.625
  20884992.147   -15310739.522 7  -3084165.85523        22.750           2.625
  20689420.342     -746742.632 6    250781.19622        17.500           1.781
  22612549.412    -8020211.447 6   -822690.62221        16.750           0.813
  22888639.959    -6754770.168 5   -558207.33821        11.250           0.375
  22225815.068   -12294890.426 6  -3150346.97421        13.500           0.750
 91  5 21 19 20 59.9980000  0  6G18G 2G19G11G16G 6
  22617167.975     8316899.972 6   2645744.09521        13.000           0.656
  20877651.670   -15349325.725 7  -3114232.99323        24.000           2.656
  20690598.623     -740542.468 6    255612.47822        17.750           1.656
  22611785.037    -8024229.091 6   -825821.27221        17.250           0.813
  22888378.670    -6756143.237 5   -559277.31121        11.750           0.375
  22217750.311   -12337265.432 6  -3183366.41021        13.750           0.844
 91  5 21 19 21 14.9980000  0  6G18G 2G19G11G16G 6
  22624614.904     8356033.127 6   2676237.31321        12.750           0.719
  20870325.272   -15387825.652 7  -3144232.90923        24.000           2.844
  20691791.397     -734282.902 6    260490.05222        18.000           1.813
  22611050.982    -8028090.640 6   -828830.28321        16.750           0.969
  22888140.693    -6757386.282 5   -560245.97421        11.500           0.344
  22209690.162   -12379616.707 6  -3216367.36721        13.250           0.813
 91  5 21 19 21 29.9980000  0  6G18G 2G19G11G16G 6
  22632073.014     8395223.170 6   2706774.86221        12.500           0.719
  20863016.201   -15426238.220 7  -3174164.74523        24.250           2.531
  20692993.357     -727962.647 6    265414.92022        17.750           1.750
  22610344.842    -8031795.067 6   -831716.86521        16.750           0.813
  22887929.998    -6758498.140 6   -561112.40421        12.000           0.313
  22201633.139   -12421943.100 6  -3249348.91221        13.000           0.781
 91  5 21 19 21 44.9980000  0  6G18G 2G19G11G16G 6
  22639541.826     8434469.385 6   2737356.17221        12.500           0.719
  20855722.818   -15464563.681 7  -3204028.71023        24.750           2.719
  20694207.498     -721582.130 6    270386.73622        17.750           1.813
  22609670.428    -8035342.746 6   -834481.30421        17.500           0.781
  22887742.600    -6759479.477 5   -561877.12821        11.500           0.469
  22193587.490   -12464244.983 6  -3282311.36521        13.750           0.813
 91  5 21 19 21 59.9980000  0  6G18G 2G19G11G16G 6
  22647019.545     8473763.937 6   2767975.15721        12.250           0.719
  20848446.318   -15502809.441 7  -3233830.57023        24.500           2.625
  20695432.279     -715148.971 6    275399.56822        17.500           1.938
  22609022.162    -8038741.393 6   -837129.62121        17.250           0.938
  22887579.857    -6760338.421 5   -562546.47421        11.750           0.469
  22185538.959   -12506530.028 6  -3315260.70121        14.250           0.719
 91  5 21 19 22 14.9980000  0  6G18G 2G19G11G16G 6
  22654505.084     8513107.939 6   2798632.67621        12.500           0.688
  20841183.084   -15540974.200 7  -3263569.32223        25.250           2.594
  20696667.967     -708661.631 6    280454.62522        18.000           1.875
  22608404.592    -8041989.520 6   -839660.64721        17.250           0.906
  22887439.748    -6761073.581 5   -563119.38821        11.500           0.469
  22177496.029   -12548796.655 6  -3348195.67621        13.750           0.719
 91  5 21 19 22 29.9980000  0  6G18G 2G19G11G16G 6
  22662003.889     8552509.757 6   2829335.25321        13.000           0.750
  20833937.350   -15579049.396 7  -3293238.27523        25.750           2.594
  20697912.631     -702111.427 6    285558.66522        17.750           1.969
  22607817.303    -8045078.572 6   -842067.71721        16.750           0.938
  22887323.490    -6761676.451 5   -563589.20221        11.500           0.438
  22169459.842   -12591036.280 6  -3381109.62921        13.750           0.656
 91  5 21 19 22 44.9980000  0  6G18G 2G19G11G16G 6
  22669512.029     8591964.332 6   2860078.92421        12.750           0.719
  20826708.264   -15617039.733 7  -3322841.11023        24.500           2.688
  20699170.654     -695503.337 6    290707.81122        17.500           1.906
  22607257.959    -8048013.543 6   -844354.72421        17.000           0.875
  22887234.209    -6762151.891 5   -563959.72621        11.250           0.438
  22161424.818   -12633253.810 6  -3414006.35621        14.000           0.719
 91  5 21 19 22 59.9980000  0  6G18G 2G19G11G16G 6
  22677029.670     8631468.321 6   2890861.10021        12.500           0.531
  20819493.881   -15654948.287 7  -3352380.19923        24.500           2.500
  20700437.529     -688840.351 6    295899.73422        17.500           1.875
  22606728.568    -8050797.501 6   -846524.06521        17.250           0.875
  22887167.818    -6762503.355 5   -564233.63821        10.750           0.406
  22153392.272   -12675452.252 6  -3446888.20621        13.750           0.750
 91  5 21 19 23 14.9980000  0  6G18G 2G19G11G16G 6
  22684556.670     8671027.720 6   2921686.45921        12.000           0.688
  20812295.623   -15692768.787 7  -3381850.69223        24.500           2.500
  20701717.592     -682116.321 6    301139.21722        17.000           1.875
  22606230.014    -8053424.348 6   -848570.97321        17.250           0.906
  22887125.561    -6762724.682 5   -564406.14421        11.000           0.500
  22145366.232   -12717625.397 6  -3479750.36021        13.250           0.719
 91  5 21 19 23 29.9980000  0  6G18G 2G19G11G16G 6
  22692093.436     8710628.341 6   2952543.92721        13.000           0.625
  20805112.225   -15730514.962 7  -3411263.26922        25.250           2.313
  20703004.162     -675344.870 6    306415.65922        18.500           1.813
  22605756.873    -8055907.869 6   -850506.20921        17.750           0.875
  22887103.084    -6762830.021 5                        10.750
  22137346.295   -12759786.913 6  -3512603.44521        14.250           0.750
 91  5 21 19 23 44.9980000  0  6G18G 2G19G11G16G 6
  22699640.670     8750285.744 6   2983445.65221        13.000           0.563
  20797947.318   -15768171.125 7  -3440605.70822        25.500           2.313
  20704306.834     -668510.269 6    311741.30022        17.250           1.813
  22605314.826    -8058232.421 6   -852317.56921        17.750           0.781
  22887109.381    -6762803.363 5                        10.000
  22129330.834   -12801921.080 6  -3545435.22121        14.250           0.750
 91  5 21 19 23 59.9980000  0  6G18G 2G19G11G16G 6
  22707198.623     8790006.486 6   3014396.73821        13.000           0.438
  20790801.147   -15805730.706 7  -3469872.88622        25.500           2.000
  20705620.647     -661605.790 6    317121.39821        17.500           1.406
  22604903.209    -8060391.446 6   -853999.94821        17.500           0.625
  22887144.420    -6762638.852 5                        10.000
  22121318.459   -12844021.303 6  -3578240.53821        14.500           0.594
 91  5 21 19 24 14.9980000  0  6G18G 2G19G11G16G 6
  22714769.436     8829786.018 6   3045393.63121        13.000           0.469
  20783671.647   -15843197.813 7  -3499068.00622        26.000           2.094
  20706946.725     -654635.800 6    322552.53922        17.000           1.594
  22604523.053    -8062389.343 6   -855556.77421        17.250           0.719
  22887197.412    -6762341.165 5                        10.500
  22113313.389   -12886091.772 6  -3611022.68121        14.000           0.594
 91  5 21 19 24 29.9980000  0  6G18G 2G19G11G16G 6
  22722347.123     8869604.468 6   3076420.84921        13.000           0.406
  20776555.318   -15880591.612 7  -3528206.00822        24.750           2.156
  20708282.014     -647619.526 6    328019.74622        17.000           1.688
  22604169.553    -8064245.434 6   -857003.10021        17.250           0.625
  22887277.529    -6761929.485 5   -563786.79421         9.750           0.344
  22105308.334   -12928151.925 6  -3643796.77421        14.000           0.625
 91  5 21 19 24 44.9980000  0  6G18G 2G19G11G16G 6
  22729933.732     8909470.746 6   3107485.33521        12.750           0.469
  20769455.490   -15917903.431 7  -3557280.12322        25.000           2.281
  20709628.529     -640548.252 6    333529.81922        16.750           1.688
  22603844.818    -8065950.998 6   -858332.13021        17.000           0.656
  22887380.842    -6761395.402 5   -563370.66621        10.500           0.438
  22097307.420   -12970192.905 6  -3676555.92521        14.000           0.656
 91  5 21 19 24 59.9980000  0  6G18G 2G19G11G16G 6
  22737530.248     8949398.643 6   3138597.82221        13.250           0.500
  20762374.029   -15955118.663 7  -3586278.97822        24.750           2.344
  20710988.584     -633407.559 6    339093.97922        16.250           1.875
  22603552.897    -8067491.602 6   -859532.62421        17.250           0.719
  22887508.811    -6760724.600 5   -562848.01721        10.250           0.406
  22089312.920   -13012200.327 6  -3709288.95121        14.250           0.750
 91  5 21 19 25 14.9980000  0  6G18G 2G19G11G16G 6
  22745140.748     8989384.617 6   3169755.58221        13.000           0.438
  20755308.803   -15992240.762 7  -3615205.26322        24.250           2.313
  20712358.943     -626200.561 6    344709.80222        16.250           1.875
  22603291.147    -8068870.739 6   -860607.29821        17.500           0.781
  22887661.279    -6759920.532 5   -562221.52721        10.000           0.469
  22081323.811   -13054177.406 6  -3741998.32421        14.000           0.781
 91  5 21 19 25 29.9980000  0  6G18G 2G19G11G16G 6
  22752757.225     9029413.913 6   3200947.08921        13.500           0.563
  20748260.287   -16029284.332 7  -3644070.35323        25.250           2.625
  20713738.639     -618941.945 6    350365.84422        16.750           2.000
  22603055.092    -8070103.123 6   -861567.62521        17.500           0.719
  22887835.592    -6758997.993 5   -561502.72321        10.750           0.563
  22073337.607   -13096138.775 6  -3774695.44921        14.250           0.719
 91  5 21 19 25 44.9980000  0  6G18G 2G19G11G16G 6
  22760383.436     9069486.192 6   3232172.10321        13.500           0.438
  20741226.162   -16066249.622 7  -3672874.44722        25.750           2.469
  20715131.936     -611631.684 6    356062.13622        17.250           1.875
  22602849.115    -8071188.912 6   -862413.71921        17.500           0.719
  22888034.498    -6757957.310 5   -560691.87121        11.250           0.438
  22065357.420   -13138084.510 6  -3807380.39621        14.000           0.781
 91  5 21 19 25 59.9980000  0  6G18G 2G19G11G16G 6
  22768021.584     9109623.369 6   3263447.68121        13.500           0.469
  20734210.061   -16103113.948 7  -3701599.87222        25.250           2.438
  20716539.326     -604247.550 6    361815.99422        16.000           1.844
  22602674.045    -8072105.814 6   -863128.21821        17.500           0.719
  22888258.920    -6756776.567 5   -559771.85821        11.250           0.438
  22057381.748   -13179992.222 6  -3840035.70521        13.750           0.719
 91  5 21 19 26 14.9980000  0  6G18G 2G19G11G16G 6
  22775669.514     9149812.238 6   3294763.52821        13.500           0.375
  20727211.436   -16139890.457 7  -3730256.86322        24.750           2.344
  20717952.678     -596802.558 6    367617.26522        16.750           1.688
  22602529.084    -8072866.917 6   -863721.31721        17.000           0.656
  22888509.381    -6755468.475 5   -558752.62121        11.500           0.375
  22049410.178   -13221874.782 6  -3872671.42421        13.000           0.719
 91  5 21 19 26 29.9980000  0  6G18G 2G19G11G16G 6
  22783323.373     9190036.786 6   3326107.19021        13.500           0.531
  20720227.779   -16176595.082 7  -3758857.83822        25.000           2.375
  20719380.748     -589312.809 6    373453.41422        15.750           1.813
  22602411.240    -8073488.434 6   -864205.63621        17.000           0.688
  22888778.647    -6754049.537 5   -557647.01621        11.250           0.344
  22041443.850   -13263748.411 6  -3905300.18421        13.250           0.688
 91  5 21 19 26 44.9980000  0  6G18G 2G19G11G16G 6
  22790988.232     9230313.244 6   3357491.29521        13.500           0.469
  20713257.436   -16213211.174 7  -3787389.83222        24.250           2.344
  20720815.092     -581761.494 6    379337.53522        17.500           1.688
  22602322.631    -8073953.832 6   -864568.31521        17.000           0.688
  22889072.037    -6752503.546 5   -556442.39321        11.250           0.375
  22033479.693   -13305596.433 6  -3937908.98721        13.750           0.781
 91  5 21 19 26 59.9980000  0  6G18G 2G19G11G16G 6
  22798664.318     9270646.198 6   3388919.41021        12.750           0.438
  20706309.076   -16249733.570 7  -3815848.80822        24.500           2.219
  20722268.303     -574143.470 6    385273.64322        16.500           1.688
  22602267.490    -8074258.003 6   -864805.36321        17.000           0.719
  22889391.756    -6750825.546 5   -555134.92321        11.000           0.344
  22025520.936   -13347413.734 6  -3970493.85121        13.500           0.688
 91  5 21 19 27 14.9980000  0  6G18G 2G19G11G16G 6
  22806345.170     9311017.380 6   3420377.33121        12.750           0.469
  20699372.857   -16286180.631 7  -3844249.08822        24.500           2.313
  20723723.279     -566476.815 6    391247.63722        17.250           1.906
  22602234.326    -8074419.378 6                        17.000
  22889732.709    -6749033.864 5   -553738.87021        11.000           0.344
  22017569.842   -13389218.549 6  -4003069.00121        14.000           0.813
 91  5 21 19 27 29.9980000  0  6G18G 2G19G11G16G 6
  22814038.092     9351441.081 6   3451876.17521        12.250           0.469
  20692455.076   -16322537.442 7  -3872579.03822        23.750           2.281
  20725196.639     -558746.686 6    397271.09322        16.500           2.000
  22602233.014    -8074423.098 6                        17.000
  22890098.889    -6747113.928 5   -552242.88521        10.750           0.438
  22009616.115   -13430995.802 6  -4035622.67221        14.000           0.688
 91  5 21 19 27 44.9980000  0  6G18G 2G19G11G16G 6
  22821744.014     9391932.604 6   3483427.85321        12.500           0.406
  20685555.873   -16358788.679 7  -3900826.72823        24.500           2.563
  20726680.811     -550937.916 6    403355.82622        17.750           2.344
  22602267.248    -8074254.056 6                        18.000
  22890488.287    -6745050.637 5   -550635.18021        11.250           0.469
  22001676.600   -13472730.451 6  -4068143.13021        14.750           0.813
 91  5 21 19 27 59.9980000  0  6G18G 2G19G11G16G 6
  22829456.147     9432466.346 5   3515012.44321        11.500           0.469
  20678674.115   -16394959.681 7  -3929011.88923        24.250           2.625
  20728177.857     -543075.832 6    409482.10622        16.750           2.188
  22602329.381    -8073937.536 6                        17.500
  22890905.240    -6742869.588 5   -548935.74021        11.000           0.563
  21993738.061   -13514447.661 6  -4100650.00921        14.500           0.750
 91  5 21 19 28 14.9980000  0  6G18G 2G19G11G16G 6
  22837176.131     9473039.290 5   3546627.57221        11.250           0.500
  20671805.803   -16431052.918 7  -3957136.46422        23.750           2.469
  20729681.818     -535162.925 6    415647.98222        17.000           2.188
  22602414.943    -8073476.278 6   -864196.35921        17.250           0.719
  22891346.389    -6740573.716 5   -547146.80421        11.250           0.469
  21985800.647   -13556149.999 6  -4133145.29321        14.500           0.719
 91  5 21 19 28 29.9980000  0  6G18G 2G19G11G16G 6
  22844908.342     9513663.877 5   3578282.94221        11.000           0.469
  20664953.576   -16467055.887 7  -3985190.69323        23.750           2.500
  20731202.412     -527186.521 6    421863.33322        17.500           2.094
  22602529.576    -8072857.787 6   -863714.44621        17.000           0.844
  22891805.459    -6738150.470 5   -545258.61721        11.000           0.500
  21977873.936   -13597824.880 6  -4165619.18721        15.250           0.750
 91  5 21 19 28 44.9980000  0  6G18G 2G19G11G16G 6
  22852644.811     9554319.676 5   3609962.63421        11.000           0.094
  20658115.334   -16502988.686 7  -4013190.24921        24.250           0.188
  20732727.178     -519166.920 6    428112.36921        17.750           0.156
  22602672.873    -8072102.348 6   -863125.82021        17.500           0.063
  22892288.295    -6735620.140 5   -543286.99421        11.000           0.031
  21969943.842   -13639492.347 6  -4198087.30121        15.500           0.063
 91  5 21 19 28 59.9980000  0  6G18G 2G19G11G16G 6
  22860388.584     9595022.895 5   3641679.25321        10.750           0.438
  20651296.256   -16538835.151 7  -4041122.53921        24.000           0.250
  20734263.545     -511087.617 6    434407.88721        17.750           0.125
  22602848.717    -8071193.832 6   -862417.91921        17.250           0.031
  22892787.748    -6732966.950 5   -541219.65721        10.000           0.063
  21962016.639   -13681136.210 6  -4230537.03921        14.500           0.188
 91  5 21 19 29 14.9980000  0  6G18G 2G19G11G16G 6
  22868144.264     9635770.405 5   3673430.42821        10.750           0.563
  20644490.357   -16574597.862 7  -4068989.53623        23.750           2.813
  20735811.881     -502951.585 6    440747.65022        18.000           2.031
  22603048.506    -8070134.992 6   -861592.85921        18.000           0.875
  22893317.147    -6730193.901 5   -539058.87821        10.250           0.531
  21954093.850   -13722759.231 6  -4262970.51421        13.750           0.750
 91  5 21 19 29 29.9980000  0  6G18G 2G19G11G16G 6
  22875908.053     9676568.484 5   3705220.98821        10.750           0.500
  20637701.584   -16610269.966 7  -4096785.95223        22.750           2.594
  20737370.522     -494751.879 6    447137.01022        17.500           1.969
  22603282.397    -8068919.179 6   -860645.49521        17.750           0.813
  22893868.764    -6727294.302 5   -536799.50321        10.500           0.500
  21946181.084   -13764354.522 6  -4295382.39621        13.750           0.813
 91  5 21 19 29 44.9980000  0  6G18G 2G19G11G16G 6
  22883682.670     9717421.796 5   3737054.59221        10.500           0.500
  20630931.482   -16645846.953 7  -4124508.24723        23.000           2.719
  20738946.881     -486483.704 6    453579.71922        17.750           2.063
  22603543.232    -8067541.936 6   -859572.34321        17.750           0.844
  22894448.904    -6724263.744 5   -534438.10321        10.250           0.344
  21938273.326   -13805917.438 6  -4327769.04821        14.000           0.813
 91  5 21 19 29 59.9980000  0  6G18G 2G19G11G16G 6
  22891465.154     9758322.992 5   3768925.49821        10.250           0.531
  20624177.123   -16681335.909 7  -4152161.94723        22.750           2.656
  20740530.412     -478154.308 6    460070.14622        17.500           1.906
  22603836.561    -8066010.447 6   -858379.00021        18.000           0.813
  22895045.615    -6721109.430 5   -531980.25321        10.250           0.500
  21930368.764   -13847455.079 6  -4360136.00821        14.000           0.813
 91  5 21 19 30 14.9980000  0  6G18G 2G19G11G16G 6
  22899258.061     9799274.324 5   3800835.46421        10.250           0.406
  20617441.193   -16716734.042 7  -4179744.86923        23.250           2.750
  20742127.467     -469761.073 6    466610.31122        17.250           1.844
  22604156.404    -8064322.026 6   -857063.37921        17.750           0.875
  22895670.701    -6717828.865 5   -529424.04421        10.500           0.438
  21922468.232   -13888964.604 6  -4392481.06621        14.000           0.906
 91  5 21 19 30 29.9980000  0  6G18G 2G19G11G16G 6
  22907056.451     9840255.354 5   3832768.57421        10.250           0.406
  20610720.084   -16752061.762 7  -4207272.92523        23.500           2.688
  20743733.779     -461324.187 6    473184.48322        17.000           1.969
  22604504.506    -8062497.180 6   -855641.44321        17.500           0.844
  22896316.982    -6714442.918 5   -526785.71021        10.750           0.469
  21914572.225   -13930466.402 6  -4424820.08821        14.250           0.906
 91  5 21 19 30 44.9980000  0  6G18G 2G19G11G16G 6
  22914864.865     9881277.981 5   3864734.11921        10.750           0.375
  20604012.084   -16787306.401 7  -4234736.24923        23.250           2.781
  20745348.506     -452831.169 6    479802.39522        17.000           1.844
  22604880.607    -8060523.615 6   -854103.62321        17.250           0.906
  22896983.717    -6710939.239 5   -524055.63121        10.250           0.469
  21906677.686   -13971947.961 6  -4457143.34621        14.250           0.938
 91  5 21 19 30 59.9980000  0  6G18G 2G19G11G16G 6
  22922678.748     9922340.309 5   3896730.59421        11.000           0.531
  20597320.092   -16822469.500 7  -4262136.03523        23.250           2.750
  20746979.139     -444283.703 6    486462.74322        16.750           2.000
  22605283.920    -8058403.041 6   -852451.25021        17.500           0.906
  22897670.475    -6707319.750 5   -521235.33121        10.000           0.500
  21898787.654   -14013410.989 6  -4489452.15921        15.250           0.906
 91  5 21 19 31 14.9980000  0  6G18G 2G19G11G16G 6
  22930498.811     9963439.288 5   3928755.62921        11.000           0.344
  20590644.490   -16857554.193 7  -4289474.71523        23.250           2.781
  20748613.209     -435684.675 6    493163.27422        17.250           1.781
  22605714.420    -8056138.461 6   -850686.65721        17.500           0.781
  22898378.139    -6703587.371 5   -518327.03321         9.750           0.469
  21890902.373   -14054858.350 6  -4521748.75121        15.750           0.844
 91  5 21 19 31 29.9980000  0  6G18G 2G19G11G16G 6
  22938330.639    10004588.019 5   3960819.41221        10.750           0.438
  20583986.209   -16892547.125 7  -4316741.90123        23.000           2.938
  20750260.600     -427020.642 6    499914.45022        17.000           1.844
  22606175.248    -8053716.706 6   -848799.59221        17.500           0.844
  22899111.131    -6699729.178 5   -515320.70421         9.500           0.406
  21883018.068   -14096276.582 6  -4554022.64521        15.000           0.906
 91  5 21 19 31 44.9980000  0  6G18G 2G19G11G16G 6
  22946169.740    10045785.461 5   3992921.16421        11.000           0.438
  20577343.631   -16927449.387 7  -4343938.43923        23.250           3.000
  20751922.857     -418292.642 6    506715.46422        16.750           1.906
  22606666.709    -8051138.914 6   -846790.94821        17.750           0.875
  22899871.529    -6695746.357 5   -512217.28221        10.250           0.406
  21875142.522   -14137666.776 6  -4586274.69421        15.000           0.844
 91  5 21 19 31 59.9980000  0  6G18G 2G19G11G16G 6
  22954016.553    10087021.714 5   4025053.15321        10.750           0.438
  20570716.709   -16962270.183 7  -4371071.49923        23.500           2.750
  20753592.803     -409509.870 6    513559.16022        17.000           1.969
  22607183.420    -8048414.452 6   -844668.01621        17.250           0.656
  22900652.545    -6691648.457 5   -509024.16521        10.500           0.438
  21867271.678   -14179038.147 6  -4618512.08821        15.000           0.844
 91  5 21 19 32 14.9980000  0  6G18G 2G19G11G16G 6
  22961870.607    10128292.495 5   4057212.05021        10.750           0.375
  20564105.920   -16997013.707 7  -4398144.34923        23.750           2.688
  20755274.545     -400676.470 6    520442.30122        17.250           1.781
  22607729.334    -8045547.597 6   -842434.12221        17.000           0.688
  22901453.279    -6687439.910 5   -505744.85521        10.250           0.438
  21859398.897   -14220394.823 6  -4650738.01921        14.750           0.625
 91  5 21 19 32 29.9980000  0  6G18G 2G19G11G16G 6
  22969730.545    10169602.371 5   4089401.41821        11.000           0.438
  20557511.076   -17031674.914 7  -4425153.05323        24.500           2.719
  20756966.818     -391787.596 6    527368.67622        17.500           1.844
  22608302.217    -8042533.577 6   -840085.55121        17.250           0.750
  22902277.334    -6683116.333 5   -502375.90621        11.000           0.281
  21851531.631   -14261731.890 6  -4682948.68521        14.500           0.781
 91  5 21 19 32 44.9980000  0  6G18G 2G19G11G16G 6
  22977601.264    10210960.036 5   4121628.00721        10.500           0.563
  20550931.834   -17066245.136 7  -4452090.86623        25.000           2.750
  20758671.436     -382834.389 6    534345.18522        17.500           1.813
  22608905.568    -8039363.612 6   -837615.45221        17.250           0.813
  22903124.701    -6678668.928 5   -498910.45421        11.250           0.344
  21843673.232   -14303040.471 6  -4715137.14921        14.250           0.656
 91  5 21 19 32 59.9980000  0  6G18G 2G19G11G16G 6
  22985479.350    10252361.361 5   4153888.63821        10.500           0.438
  20544371.209   -17100727.633 7  -4478960.31823        25.750           2.750
  20760385.397     -373820.371 6    541369.07622        17.500           1.750
  22609537.967    -8036041.473 6   -835026.80421        17.250           0.750
  22903992.389    -6674101.366 5   -495351.35721        10.750           0.344
  21835813.295   -14344324.066 6  -4747306.15521        14.750           0.719
 91  5 21 19 33 14.9980000  0  6G18G 2G19G11G16G 6
  22993364.326    10293793.701 5   4186173.42221        10.500           0.281
  20537822.193   -17135135.177 7  -4505771.36322        25.750           2.188
  20762109.607     -364758.126 6    548430.53922        17.250           1.500
  22610197.037    -8032579.932 6   -832329.51321        16.750           0.688
  22904880.889    -6669426.562 5   -491708.73321        10.250           0.281
  21827962.631   -14385595.293 6  -4779465.51521        15.000           0.656
 91  5 21 19 33 29.9980000  0  6G18G 2G19G11G16G 6
  23001258.326    10335276.710 5   4218497.69821        10.500           0.344
  20531292.897   -17169447.884 7  -4532508.50723        25.250           2.938
  20763847.209     -355627.801 6    555545.06322        16.750           2.000
  22610882.154    -8028959.180 6   -829508.16121        16.000           0.938
  22905796.318    -6664624.673 5   -487967.06721        10.500           0.438
  21820114.326   -14426834.200 6  -4811599.69421        14.750           0.969
 91  5 21 19 33 44.9980000  0  6G18G 2G19G11G16G 6
  23009159.397    10376791.958 5   4250847.08421        10.750           0.469
  20524778.811   -17203683.987 7  -4559185.96923        25.250           2.938
  20765593.436     -346447.360 6    562698.63022        16.750           1.938
  22611601.154    -8025197.496 6   -826576.99321        16.250           0.813
  22906731.123    -6659714.321 5   -484140.88521        10.000           0.406
  21812271.701   -14468058.935 6  -4843722.83121        14.750           1.094
 91  5 21 19 33 59.9980000  0  6G18G 2G19G11G16G 6
  23017066.787    10418347.976 5   4283228.23021        11.250           0.469
  20518280.076   -17237834.743 7  -4585796.92023        25.500           2.688
  20767352.748     -337208.068 6    569898.05722        17.500           1.719
  22612344.631    -8021286.292 6   -823529.31621        16.750           0.750
  22907686.006    -6654687.023 5   -480223.59021        10.000           0.375
  21804429.459   -14509260.712 6  -4875828.07721        15.250           1.000
 91  5 21 19 34 14.9980000  0  6G18G 2G19G11G16G 6
  23024983.068    10459938.562 5   4315636.33221        10.750           0.406
  20511795.107   -17271906.004 7  -4612345.92922        25.250           2.406
  20769121.178     -327915.833 6    577138.74422        17.000           1.500
  22613117.654    -8017231.615 6   -820369.84621        17.000           0.656
  22908664.022    -6649548.926 5   -476219.93721        10.000           0.156
  21796594.584   -14550445.440 6  -4907920.02821        15.500           0.813
 91  5 21 19 34 29.9980000  0  6G18G 2G19G11G16G 6
  23032902.279    10501567.286 5   4348074.14621        10.250           0.438
  20505328.545   -17305893.814 7  -4638829.91023        25.250           2.719
  20770898.803     -318566.667 6    584423.78922        16.500           1.781
  22613917.295    -8013029.535 6   -817095.50721        16.750           0.719
  22909666.412    -6644296.392 5   -472127.11421         9.750           0.406
  21788760.334   -14591608.987 6  -4939995.48621        15.500           0.875
 91  5 21 19 34 44.9980000  0  6G18G 2G19G11G16G 6
  23040832.889    10543237.268 5   4380544.08721        10.500           0.469
  20498877.553   -17339794.802 7  -4665246.23423        25.000           2.813
  20772691.045     -309157.288 6    591755.75122        16.250           1.781
  22614744.975    -8008676.861 6   -813703.82721        16.500           0.688
  22910683.014    -6638926.050 5   -467942.49921         9.500           0.375
  21780930.615   -14632748.057 6  -4972051.87221        15.250           0.781
 91  5 21 19 34 59.9980000  0  6G18G 2G19G11G16G 6
  23048769.272    10584937.407 5   4413037.54721        10.500           0.469
  20492438.732   -17373619.864 7  -4691603.39123        25.250           2.844
  20774489.022     -299698.429 6    599126.27022        16.000           1.750
  22615599.584    -8004184.646 6   -810203.40521        17.000           0.750
  22911730.076    -6633449.231 5   -463674.90321         9.750           0.406
  21773106.975   -14673873.473 6  -5004097.61421        15.500           0.875
 91  5 21 19 35 14.9980000  0  6G18G 2G19G11G16G 6
  23056711.318    10626681.230 5   4445565.03621        10.500           0.406
  20486020.678   -17407355.075 7  -4717890.54223        26.000           2.719
  20776301.295     -290176.256 6    606546.12222        16.500           1.719
  22616484.990    -7999539.297 6   -806583.66721        17.000           0.719
  22912795.420    -6627852.389 5   -459313.80221        10.000           0.438
  21765287.193   -14714971.385 6  -5036121.93121        15.250           0.875
 91  5 21 19 35 29.9980000  0  6G18G 2G19G11G16G 6
  23064665.279    10668473.702 5   4478130.44221        10.500           0.406
  20479619.373   -17440995.091 7  -4744103.52223        25.750           2.594
  20778125.404     -280585.454 6    614019.45622        16.500           1.656
  22617400.240    -7994735.599 6   -802840.52721        16.750           0.719
  22913880.350    -6622130.443 5   -454855.21021         9.250           0.344
  21757469.123   -14756036.508 6  -5068120.69021        14.500           0.875
 91  5 21 19 35 44.9980000  0  6G18G 2G19G11G16G 6
  23072622.959    10710296.043 5   4510719.12321        10.500           0.438
  20473232.865   -17474558.749 7  -4770256.99423        26.000           2.625
  20779961.686     -270944.803 6    621531.62822        16.750           1.656
  22618339.662    -7989792.458 6   -798988.74621        16.750           0.563
  22914992.420    -6616302.464 5   -450314.00221         9.750           0.344
  21749657.068   -14797087.518 6  -5100108.44721        14.500           0.875
 91  5 21 19 35 59.9980000  0  6G18G 2G19G11G16G 6
  23080587.295    10752152.174 5   4543334.14321        10.250           0.375
  20466861.201   -17508041.499 7  -4796347.41522        25.250           2.406
  20781804.865     -261249.936 6    629086.05021        16.750           1.469
  22619308.936    -7984705.549 6   -795024.92521        16.250           0.625
  22916122.404    -6610364.334 5   -445686.95121         9.250           0.313
  21741849.654   -14838119.937 6  -5132081.71921        14.000           0.813
 91  5 21 19 36 14.9980000  0  6G18G 2G19G11G16G 6
  23088559.459    10794041.364 5   4575974.90621        10.500           0.438
  20460505.803   -17541443.949 7  -4822375.27423        25.500           2.781
  20783661.662     -251501.189 6    636682.46022        15.750           1.750
  22620303.131    -7979475.624 6   -790949.67121        16.250           0.688
  22917272.100    -6604316.575 5   -440974.48521         9.250           0.375
  21734043.147   -14879134.274 6  -5164040.90821        14.000           0.844
 91  5 21 19 36 29.9980000  0  6G18G 2G19G11G16G 6
  23096537.451    10835962.466 5   4608640.55521        10.750           0.375
  20454164.357   -17574767.158 7  -4848341.38423        26.500           2.750
  20785525.006     -241699.504 6    644320.10622        16.000           1.844
  22621325.303    -7974103.730 6   -786763.79121        16.750           0.844
  22918444.772    -6598160.468 5   -436177.58621         9.500           0.406
  21726240.693   -14920131.339 6  -5195986.63921        14.750           0.969
 91  5 21 19 36 44.9980000  0  6G18G 2G19G11G16G 6
  23104524.303    10877929.874 5   4641342.27021        10.750           0.313
  20447839.787   -17607996.330 7  -4874234.22423        26.000           2.531
  20787406.404     -231830.136 6    652010.49722        16.500           1.594
  22622375.889    -7968575.257 6   -782455.90821        16.750           0.625
  22919639.857    -6591881.592 5   -431285.02521         9.750           0.250
  21718447.029   -14961096.503 6  -5227907.52021        15.750           0.875
 91  5 21 19 36 59.9980000  0  6G18G 2G19G11G16G 6
  23112517.865    10919939.605 5   4674076.96321        10.750           0.406
  20441534.248   -17641135.356 7  -4900056.80723        26.500           2.813
  20789296.873     -221897.033 6    659750.56222        17.000           1.844
  22623456.022    -7962894.323 6   -778029.21421        16.250           0.625
  22920859.732    -6585484.158 5   -426300.06721        10.250           0.313
  21710657.545   -15002033.583 6  -5259806.50121        16.250           0.969
 91  5 21 19 37 14.9980000  0  6G18G 2G19G11G16G 6
  23120519.709    10961985.634 5   4706839.93921        11.000           0.438
  20435244.803   -17674189.536 7  -4925813.29023        27.000           2.563
  20791196.131     -211905.392 6    667536.23522        16.500           1.688
  22624566.756    -7957066.399 6   -773487.97721        16.500           0.656
  22922101.389    -6578973.852 5   -421227.16021         9.750           0.313
  21702872.631   -15042947.863 6  -5291687.71921        16.000           0.781
 91  5 21 19 37 29.9980000  0  6G18G 2G19G11G16G 6
  23128527.475    11004070.425 5   4739633.10921        10.750           0.500
  20428970.178   -17707156.303 7  -4951501.65823        25.500           2.844
  20793111.311     -201852.623 6    675369.54022        16.000           1.844
  22625705.147    -7951089.000 6   -768830.27821        16.250           0.719
  22923357.701    -6572348.084 5   -416064.30421         9.500           0.375
  21695091.459   -15083836.722 6  -5323549.13721        16.000           1.000
 91  5 21 19 37 44.9980000  0  6G18G 2G19G11G16G 6
  23136541.326    11046179.160 5   4772444.95021        10.500           0.344
  20422709.779   -17740050.288 7  -4977133.31223        25.000           2.688
  20795032.154     -191753.386 6    683239.05222        16.000           1.781
  22626866.959    -7944976.977 6   -764067.67121        15.750           0.688
  22924637.592    -6565621.923 5   -410823.21721         9.500           0.406
  21687313.506   -15124714.815 6  -5355402.15721        15.000           0.906
 91  5 21 19 37 59.9980000  0  6G18G 2G19G11G16G 6
  23144563.139    11088333.665 5   4805292.44821        10.250           0.406
  20416468.498   -17772849.324 7  -5002690.98223        25.250           2.688
  20796964.873     -181585.656 6    691161.94122        16.000           1.781
  22628060.756    -7938708.353 6   -759183.04021        16.250           0.656
  22925939.725    -6558773.692 5   -405486.98521        10.000           0.281
  21679538.647   -15165559.932 6  -5387229.47921        14.750           1.000
 91  5 21 19 38 14.9980000  0  6G18G 2G19G11G16G 6
  23152594.357    11130539.995 5   4838180.34121        10.000           0.344
  20410248.170   -17805547.422 7  -5028169.99923        26.250           2.719
  20798915.725     -171343.082 6    699143.14222        16.500           1.844
  22629283.522    -7932277.134 6   -754171.70221        16.750           0.750
  22927266.959    -6551797.415 5   -400050.99521        10.000           0.313
  21671773.467   -15206365.875 6  -5419026.28821        15.750           0.938
 91  5 21 19 38 29.9970000  0  6G18G 2G19G11G16G 6
  23160630.040    11172770.219 5   4871086.83921         9.750           0.375
  20404040.603   -17838166.924 7  -5053587.77323        25.750           2.688
  20800877.751     -161050.971 6    707162.94922        16.000           1.938
  22630533.251    -7925708.527 6   -749053.32121        15.750           0.813
  22928614.485    -6544718.439 5   -394534.97721         9.500           0.344
  21664016.181   -15247154.490 6  -5450809.57721        16.000           1.063
 91  5 21 19 38 44.9970000  0  6G18G 2G19G11G16G 6
  23168672.407    11215027.390 5   4904014.35121         9.750           0.344
  20397845.603   -17870714.675 7  -5078949.63923        25.000           2.688
  20802842.103     -150710.458 6    715220.46922        17.000           2.000
  22631808.509    -7919004.187 6   -743829.16121        15.750           0.656
  22929981.868    -6537538.319 5   -388940.16021         9.500           0.344
  21656253.556   -15287933.586 6  -5482585.45821        15.250           0.906
 91  5 21 19 38 59.9970000  0  6G18G 2G19G11G16G 6
  23176720.743    11257320.905 5   4936970.17221         9.500           0.313
  20391668.485   -17903175.672 7  -5104243.89923        24.750           2.750
  20804825.954     -140309.528 6    723325.06922        16.000           1.844
  22633113.001    -7912152.008 6   -738489.80821        15.750           0.656
  22931368.618    -6530245.180 5   -383257.24721         9.250           0.219
  21648496.118   -15328687.676 6  -5514341.86621        15.250           0.938
 91  5 21 19 39 14.9970000  0  6G18G 2G19G11G16G 6
  23184773.532    11299639.186 5   4969945.29121         9.250           0.219
  20385505.251   -17935561.517 7  -5129479.59823        25.250           2.938
  20806810.243     -129859.552 6    731467.88222        17.000           2.031
  22634441.720    -7905163.808 6   -733044.46221        16.000           0.750
  22932775.493    -6522850.727 5   -377495.42221        10.000           0.313
  21640745.860   -15369428.361 6  -5546087.81521        16.000           0.938
 91  5 21 19 39 29.9970000  0  6G18G 2G19G11G16G 6
  23192831.126    11341992.075 5   5002947.37221         9.250           0.344
  20379360.978   -17967862.207 7  -5154648.94123        25.750           2.844
  20808812.103     -119350.490 6    739656.73222        16.500           2.031
  22635802.806    -7898029.474 6   -727485.25721        16.250           0.781
  22934203.704    -6515345.297 5   -371647.10221        10.000           0.281
  21632996.134   -15410145.388 6  -5577815.33421        16.250           0.938
 91  5 21 19 39 44.9970000  0  6G18G 2G19G11G16G 6
  23200897.860    11384383.213 5   5035979.25821         9.000           0.344
  20373230.384   -18000073.690 7  -5179748.77823        25.750           2.969
  20810820.813     -108778.372 6    747894.71722        17.250           2.094
  22637188.376    -7890745.265 6   -721809.25821        16.000           0.781
  22935654.790    -6507725.119 5   -365709.37021        10.000           0.406
  21625255.923   -15450834.780 6  -5609521.32021        17.000           0.938
 91  5 21 19 39 59.9970000  0  6G18G 2G19G11G16G 6
  23208972.095    11426797.841 5   5069029.45521         9.000           0.281
  20367115.634   -18032210.383 7  -5204790.32823        25.750           2.906
  20812845.126      -98157.611 6    756170.61022        17.250           2.156
  22638597.978    -7883325.801 6   -716027.85821        15.500           0.750
  22937120.829    -6500004.803 5   -359693.59421        10.000           0.188
  21617513.735   -15491510.927 6  -5641216.97121        17.250           1.031
 91  5 21 19 40 14.9970000  0  6G18G 2G19G11G16G 6
  23217046.610    11469241.915 5   5102102.58421         9.000           0.156
  20361013.853   -18064266.165 7  -5229768.84022        25.250           2.313
  20814874.688      -87482.062 6    764489.19222        17.750           1.719
  22640037.509    -7875765.152 6   -710136.45321        15.500           0.563
  22938610.751    -6492178.689 5   -353595.39421        10.000           0.281
  21609779.626   -15532167.709 6  -5672897.54821        17.500           0.813
 91  5 21 19 40 29.9970000  0  6G18G 2G19G11G16G 6
  23225132.767    11511728.240 5   5135208.68021         9.000           0.313
  20354932.399   -18096228.259 7  -5254674.34223        25.250           2.906
  20816920.188      -76738.688 6    772860.63222        17.250           2.156
  22641506.829    -7868050.492 6   -704125.03421        16.500           0.719
  22940124.642    -6484233.960 5   -347404.75521        10.250           0.375
  21602046.032   -15572792.031 6  -5704552.82321        17.500           1.000
 91  5 21 19 40 44.9970000  0  6G18G 2G19G11G16G 6
  23233226.329    11554256.175 5   5168347.11721         9.250           0.031
  20348867.665   -18128096.768 7  -5279506.97621        25.500           0.313
  20818974.728      -65927.638 6    781284.77321        17.250           0.188
  22643002.579    -7860182.278 6                        16.500
  22941656.470    -6476171.381 5   -341122.27421         9.750           0.094
  21594321.079   -15613384.189 6  -5736183.06421        17.000           0.063
 91  5 21 19 40 59.9970000  0  6G18G 2G19G11G16G 6
  23241325.665    11596818.434 5   5201512.37921         9.250           0.250
  20342819.618   -18159878.601 7  -5304271.97422        25.000           2.250
  20821044.228      -55055.909 6    789756.23922        16.750           1.625
  22644528.313    -7852167.721 6                        16.250
  22943214.860    -6467998.262 5                        10.250
  21586603.478   -15653951.105 6  -5767793.60921        17.250           0.844
 91  5 21 19 41 14.9970000  0  6G18G 2G19G11G16G 6
  23249431.915    11639420.800 5   5234708.87121         9.500           0.313
  20336790.212   -18191567.826 7  -5328964.84623        25.250           2.750
  20823126.946      -44117.593 6    798279.58322        16.750           1.906
  22646081.743    -7844001.026 6                        16.500
  22944790.017    -6459708.657 5                         9.750
  21578889.751   -15694486.677 6  -5799379.72421        17.000           1.031
 91  5 21 19 41 29.9970000  0  6G18G 2G19G11G16G 6
  23257544.938    11682043.439 5   5267921.14221         9.500           0.188
  20330774.149   -18223183.831 7  -5353600.68222        25.250           2.250
  20825215.782      -33131.854 6    806839.86322        17.000           1.594
  22647660.438    -7835701.688 6                        15.500
  22946386.540    -6451322.048 5                         9.500
  21571177.079   -15735010.337 6  -5830956.58221        16.250           0.813
 91  5 21 19 41 44.9970000  0  6G18G 2G19G11G16G 6
  23265662.938    11724705.120 5   5301163.85221         9.750           0.156
  20324774.157   -18254707.640 7  -5378164.66022        25.500           2.250
  20827318.845      -22079.664 6    815451.93622        17.500           1.531
  22649270.321    -7827250.745 6                        16.500
  22948003.267    -6442819.980 5                        10.000
  21563471.235   -15775502.770 6  -5862509.08821        16.250           0.750
 91  5 21 19 41 59.9970000  0  6G18G 2G19G11G16G 6
  23273783.298    11767389.878 5   5334424.51421         9.750           0.281
  20318789.978   -18286155.288 7  -5402669.30223        25.000           2.750
  20829432.681      -10977.134 6    824103.22522        17.250           1.813
  22650904.181    -7818664.486 6                        17.000
  22949642.696    -6434218.621 5                        10.000
  21555770.462   -15815980.179 6  -5894049.90821        16.500           0.938
 91  5 21 19 42 14.9970000  0  6G18G 2G19G11G16G 6
  23281910.587    11810092.285 5   5367698.96721         9.500           0.344
  20312818.946   -18317531.521 7  -5427118.29622        24.750           2.406
  20831553.118         171.031 6    832790.08322        16.750           1.625
  22652562.220    -7809948.010 6                        16.750
  22951299.774    -6425523.296 5                        10.500
  21548067.993   -15856447.248 6  -5925582.66021        16.500           0.844
 91  5 21 19 42 29.9970000  0  6G18G 2G19G11G16G 6
  23290042.196    11852826.585 5   5400998.24521         9.000           0.438
  20306864.446   -18348821.996 7  -5451500.46023        25.250           2.813
  20833687.563       11379.189 6    841523.68322        17.250           1.875
  22654250.462    -7801087.111 6                        17.250
  22952971.431    -6416719.867 5                        10.000
  21540374.634   -15896889.557 6  -5957096.11821        17.000           1.063
 91  5 21 19 42 44.9970000  0  6G18G 2G19G11G16G 6
  23298182.017    11895597.230 5   5434325.82721         8.750           0.281
  20300927.899   -18380022.231 7  -5475812.31522        25.750           2.219
  20835831.603       22651.985 6    850307.64221        17.250           1.438
  22655963.931    -7792077.141 6        -0.12831        17.500           0.563
  22954670.790    -6407803.609 5        -0.30231         9.750           0.375
  21532684.259   -15937302.424 6  -5988586.62921        17.250           0.719
 91  5 21 19 42 59.9970000  0  6G18G 2G19G11G16G 6
  23306325.774    11938393.592 5   5467673.46921         8.750           0.281
  20295006.032   -18411142.389 7  -5500061.76822        25.750           2.188
  20837987.493       33979.150 6    859133.96521        17.000           1.469
  22657703.345    -7782928.600 6      7128.59021        16.250           0.500
  22956385.282    -6398785.210 5      7026.92021        10.000           0.313
  21524995.681   -15977695.911 6  -6020062.05721        17.000           0.750
 91  5 21 19 43 14.9970000  0  6G18G 2G19G11G16G 6
  23314475.493    11981217.927 5   5501042.91721         8.250           0.406
  20289099.790   -18442179.996 7  -5524246.88823        25.500           2.531
  20840152.478       45363.153 6    868004.58822        17.000           1.531
  22659472.899    -7773639.180 6     14367.08721        16.250           0.656
  22958123.493    -6389662.363 5     14135.56521        10.250           0.281
  21517314.446   -16018067.727 6  -6051520.58121        17.250           0.969
 91  5 21 19 43 29.9970000  0  6G18G 2G19G11G16G 6
  23322628.587    12024065.395 5   5534430.37821         8.250           0.406
  20283209.032   -18473139.526 7  -5548371.17323        26.500           2.563
  20842333.704       56799.624 6    876916.09322        16.500           1.781
  22661264.392    -7764213.574 6     21711.70621        16.250           0.688
  22959876.142    -6380440.098 5     21321.69121        10.250           0.313
  21509632.235   -16058422.168 6  -6082965.56621        17.500           0.875
 91  5 21 19 43 44.9970000  0  6G18G 2G19G11G16G 6
  23330787.056    12066938.239 5   5567837.62321         8.250           0.313
  20277331.845   -18504018.433 7  -5572432.63823        26.000           2.594
  20844517.368       68291.009 6    885870.37522        17.750           1.719
  22663084.517    -7754649.582 6     29164.15021        16.250           0.719
  22961651.438    -6371116.282 5     28586.92521        10.250           0.375
  21501959.235   -16098756.647 6  -6114395.00721        17.500           0.875
 91  5 21 19 43 59.9970000  0  6G18G 2G19G11G16G 6
  23338948.767    12109827.546 5   5601257.68321         8.250           0.250
  20271469.103   -18534825.422 7  -5596438.06023        25.500           2.719
  20846711.282       79828.573 6    894860.65722        18.500           1.781
  22664930.665    -7744956.108 6     36717.49021        15.750           0.719
  22963445.032    -6361700.050 5     35924.16721        10.500           0.469
  21494283.517   -16139079.891 6  -6145815.68921        16.750           0.938
 91  5 21 19 44 14.9970000  0  6G18G 2G19G11G16G 6
  23347119.642    12152753.855 5   5634706.57921         8.500           0.250
  20265624.634   -18565539.678 7  -5620371.22123        26.000           2.938
  20848920.704       91433.460 6    903903.39322        17.750           1.969
  22666803.735    -7735112.280 6     44387.99221        16.250           0.813
  22965256.610    -6352170.449 5     43349.76021        10.750           0.531
  21486617.751   -16179370.916 6  -6177211.26821        17.000           1.000
 91  5 21 19 44 29.9970000  0  6G18G 2G19G11G16G 6
  23355290.970    12195705.341 5   5668175.09721         8.000           0.313
  20259794.478   -18596172.901 7  -5644241.24923        25.750           2.719
  20851139.181      103093.990 6    912989.47422        18.000           1.813
  22668703.728    -7725130.074 6     52166.31521        15.750           0.750
  22967092.048    -6342539.295 5     50854.48821        10.750           0.344
  21478953.743   -16219641.353 6  -6208590.79821        16.750           0.906
 91  5 21 19 44 44.9970000  0  6G18G 2G19G11G16G 6
  23363469.634    12238679.051 5   5701660.92621         7.750           0.375
  20253981.353   -18626727.976 7  -5668050.37523        26.000           3.000
  20853367.579      114807.107 6    922116.54422        17.500           1.875
  22670628.368    -7715012.466 6     60050.15221        15.750           0.813
  22968940.642    -6332810.022 5     58435.66521        10.000           0.344
  21471294.118   -16259893.957 6  -6239956.43821        16.750           1.031
 91  5 21 19 44 59.9970000  0  6G18G 2G19G11G16G 6
  23371652.267    12281689.304 5   5735175.22821         7.750           0.281
  20248185.017   -18657190.180 7  -5691787.13623        25.750           2.813
  20855609.470      126587.780 6    931296.25722        17.000           1.875
  22672583.282    -7704744.890 6     68050.84621        15.250           0.719
  22970809.353    -6322968.098 5     66104.60621         9.500           0.281
  21463641.470   -16300114.044 6  -6271296.74021        16.750           1.031
 91  5 21 19 45 14.9970000  0  6G18G 2G19G11G16G 6
  23379847.532    12324744.556 5   5768724.60021         7.750           0.250
  20242406.329   -18687550.649 7  -5715444.62523        26.000           2.844
  20857866.759      138444.802 6    940535.45622        17.000           1.781
  22674565.938    -7694318.806 6     76175.03921        15.500           0.656
  22972708.103    -6313004.793 5     73868.13521        10.000           0.313
  21455995.243   -16340292.650 6  -6302604.72121        16.500           1.000
 91  5 21 19 45 29.9970000  0  6G18G 2G19G11G16G 6
  23388044.751    12367824.634 5   5802293.29221         7.750           0.188
  20236645.063   -18717829.285 7  -5739038.34223        25.250           2.813
  20860132.595      150358.269 6    949818.64122        16.750           1.719
  22676575.728    -7683754.271 6     84407.13121        15.500           0.813
  22974623.407    -6302940.271 5     81710.56121         9.250           0.375
  21448354.392   -16380449.534 6  -6333895.77121        17.250           1.031
 91  5 21 19 45 44.9970000  0  6G18G 2G19G11G16G 6
  23396246.985    12410923.122 5   5835876.36021         8.000           0.250
  20230896.681   -18748032.216 7  -5762573.07323        25.750           2.844
  20862410.782      162322.109 6    959141.07322        16.750           1.813
  22678612.556    -7673057.664 6     92742.13221        16.000           0.688
  22976558.790    -6292781.343 5     89626.50921         9.750           0.344
  21440715.743   -16420590.889 6  -6365174.71921        17.500           1.063
 91  5 21 19 45 59.9970000  0  6G18G 2G19G11G16G 6
  23404454.376    12454049.787 5   5869481.38221         7.750           0.188
  20225166.751   -18778149.744 7  -5786041.25723        26.000           2.875
  20864699.071      174345.988 6    968510.28822        17.000           1.750
  22680673.056    -7662219.246 6    101187.63421        16.250           0.656
  22978513.024    -6282518.681 5     97623.31921         9.750           0.313
  21433080.399   -16460706.806 6  -6396433.84621        17.250           0.969
 91  5 21 19 46 14.9970000  0  6G18G 2G19G11G16G 6
  23412666.681    12497204.846 5   5903108.52121         8.250           0.219
  20219451.563   -18808181.318 7  -5809442.45623        26.250           3.000
  20866998.634      186430.704 6    977926.91422        17.000           1.906
  22682763.610    -7651238.628 6    109743.93521        16.250           0.719
  22980484.228    -6272151.456 5    105701.58221         9.250           0.375
  21425453.642   -16500796.673 6  -6427672.67421        16.750           1.031
 91  5 21 19 46 29.9970000  0  6G18G 2G19G11G16G 6
  23420883.712    12540383.068 5   5936753.69521         8.250           0.156
  20213753.165   -18838131.690 7  -5832780.38423        26.000           2.719
  20869308.876      198571.373 6    987387.12922        17.000           1.688
  22684881.509    -7640120.880 6    118407.10221        16.500           0.594
  22982474.767    -6261684.762 5    113857.36121         9.250           0.250
  21417827.212   -16540865.144 6  -6458894.83121        17.000           1.000
 91  5 21 19 46 44.9970000  0  6G18G 2G19G11G16G 6
  23429106.446    12583592.379 5   5970423.07821         8.750           0.219
  20208068.743   -18867992.762 7  -5856048.72523        25.750           3.031
  20871632.306      210776.227 6    996897.37522        17.000           1.781
  22687022.110    -7628857.977 6    127183.36721        15.750           0.656
  22984488.024    -6251110.846 5    122096.70821         9.750           0.344
  21410209.251   -16580903.992 6  -6490093.89021        16.750           1.000
 91  5 21 19 46 59.9970000  0  6G18G 2G19G11G16G 6
  23437331.126    12626813.220 5   6004101.48221         8.500           0.156
  20202399.634   -18897783.891 7  -5879262.57123        26.000           3.000
  20873961.384      223026.096 6   1006442.68422        17.250           1.969
  22689191.579    -7617469.743 6    136057.29221        15.750           0.750
  22986518.907    -6240449.683 5    130404.02221        10.000           0.438
  21402590.837   -16620932.557 6  -6521284.94921        16.750           1.094
 91  5 21 19 47 14.9970000  0  6G18G 2G19G11G16G 6
  23445561.157    12670057.113 5   6037797.86621         9.000           0.156
  20196746.337   -18927493.063 7  -5902412.56323        26.750           2.906
  20876305.329      235332.716 6   1016032.21922        17.250           1.813
  22691383.251    -7605944.302 6    145038.13121        16.250           0.656
  22988563.532    -6229689.587 5    138788.43221         9.750           0.281
  21394978.587   -16660938.889 6  -6552458.68221        17.250           1.000
 91  5 21 19 47 29.9970000  0  6G18G 2G19G11G16G 6
  23453796.892    12713334.263 5   6071520.13821         8.250           0.188
  20191111.071   -18957109.988 7  -5925490.65923        26.000           2.813
  20878657.087      247706.414 6   1025674.02222        16.750           1.625
  22693605.946    -7594271.433 6    154133.84421        15.250           0.750
  22990632.306    -6218820.245 5    147257.96021         9.250           0.406
  21387370.892   -16700912.644 6  -6583607.03621        16.500           1.219
 91  5 21 19 47 44.9970000  0  6G18G 2G19G11G16G 6
  23462034.056    12756625.518 5   6105253.39421         8.000           0.281
  20185490.157   -18986653.761 7  -5948511.75123        27.500           3.063
  20881023.399      260128.182 6   1035353.27922        17.250           1.781
  22695848.571    -7582470.555 6    163329.31821        16.000           0.688
  22992718.103    -6207860.969 5    155797.57721        10.000           0.406
  21379766.790   -16740872.710 6  -6614744.72721        16.500           1.063
 91  5 21 19 47 59.9970000  0  6G18G 2G19G11G16G 6
  23470278.626    12799949.243 5   6139011.93921         8.250           0.188
  20179884.884   -19016105.578 7  -5971461.19923        26.750           2.906
  20883398.915      272617.000 6   1045084.78522        17.750           1.750
  22698123.313    -7570522.904 6    172639.13521        16.000           0.531
  22994826.407    -6196793.339 5    164421.60321        10.000           0.344
  21372168.657   -16780800.136 6  -6645856.98121        16.750           1.125
 91  5 21 19 48 14.9970000  0  6G18G 2G19G11G16G 6
  23478523.696    12843286.460 5   6172781.02721         8.500           0.219
  20174293.571   -19045484.318 7  -5994353.69923        26.500           3.000
  20885784.274      285154.014 6   1054853.84222        16.750           1.656
  22700421.876    -7558447.472 6    182048.54521        16.000           0.656
  22996949.595    -6185636.627 5    173115.08721        10.750           0.313
  21364574.946   -16820713.707 6  -6676958.42921        17.500           1.000
 91  5 21 19 48 29.9970000  0  6G18G 2G19G11G16G 6
  23486779.087    12886647.117 5   6206568.37721         8.500           0.219
  20168719.509   -19074779.757 7  -6017181.29223        26.250           2.781
  20888178.587      297749.501 6   1064668.46622        17.500           1.625
  22702744.813    -7546234.316 6    191565.26921        15.500           0.594
  22999092.368    -6174380.740 5    181885.82021         9.750           0.281
  21356982.110   -16860603.164 6  -6708041.08521        17.500           1.000
 91  5 21 19 48 44.9970000  0  6G18G 2G19G11G16G 6
  23495034.868    12930049.437 5   6240388.17321         8.750           0.313
  20163164.735   -19103973.378 7  -6039929.54623        26.750           2.906
  20890594.610      310421.955 6   1074543.06022        17.250           1.656
  22705100.321    -7533865.085 6    201203.60221        15.750           0.688
  23001255.649    -6163007.671 5    190747.87821        10.250           0.375
  21349400.845   -16900449.933 6  -6739090.48221        17.250           0.969
 91  5 21 19 48 59.9970000  0  6G18G 2G19G11G16G 6
  23503301.860    12973480.946 5   6274230.71221         8.500           0.313
  20157626.024   -19133077.424 7  -6062607.99623        26.750           3.063
  20893017.423      323159.405 6   1084468.30722        17.250           1.719
  22707481.438    -7521352.199 6    210953.87221        16.000           0.656
  23003435.743    -6151529.675 5    199691.70021         9.500           0.344
  21341821.579   -16940266.006 6  -6770115.96421        17.250           1.094
 91  5 21 19 49 14.9970000  0  6G18G 2G19G11G16G 6
  23511569.696    13016933.650 5   6308089.77121         8.250           0.250
  20152102.845   -19162099.560 7  -6085222.62523        26.500           2.813
  20895452.517      335954.076 6   1094438.13922        17.000           1.625
  22709888.157    -7508703.623 6    220809.89221        15.500           0.688
  23005640.634    -6139954.532 5    208711.20821         9.250           0.438
  21334252.071   -16980059.083 6  -6801123.53221        17.250           1.125
 91  5 21 19 49 29.9970000  0  6G18G 2G19G11G16G 6
  23519841.782    13060402.909 5   6341961.71021         8.000           0.344
  20146595.407   -19191044.252 7  -6107776.91123        26.500           2.531
  20897896.298      348801.228 6                        17.500
  22712320.509    -7495924.182 6                        16.250
  23007859.118    -6128287.257 5    217802.49921         9.250           0.281
  21326683.368   -17019833.852 6  -6832116.82921        17.750           0.875
 91  5 21 19 49 44.9970000  0  6G18G 2G19G11G16G 6
  23528119.501    13103902.776 5   6375857.51121         8.000           0.406
  20141103.884   -19219897.300 7  -6130259.78123        26.500           2.781
  20900354.454      361715.444 6                        17.000
  22714780.587    -7482999.695 6                        16.250
  23010099.665    -6116513.892 5    226976.46621         9.000           0.438
  21319118.595   -17059575.541 6  -6863084.35521        17.500           1.031
 91  5 21 19 49 59.9970000  0  6G18G 2G19G11G16G 6
  23536400.829    13147421.805 4   6409768.25021         7.250           0.344
  20135629.798   -19248669.488 7  -6152679.64723        26.500           2.688
  20902824.407      374685.909 6   1124618.66921        16.500           1.469
  22717263.931    -7469941.159 6    251014.32221        15.750           0.625
  23012358.282    -6104645.792 5    236224.25321         8.750           0.219
  21311559.696   -17099295.268 6  -6894034.75421        17.250           0.969
 91  5 21 19 50 14.9970000  0  6G18G 2G19G11G16G 6
  23544681.962    13190946.292 4   6443683.21321         7.250           0.344
  20130166.501   -19277374.466 7  -6175047.14523        27.000           2.875
  20905300.642      387698.951 6   1134758.66822        17.250           1.594
  22719771.501    -7456762.410 6    261283.44021        15.750           0.625
  23014634.813    -6092696.678 5    245535.16121         9.250           0.281
  21304003.095   -17139006.434 6  -6924978.49621        17.250           1.156
 91  5 21 19 50 29.9970000  0  6G18G 2G19G11G16G 6
  23552969.392    13234488.335 4   6477611.87221         7.000           0.344
  20124718.837   -19306000.122 7  -6197352.82723        26.500           2.969
  20907786.806      400766.880 6   1144941.43222        17.250           1.781
  22722304.212    -7443451.468 6    271655.57421        15.250           0.719
  23016930.087    -6080654.424 5    254918.63221         9.500           0.406
  21296451.993   -17178696.534 6  -6955905.82721        17.750           1.125
 91  5 21 19 50 44.9970000  0  6G18G 2G19G11G16G 6
  23561257.188    13278040.252 4   6511548.22421         7.250           0.344
  20119284.806   -19334553.586 7  -6219602.25623        26.750           3.000
  20910283.571      413882.485 6   1155161.34322        17.500           1.781
  22724861.181    -7430015.675 6    282125.00321        15.000           0.594
  23019236.665    -6068526.808 5    264368.64321         9.500           0.438
  21288902.626   -17218372.852 6  -6986822.40721        18.000           1.219
 91  5 21 19 50 59.9970000  0  6G18G 2G19G11G16G 6
  23569549.235    13321617.415 5   6545504.25021         7.750           0.313
  20113868.399   -19363019.296 7  -6241783.31823        26.500           2.719
  20912792.993      427061.279 6   1165430.49222        16.500           1.656
  22727444.548    -7416439.709 6    292703.63721        14.500           0.594
  23021558.923    -6056298.423 5    273897.15421         8.750           0.344
  21281356.384   -17258019.790 6  -7017716.10021        17.750           1.031
 91  5 21 19 51 14.9970000  0  6G18G 2G19G11G16G 6
  23577847.696    13365217.193 5   6579477.91121         8.250           0.250
  20108469.032   -19391399.974 7  -6263898.10923        27.000           2.969
  20915309.399      440300.797 6   1175746.96122        17.000           1.719
  22730054.009    -7402726.448 6    303389.27021        14.750           0.625
  23023904.759    -6043972.231 5    283501.88321         9.000           0.375
  21273816.470   -17297639.781 6  -7048588.78921        18.000           1.219
 91  5 21 19 51 29.9970000  0  6G18G 2G19G11G16G 6
  23586147.235    13408836.422 5   6613466.71921         8.500           0.313
  20103083.142   -19419698.227 7  -6285948.68023        27.250           2.969
  20917844.040      453598.415 6   1186108.70622        16.000           1.938
  22732689.595    -7388878.722 6    314179.67421        14.500           0.813
  23026268.923    -6031551.384 5    293180.41321         9.000           0.406
  21266284.196   -17337235.587 6  -7079442.63421        18.500           1.313
 91  5 21 19 51 44.9970000  0  6G18G 2G19G11G16G 6
  23594447.860    13452462.072 5   6647460.54221         8.750           0.313
  20097711.493   -19447926.825 7  -6307944.97223        27.250           3.063
  20920377.767      466941.332 6   1196505.74222        16.750           1.875
  22735346.626    -7374909.786 6    325064.52521        14.500           0.688
  23028648.876    -6019048.825 5    302922.57121         8.750           0.344
  21258749.462   -17376819.845 6  -7110287.48321        18.500           1.000
 91  5 21 19 51 59.9970000  0  5G 2G19G11G16G 6
  20092355.899   -19476068.522 7  -6329873.55123        26.250           2.875
  20922932.813      480346.886 6   1206951.58322        15.750           1.781
  22738030.634    -7360802.308 6    336057.34221        15.000           0.750
  23031046.095    -6006447.313 5    312741.85121         8.250           0.344
  21251223.118   -17416374.975 6  -7141109.64121        18.250           1.156
 91  5 21 19 52 14.9970000  0  5G 2G19G11G16G 6
  20087017.673   -19504121.899 7  -6351733.30923        26.250           2.688
  20925492.712      493816.434 6   1217447.30622        16.500           1.656
  22740743.235    -7346555.181 6    347158.96821        15.000           0.719
  23033466.978    -5993746.084 5    322638.83021         8.500           0.313
  21243700.907   -17455899.697 6  -7171908.10221        17.750           1.031
 91  5 21 19 52 29.9970000  0  5G 2G19G11G16G 6
  20081692.470   -19532104.051 7  -6373537.56823        26.000           2.625
  20928067.884      507333.025 6   1227979.67222        16.500           1.750
  22743477.681    -7332185.509 6    358356.09321        15.000           0.625
  23035896.204    -5980962.530 5    332599.93321         8.500           0.313
  21236184.165   -17495410.964 6  -7202696.07121        18.000           1.000
 91  5 21 19 52 44.9970000  0  5G 2G19G11G16G 6
  20076385.915   -19559991.888 7  -6395268.34323        26.000           3.031
  20930650.173      520919.648 6   1238566.61022        16.750           1.906
  22746240.579    -7317670.620 6    369666.36621        15.000           0.656
  23038349.899    -5968073.906 5    342642.92921         8.250           0.281
  21228671.243   -17534885.593 6  -7233455.49921        17.500           1.000
 91  5 21 19 52 59.9970000  0  5G 2G19G11G16G 6
  20071094.712   -19587797.306 7  -6416934.89321        26.500           0.188
  20933248.415      534564.726 6   1249199.08221        16.000           0.250
  22749027.743    -7303022.430 6                        15.000
  23040821.118    -5955092.169 5                         8.500
  21221164.673   -17574335.371 6  -7264195.54821        17.750           0.031
 91  5 21 19 53 14.9970000  0  5G 2G19G11G16G 6
  20065820.923   -19615513.952 7  -6438532.24323        26.500           3.219
  20935857.071      548274.534 6   1259882.03522        16.500           1.875
  22751840.892    -7288234.933 6                        15.250
  23043307.587    -5942011.205 5                         8.250
  21213663.267   -17613753.624 6  -7294911.04721        18.000           1.156
 91  5 21 19 53 29.9970000  0  5G 2G19G11G16G 6
  20060562.392   -19643148.248 7  -6460065.44723        27.000           3.156
  20938476.345      562042.548 6   1270610.31522        16.500           1.969
  22754680.446    -7273314.726 6                        15.250
  23045816.134    -5928837.587 5                         8.750
  21206167.813   -17653146.764 6  -7325606.97321        18.250           1.125
 91  5 21 19 53 44.9970000  0  5G 2G19G11G16G 6
  20055321.790   -19670690.334 7  -6481526.80123        27.000           3.188
  20941109.657      575878.864 6   1281391.81822        16.500           1.813
  22757547.220    -7258252.209 6        -0.19831        15.250           0.656
  23048340.501    -5915562.075 5        -0.12631         9.000           0.250
  21198676.345   -17692505.057 6  -7356275.74021        17.250           1.094
 91  5 21 19 53 59.9970000  0  5G 2G19G11G16G 6
  20050094.970   -19698154.023 7  -6502927.06023        26.500           3.250
  20943751.204      589769.735 6   1292215.83422        16.750           1.875
  22760438.142    -7243061.499 6     11836.68921        15.250           0.625
  23050886.735    -5902198.567 5     10412.89821         9.000           0.344
  21191193.892   -17731842.098 6  -7386927.96021        17.750           1.219
 91  5 21 19 54 14.9970000  0  5G 2G19G11G16G 6
  20044882.509   -19725546.253 7  -6524271.64123        27.250           3.219
  20946403.696      603708.199 6   1303076.93822        17.000           1.844
  22763353.657    -7227749.730 6     23767.89721        15.500           0.594
  23053443.759    -5888754.372 5     20888.81421         9.500           0.250
  21183707.806   -17771164.724 6  -7417568.93421        17.750           1.156
 91  5 21 19 54 29.9970000  0  5G 2G19G11G16G 6
  20039684.626   -19752860.940 7  -6545555.79423        26.500           3.156
  20949067.313      617700.302 6   1313979.83822        17.000           1.938
  22766289.220    -7212310.975 6     35798.06921        14.750           0.625
  23056019.649    -5875224.097 5     31431.79921         9.500           0.219
  21176229.618   -17810466.816 6  -7448193.91621        17.750           1.219
 91  5 21 19 54 44.9970000  0  5G 2G19G11G16G 6
  20034500.767   -19780096.278 7  -6566778.12223        26.500           3.156
  20951740.618      631748.026 6   1324926.07422        16.750           1.875
  22769251.954    -7196743.578 6     47928.47621        14.750           0.688
  23058611.353    -5861606.005 5     42043.22121         9.500           0.156
  21168755.462   -17849746.344 6  -7478801.31321        18.000           1.219
 91  5 21 19 54 59.9970000  0  5G 2G19G11G16G 6
  20029333.470   -19807256.593 7  -6587941.98623        26.500           2.938
  20954423.009      645847.289 6   1335912.47522        16.000           1.656
  22772238.743    -7181051.972 6     60155.66621        15.000           0.563
  23061217.384    -5847904.349 5     52719.75121         9.000           0.250
  21161283.712   -17889007.408 6  -7509394.32521        17.750           1.063
 91  5 21 19 55 14.9970000  0  5G 2G19G11G16G 6
  20024178.782   -19834340.589 7  -6609046.38723        26.500           3.031
  20957116.321      659999.077 6   1346939.80322        16.250           1.688
  22775248.540    -7165235.360 6     72480.26921        15.500           0.719
  23063839.923    -5834118.730 5     63461.71321         9.250           0.250
  21153816.267   -17928248.674 6  -7539971.91621        18.000           1.156
 91  5 21 19 55 29.9970000  0  5G 2G19G11G16G 6
  20019043.181   -19861330.900 7  -6630077.78123        26.250           3.000
  20959822.454      674220.836 6   1358021.65422        16.250           1.781
  22778285.657    -7149276.432 6     84915.76421        15.500           0.594
  23066486.251    -5820231.659 5     74282.72621         9.750           0.219
  21146355.993   -17967452.796 6  -7570520.55921        18.000           1.125
 91  5 21 19 55 44.9970000  0  5G 2G19G11G16G 6
  20013925.142   -19888228.560 7  -6651036.98323        27.750           2.844
  20962542.243      688511.691 6   1369157.34322        16.000           1.594
  22781349.173    -7133176.435 6     97461.17521        15.000           0.594
  23069149.751    -5806244.246 5     85181.91321         9.750           0.313
  21138903.767   -18006620.648 6  -7601040.94221        18.000           1.094
 91  5 21 19 55 59.9970000  0  5G 2G19G11G16G 6
  20008821.806   -19915050.063 7  -6671936.84423        27.000           3.031
  20965275.907      702855.148 6   1380334.02622        15.500           1.719
  22784435.384    -7116952.107 6    110103.46721        14.500           0.656
  23071826.610    -5792173.625 5     96145.94321         9.500           0.281
  21131453.712   -18045768.469 6  -7631545.71521        17.500           1.188
 91  5 21 19 56 14.9970000  0  5G 2G19G11G16G 6
  20003730.876   -19941798.151 7  -6692779.49923        26.250           2.688
  20968011.243      717248.567 6   1391549.63822        16.000           1.500
  22787544.204    -7100606.386 6    122840.36521        13.750           0.500
  23074522.696    -5778022.819 5    107172.47021         9.750           0.281
  21124005.204   -18084899.121 6  -7662037.11421        17.250           1.156
 91  5 21 19 56 29.9970000  0  5G 2G19G11G16G 6
  19998658.688   -19968449.328 7  -6713546.63423        27.000           2.750
  20970762.298      731715.324 6   1402822.39722        16.500           1.500
  22790685.009    -7084116.005 6    135689.97721        14.500           0.500
  23077231.345    -5763768.550 5    118279.58421         9.500           0.281
  21116567.431   -18123988.892 6  -7692496.64321        17.250           1.125
 91  5 21 19 56 44.9970000  0  5G 2G19G11G16G 6
  19993603.954   -19995012.790 7  -6734245.42423        27.000           3.094
  20973530.493      746246.403 6   1414145.27322        16.250           1.688
  22793847.212    -7067490.341 6    148645.00321        14.250           0.594
  23079961.759    -5749420.369 5    129459.88021         9.000           0.281
  21109134.962   -18163047.005 6  -7722931.50921        17.500           1.188
 91  5 21 19 56 59.9970000  0  5G 2G19G11G16G 6
  19988562.017   -20021509.761 7  -6754892.40223        27.000           3.000
  20976303.759      760820.725 6   1425501.85421        16.750           1.438
  22797033.603    -7050750.880 6    161688.69921        14.500           0.531
  23082701.657    -5734999.514 5    140696.82721         8.500           0.375
  21101704.384   -18202094.177 6  -7753357.85521        18.250           1.313
 91  5 21 19 57 14.9970000  0  5G 2G19G11G16G 6
  19983534.923   -20047927.352 7  -6775477.52823        26.500           3.000
  20979088.118      775451.264 6   1436902.24322        16.000           1.750
  22800242.837    -7033884.892 6    174830.98921        14.500           0.594
  23085463.415    -5720493.631 5    152000.03421         8.750           0.281
  21094278.798   -18241117.506 6  -7783765.62321        18.250           1.219
 91  5 21 19 57 29.9970000  0  5G 2G19G11G16G 6
  19978524.149   -20074260.941 7  -6795997.19123        26.500           3.031
  20981881.642      790142.669 6                        15.750
  22803477.048    -7016888.105 6    188075.20721        14.250           0.531
  23088238.009    -5705898.583 5                         8.750
  21086859.329   -18280112.362 6  -7814151.19621        18.500           1.219
 91  5 21 19 57 44.9970000  0  5G 2G19G11G16G 6
  19973527.571   -20100513.829 7  -6816453.98123        26.500           2.875
  20984688.782      804891.359 6                        15.750
  22806736.720    -6999764.148 6    201418.50121        14.250           0.469
  23091031.134    -5691217.881 5                         8.500
  21079443.032   -18319082.197 6  -7844517.27721        18.250           1.219
 91  5 21 19 57 59.9970000  0  5G 2G19G11G16G 6
  19968545.798   -20126695.520 7  -6836855.27823        27.750           2.938
  20987503.931      819688.272 6                        16.000
  22810018.470    -6982522.438 6    214853.56721        14.000           0.469
  23093839.634    -5676461.255 5                         8.750
  21072030.134   -18358036.098 6  -7874870.93821        18.500           1.219
 91  5 21 19 58 14.9970000  0  5G 2G19G11G16G 6
  19963578.524   -20152798.054 7  -6857194.90623        27.250           3.219
  20990331.384      834541.411 6                        15.500
  22813321.970    -6965155.260 6    228386.38521        14.500           0.563
  23096662.220    -5661620.749 5                         8.500
  21064622.368   -18396965.810 6  -7905205.75721        18.500           1.188
 91  5 21 19 58 29.9970000  0  5G 2G19G11G16G 6
  19958628.993   -20178801.870 7  -6877457.61123        27.000           3.063
  20993172.056      849470.169 6                        16.250
  22816656.220    -6947643.343 6    242031.98821        14.500           0.500
  23099509.274    -5646677.340 5                         8.750
  21057223.618   -18435851.834 6  -7935506.53321        18.750           1.188
 91  5 21 19 58 44.9970000  0  5G 2G19G11G16G 6
  19953695.696   -20204728.655 7  -6897660.29023        27.000           2.688
  20996024.095      864452.910 6                        16.000
  22820012.751    -6930008.765 6    255773.17821        14.500           0.594
  23102367.235    -5631653.119 5                         9.250
  21049826.774   -18474715.811 6  -7965790.12521        18.750           1.250
 91  5 21 19 58 59.9970000  0  5G 2G19G11G16G 6
  19948777.079   -20230583.077 7  -6917806.58223        27.000           2.969
  20998884.298      879485.102 6                        15.500
  22823389.470    -6912256.419 6    269606.12821        14.000           0.469
  23105238.485    -5616553.015 5                         8.500
  21042434.298   -18513562.388 6  -7996060.16321        18.750           1.219
 91  5 21 19 59 14.9970000  0  5G 2G19G11G16G 6
  19943869.681   -20256370.714 7  -6937900.82823        27.500           2.563
  21001755.063      894561.177 6   1529714.85521        15.500           1.281
  22826788.446    -6894391.945 6    283526.45921        14.000           0.406
  23108127.720    -5601382.645 5    184348.03521         8.750           0.188
  21035046.024   -18552396.773 6  -8026320.69421        19.000           1.188
 91  5 21 19 59 29.9970000  0  5G 2G19G11G16G 6
  19938980.563   -20282059.803 7  -6957918.28422        27.000           2.313
  21004636.438      909712.861 6   1541521.32821        15.250           1.219
  22830215.298    -6876383.898 6    297558.64221        14.500           0.438
  23111035.782    -5586110.842 5    196248.03121         8.750           0.313
  21027662.892   -18591187.259 6  -8056547.02421        18.250           1.031
 91  5 21 19 59 44.9970000  0  5G 2G19G11G16G 6
  19934109.196   -20307656.707 7  -6977863.91623        27.500           2.563
  21007532.876      924933.920 6   1553381.84021        15.500           1.406
  22833667.907    -6858238.738 6    311697.68621        14.750           0.625
  23113961.610    -5570743.999 5    208222.10021         9.000           0.219
  21020288.868   -18629939.823 6  -8086743.81321        18.750           1.094
 91  5 21 19 59 59.9970000  0  5G 2G19G11G16G 6
  19929255.126   -20333165.918 7  -6997741.21022        27.000           2.281
  21010441.329      940219.981 6   1565293.00521        16.250           1.125
  22837147.306    -6839961.224 6    325939.85721        14.250           0.469
  23116902.056    -5555286.988 5    220266.44921         8.750           0.250
  21012919.774   -18668659.004 6  -8116914.57821        18.750           1.125
 91  5 21 20  0 14.9970000  0  5G 2G19G11G16G 6
  19924417.040   -20358592.794 7  -7017554.35122        27.500           2.250
  21013359.634      955565.655 6   1577250.64521        16.750           1.094
  22840649.360    -6821556.980 6    340280.77721        14.500           0.469
  23119858.618    -5539745.669 5    232376.46221         8.750           0.281
  21005559.220   -18707350.126 6  -8147063.48221        19.500           0.969
 91  5 21 20  0 29.9970000  0  5G 2G19G11G16G 6
  19919592.938   -20383943.245 7  -7037307.93123        27.250           2.938
  21016291.165      970965.168 6   1589250.22721        16.250           1.469
  22844173.821    -6803032.070 6    354715.73321        14.250           0.531
  23122832.774    -5524126.179 5    244547.41921         9.000           0.313
  20998200.126   -18746018.824 6  -8177194.91021        19.750           1.406
 91  5 21 20  0 44.9970000  0  5G 2G19G11G16G 6
  19914782.321   -20409218.546 7  -7057002.95823        26.500           2.938
  21019230.579      986417.335 6   1601290.82421        16.500           1.438
  22847722.868    -6784387.939 6    369243.56621        14.250           0.531
  23125817.087    -5508430.131 5    256778.01721         8.750           0.344
  20990845.571   -18784666.041 6  -8207309.59721        18.750           1.344
 91  5 21 20  0 59.9970000  0  5G 2G19G11G16G 6
  19909986.337   -20434426.910 7  -7076645.82323        26.500           2.531
  21022179.876     1001913.974 6   1613366.08921        17.000           1.219
  22851289.790    -6765633.205 6    383857.60321        13.500           0.438
  23128818.040    -5492665.960 5    269061.68621         8.750           0.156
  20983493.298   -18823300.121 6  -8237414.05421        18.500           1.125
 91  5 21 20  1 14.9970000  0  5G 2G19G11G16G 6
  19905206.782   -20459543.203 7  -7096216.95022        27.000           2.438
  21025142.306     1017480.211 6   1625495.58721        16.750           1.063
  22854883.501    -6746742.819 6    398577.33121        13.750           0.469
  23131836.634    -5476808.665 5    281417.93621         9.250           0.313
  20976148.665   -18861895.737 6  -8267488.54621        18.500           1.094
 91  5 21 20  1 29.9970000  0  5G 2G19G11G16G 6
  19900445.603   -20484564.653 7  -7115714.16723        27.250           2.750
  21028118.173     1033118.982 6   1637681.60321        16.250           1.250
  22858505.618    -6727714.337 6    413404.66121        13.500           0.594
  23134874.923    -5460855.884 5    293848.57621         9.250           0.188
  20968813.860   -18900449.936 6  -8297530.75421        19.000           1.219
 91  5 21 20  1 44.9970000  0  5G 2G19G11G16G 6
  19895700.759   -20509498.516 7  -7135143.13723        27.250           2.656
  21031105.376     1048822.972 6   1649918.43421        16.750           1.344
  22862151.298    -6708555.312 6    428333.72921        13.500           0.531
  23137925.548    -5444815.249 5    306347.67021         9.250           0.313
  20961480.751   -18938970.009 6  -8327546.37021        18.750           1.156
 91  5 21 20  1 59.9970000  0  5G 2G19G11G16G 6
  19890970.423   -20534356.033 7  -7154512.61622        26.500           2.438
  21034106.837     1064580.955 6   1662197.33021        16.500           1.344
  22865819.407    -6689277.239 6    443355.54421        13.750           0.469
  23140992.142    -5428698.298 5    318906.22521         9.250           0.219
  20954156.790   -18977466.964 6  -8357543.97821        18.750           1.281
 91  5 21 20  2 14.9970000  0  5G 2G19G11G16G 6
  19886253.728   -20559142.570 7  -7173826.79522        27.250           2.406
  21037114.813     1080387.612 6   1674514.16221        16.750           1.188
  22869510.126    -6669885.866 6    458465.65921        13.750           0.406
  23144072.110    -5412510.700 5    331519.83721         9.000           0.250
  20946835.040   -19015946.206 6  -8387527.78421        18.750           1.156
 91  5 21 20  2 29.9970000  0  5G 2G19G11G16G 6
  19881549.048   -20583869.056 7  -7193094.17422        27.000           2.469
  21040132.087     1096232.087 6   1686860.46621        15.750           1.250
  22873220.345    -6650392.214 6    473655.47721        13.750           0.469
  23147163.712    -5396263.537 5    344179.83321         9.250           0.156
  20939513.204   -19054418.509 6  -8417506.17921        18.500           1.063
 91  5 21 20  2 44.9970000  0  5G 2G19G11G16G 6
  19876858.071   -20608518.881 7  -7212301.81422        27.250           2.469
  21043153.774     1112131.122 6   1699249.27021        16.750           1.281
  22876952.220    -6630779.706 6    488937.88821        13.750           0.563
  23150271.704    -5379940.593 5    356898.95121         9.000           0.156
  20932195.368   -19092866.863 6  -8447465.92821        18.500           1.094
 91  5 21 20  2 59.9970000  0  5G 2G19G11G16G 6
  19872185.032   -20633076.155 7  -7231437.33722        26.500           2.281
  21046193.751     1128100.728 6   1711693.06821        16.000           1.281
  22880709.899    -6611032.835 6    504325.01021        13.000           0.406
  23153395.938    -5363526.303 5    369689.17621         8.750           0.125
  20924887.673   -19131275.221 6  -8477394.49721        18.250           1.188
 91  5 21 20  3 14.9970000  0  5G 2G19G11G16G 6
  19867525.774   -20657558.188 7  -7250514.23622        26.500           2.281
  21049242.782     1144123.411 6   1724178.22621        16.500           1.188
  22884490.376    -6591169.215 6    519803.10221        13.250           0.469
  23156533.821    -5347038.455 5    382536.73621         9.000           0.250
  20917581.665   -19169660.965 6  -8507305.44921        18.000           1.219
 91  5 21 20  3 29.9970000  0  5G 2G19G11G16G 6
  19862885.040   -20681945.627 7  -7269517.42322        27.000           2.344
  21052309.321     1160218.736 6   1736720.00221        15.000           1.281
  22888294.915    -6571169.537 6    535387.20221        13.250           0.469
  23159689.306    -5330457.848 5    395456.58821         9.250           0.281
  20910286.134   -19208004.502 6  -8537183.50921        18.500           1.313
 91  5 21 20  3 44.9970000  0  5G 2G19G11G16G 6
  19858259.087   -20706256.793 7  -7288461.17622        27.000           2.406
  21055378.860     1176368.412 6   1749304.11721        16.000           1.344
  22892123.524    -6551052.593 6    551062.69921        13.250           0.438
  23162855.259    -5313803.038 5    408434.23821         8.500           0.250
  20902994.821   -19246324.086 6  -8567042.90821        18.250           1.281
 91  5 21 20  3 59.9970000  0  5G 2G19G11G16G 6
  19853647.423   -20730489.334 7  -7307343.66122        27.250           2.469
  21058466.181     1192575.012 6   1761932.58521        14.500           1.250
  22895974.790    -6530816.020 6    566831.38921        13.250           0.438
  23166039.556    -5297071.823 5    421471.41821         8.500           0.250
  20895708.353   -19284617.037 6  -8596881.55021        18.750           1.125
 91  5 21 20  4 14.9970000  0  5G 2G19G11G16G 6
  19849052.228   -20754637.845 7  -7326160.66922        27.000           2.375
  21061558.431     1208843.875 6   1774609.56121        16.000           1.344
  22899848.282    -6510454.650 6    582697.33821        13.000           0.438
  23169239.938    -5280259.100 5    434572.13121         8.250           0.281
  20888427.712   -19322877.851 6  -8626695.15521        19.000           1.344
 91  5 21 20  4 29.9970000  0  5G 2G19G11G16G 6
  19844473.259   -20778696.992 7  -7344908.04422        26.250           2.344
  21064672.259     1225180.080 6   1787339.02721        15.000           1.188
  22903748.642    -6489963.637 6    598664.30221        13.500           0.438
  23172453.946    -5263359.961 5    447740.17921         8.000           0.188
  20881153.696   -19361101.255 6  -8656479.60121        19.000           1.313
 91  5 21 20  4 44.9970000  0  5G 2G19G11G16G 6
  19839908.087   -20802687.931 7  -7363602.27423        26.750           2.500
  21067784.626     1241562.828 6   1800104.75721        16.500           1.469
  22907669.798    -6469364.282 6    614715.69821        13.750           0.344
  23175683.548    -5246395.994 5    460958.70221         8.250           0.250
  20873881.673   -19399308.092 6  -8686251.14621        19.250           1.250
 91  5 21 20  4 59.9970000  0  5G 2G19G11G16G 6
  19835360.907   -20826589.023 7  -7382226.48322        26.750           2.406
  21070918.329     1258013.744 6   1812923.60121        15.000           1.281
  22911614.759    -6448635.081 6    630868.26821        14.000           0.375
  23178929.571    -5229345.896 5    474244.39621         8.000           0.281
  20866619.720   -19437476.672 6  -8715992.87021        19.500           1.250
 91  5 21 20  5 14.9970000  0  5G 2G19G11G16G 6
  19830828.985   -20850399.628 7  -7400780.18522        27.000           2.188
  21074058.821     1274533.431 6   1825796.02721        16.000           1.156
  22915582.798    -6427775.654 6    647122.29821        14.250           0.313
  23182187.751    -5212208.956 5    487597.71821         7.750           0.156
  20859364.782   -19475606.118 6  -8745704.10021        19.250           1.000
 91  5 21 20  5 29.9970000  0  5G 2G19G11G16G 6
  19826311.032   -20874141.483 7  -7419280.32322        26.250           2.156
  21077214.407     1291100.342 6   1838705.26321        15.000           1.219
  22919571.806    -6406808.125 6    663460.58721        13.500           0.375
  23185464.806    -5195007.403 5    501001.39121         8.000           0.219
  20852111.509   -19513718.084 6  -8775401.72321        19.500           1.281
 91  5 21 20  5 44.9970000  0  5G 2G19G11G16G 6
  19821807.063   -20897810.744 7  -7437723.89422        26.750           1.719
  21080374.696     1307718.271 6   1851654.25121        15.750           0.906
  22923583.157    -6385728.940 6    679885.86621        13.000           0.281
  23188747.212    -5177738.032 5    514457.86021         7.500           0.156
  20844862.259   -19551808.636 6  -8805082.65421        19.000           1.063
 91  5 21 20  5 59.9970000  0  5G 2G19G11G16G 6
  19817317.196   -20921406.642 7  -7456110.29522        27.750           2.125
  21083548.243     1324388.357 6   1864643.88021        15.500           1.063
  22927616.274    -6364537.302 6    696398.76321        13.000           0.344
  23192048.063    -5160399.991 5    527967.89321         7.750           0.281
  20837619.688   -19589876.540 6  -8834745.92921        19.500           1.125
 91  5 21 20  6 14.9970000  0  5G 2G19G11G16G 6
  19812843.454   -20944921.539 7  -7474433.58322        27.500           2.281
  21086729.181     1341118.027 6   1877679.93121        15.500           1.156
  22931671.188    -6343226.094 6    713004.85521        13.250           0.344
  23195362.868    -5142986.232 5    541536.93521         7.500           0.250
  20830379.829   -19627914.280 6  -8864385.70821        18.750           1.219
 91  5 21 20  6 29.9970000  0  5G 2G19G11G16G 6
  19808380.274   -20968362.103 7  -7492698.94222        27.000           2.281
  21089925.173     1357900.685 6   1890757.27921        15.500           1.000
  22935747.345    -6321802.306 6    729698.65521        13.250           0.375
  23198684.782    -5125503.661 4    555159.61921         7.250           0.281
  20823146.126   -19665928.593 6  -8894007.22421        19.000           1.250
 91  5 21 20  6 44.9970000  0  5G 2G19G11G16G 6
  19803935.517   -20991721.233 7  -7510900.85123        27.500           2.625
  21093128.188     1374743.505 6   1903881.51421        15.750           1.281
  22939846.743    -6300258.839 6    746485.70721        13.750           0.438
  23202027.626    -5107945.306 4    568841.32721         7.000           0.281
  20815917.946   -19703911.759 6  -8923604.47721        19.500           1.344
 91  5 21 20  6 59.9970000  0  5G 2G19G11G16G 6
  19799504.735   -21015008.109 8  -7529046.45923        28.000           2.719
  21096343.915     1391637.503 6   1917045.62021        14.750           1.281
  22943967.860    -6278604.989 6    763358.78521        13.500           0.406
  23205381.384    -5090320.591 4    582574.74721         7.250           0.188
  20808695.478   -19741872.889 7  -8953184.56122        20.000           1.500
 91  5 21 20  7 14.9970000  0  5G 2G19G11G16G 6
  19795088.767   -21038216.007 7  -7547130.52423        27.500           2.500
  21099568.376     1408589.374 6   1930254.81021        15.250           1.406
  22948111.673    -6256834.390 6    780322.82121        13.250           0.406
  23208754.446    -5072623.257 4    596364.74821         7.250           0.125
  20801478.024   -19779805.229 6  -8982742.20721        19.750           1.344
 91  5 21 20  7 29.9970000  0  5G 2G19G11G16G 6
  19790686.548   -21061352.502 8  -7565158.95023        28.000           2.563
  21102805.688     1425591.426 6   1943503.11521        14.750           1.281
  22952275.837    -6234954.988 6    797371.65321        13.250           0.500
  23212133.540    -5054861.133 4    610205.27521         7.000           0.188
  20794261.212   -19817716.239 6  -9012283.23521        18.750           1.469
 91  5 21 20  7 44.9970000  0  5G 2G19G11G16G 6
  19786297.079   -21084418.888 8  -7583132.74722        28.000           2.219
  21106047.595     1442642.472 6   1956789.59521        15.250           1.063
  22956461.306    -6212968.323 6    814504.06121        12.750           0.313
  23215527.134    -5037036.064 4    624094.84521         6.750           0.219
  20787052.501   -19855607.228 6  -9041808.67421        19.750           1.219
 91  5 21 20  7 59.9970000  0  5G 2G19G11G16G 6
  19781927.892   -21107377.916 7  -7601022.88722        27.750           2.469
  21109310.626     1459779.782 6   1970143.29821        14.500           1.188
  22960671.524    -6190837.363 6    831748.90121        12.750           0.344
  23218935.798    -5019110.718 4    638062.51821         6.500           0.219
  20779851.938   -19893440.470 6  -9071289.09021        19.250           1.313
 91  5 21 20  8 14.9970000  0  5G 2G19G11G16G 6
  19777573.931   -21130256.907 8  -7618850.66123        28.250           2.531
  21112581.595     1476976.181 6   1983543.04021        15.000           1.219
  22964904.438    -6168589.672 6    849084.71721        12.750           0.469
  23222362.540    -5001112.767 4    652086.77421         6.750           0.219
  20772659.446   -19931243.249 6  -9100745.79121        19.250           1.469
 91  5 21 20  8 29.9970000  0  5G 2G19G11G16G 6
  19773233.517   -21153062.416 7  -7636621.18122        27.500           2.281
  21115867.782     1494225.237 6   1996983.81521        13.750           1.125
  22969159.962    -6146232.077 6    866506.16521        12.750           0.438
  23225797.181    -4983049.120 4    666162.27221         7.250           0.188
  20765471.681   -19969021.922 6  -9130183.70021        19.500           1.281
 91  5 21 20  8 44.9970000  0  5G 2G19G11G16G 6
  19768908.634   -21175795.690 7  -7654335.41422        27.250           2.156
  21119157.524     1511525.792 6   2010464.71521        14.500           1.031
  22973434.923    -6123766.021 6    884012.12721        12.500           0.344
  23229244.282    -4964921.468 4    680287.61321         6.750           0.188
  20758284.454   -20006777.597 6  -9159603.68521        18.500           1.250
 91  5 21 20  8 59.9970000  0  5G 2G19G11G16G 6
  19764594.860   -21198466.379 7  -7672000.87422        27.250           2.313
  21122459.103     1528868.011 6   2023978.08021        15.250           1.125
  22977727.774    -6101201.494 6    901594.82621        12.250           0.313
  23232699.696    -4946739.767 4    694455.03821         6.500           0.094
  20751102.493   -20044519.859 6  -9189013.22921        19.250           1.375
 91  5 21 20  9 14.9970000  0  5G 2G19G11G16G 6
  19760297.517   -21221045.315 7  -7689594.84222        27.500           2.375
  21125769.993     1546281.288 6   2037546.82421        15.000           1.063
  22982047.665    -6078509.355 6    919276.94921        12.500           0.406
  23236181.978    -4928474.927 4    708687.21921         7.250           0.250
  20743929.251   -20082219.120 6  -9218389.26221        19.250           1.344
 91  5 21 20  9 29.9970000  0  5G 2G19G11G16G 6
  19756017.931   -21243531.077 7  -7707116.21022        27.250           2.094
  21129100.321     1563766.989 6   2051171.99921        14.500           0.969
  22986391.032    -6055688.500 6    937059.39221        12.250           0.375
  23239677.290    -4910126.027 4    722984.96721         7.000           0.125
  20736763.751   -20119873.948 6  -9247730.67021        19.000           1.313
 91  5 21 20  9 44.9970000  0  5G 2G19G11G16G 6
  19751754.337   -21265944.051 8  -7724580.85222        28.000           2.438
  21132436.353     1581305.062 6   2064837.98821        15.750           1.125
  22990753.251    -6032759.523 6    954926.07021        12.000           0.375
  23243182.423    -4891713.569 4    737332.19221         7.250           0.250
  20729603.329   -20157504.431 6  -9277053.10321        19.500           1.406
 91  5 21 20  9 59.9970000  0  4G 2G19G11G 6
  19747503.329   -21288279.727 7  -7741985.26722        27.500           2.469
  21135785.478     1598899.969 6   2078548.26221        15.250           1.313
  22995137.853    -6009718.195 6    972880.29921        12.250           0.469
  20722446.993   -20195105.958 6  -9306352.97421        19.000           1.469
 91  5 21 20 10 14.9970000  0  4G 2G19G11G 6
  19743270.353   -21310526.878 7  -7759320.69623        27.750           2.531
  21139144.798     1616562.805 6   2092311.45421        15.500           1.219
  22999545.642    -5986553.714 6    990930.51121        12.250           0.500
  20715299.071   -20232667.287 6  -9335621.52322        19.000           1.531
 91  5 21 20 10 29.9960000  0  4G 2G19G11G 6
  19739051.379   -21332697.498 8  -7776596.49622        28.250           2.469
  21142517.762     1634278.921 6   2106116.17521        15.750           1.156
  23003974.332    -5963281.280 6   1009064.82021        12.250           0.438
  20708156.441   -20270199.141 6  -9364867.10822        19.250           1.563
 91  5 21 20 10 44.9960000  0  4G 2G19G11G 6
  19734846.902   -21354789.872 8  -7793811.32522        28.000           2.375
  21145900.637     1652055.464 6   2119967.98021        15.500           1.156
  23008426.691    -5939893.285 6   1027289.18621        12.250           0.406
  20701021.191   -20307701.730 6  -9394089.89222        19.500           1.531
 91  5 21 20 10 59.9960000  0  4G 2G19G11G 6
  19730655.785   -21376808.227 7  -7810968.51221        27.250           0.750
  21149293.613     1669885.439 6   2133861.39921        15.000           0.281
  23012897.699    -5916397.484 6   1045597.53921        12.250           0.063
  20693889.512   -20345178.215 6  -9423292.34721        19.500           0.219
 91  5 21 20 11 14.9960000  0  4G 2G19G11G 6
  19726481.621   -21398745.483 7  -7828062.43022        27.250           1.969
  21152697.473     1687776.376 6   2147802.36421        15.500           0.938
  23017390.949    -5892786.938 5   1063995.31521        11.750           0.313
  20686764.215   -20382621.187 6  -9452468.65421        19.000           1.125
 91  5 21 20 11 29.9960000  0  4G 2G19G11G 6
  19722321.731   -21420608.563 8  -7845098.60822        28.000           2.063
  21156113.926     1705721.331 6   2161785.39821        15.000           1.000
  23021903.410    -5869068.769 6   1082476.96321        12.250           0.344
  20679644.996   -20420037.396 6  -9481624.12921        19.750           1.094
 91  5 21 20 11 44.9960000  0  4G 2G19G11G 6
  19718176.996   -21442390.264 8  -7862071.35922        28.000           2.438
  21159539.074     1723727.523 6   2175816.13821        15.500           1.125
  23026438.371    -5845236.076 6   1101047.85221        12.500           0.438
  20672530.496   -20457419.424 6  -9510752.96621        19.750           1.406
 91  5 21 20 11 59.9960000  0  4G 2G19G11G 6
  19714047.027   -21464095.946 8  -7878984.86822        28.750           2.406
  21162976.191     1741789.674 6   2189890.49821        15.000           1.031
  23030997.371    -5821294.370 6   1119703.68121        12.250           0.406
  20665421.527   -20494772.506 6  -9539859.25121        19.500           1.281
 91  5 21 20 12 14.9960000  0  4G 2G19G11G 6
  19709930.418   -21485728.968 8  -7895841.76123        29.250           2.781
  21166421.770     1759904.451 6   2204005.86821        15.750           1.281
  23035572.840    -5797247.172 6   1138441.70921        12.250           0.438
  20658317.996   -20532099.763 6  -9568945.40722        19.750           1.563
 91  5 21 20 12 29.9960000  0  4G 2G19G11G 6
  19705828.121   -21507288.010 8  -7912641.01422        29.250           2.469
  21169880.949     1778073.397 6   2218163.44421        15.000           1.188
  23040167.434    -5773093.433 5   1157262.75321        11.750           0.344
  20651220.066   -20569399.659 7  -9598010.24722        20.000           1.500
 91  5 21 20 12 44.9960000  0  4G 2G19G11G 6
  19701741.113   -21528759.943 8  -7929372.37723        28.750           2.563
  21173350.582     1796309.560 6   2232373.41021        15.500           1.188
  23044787.106    -5748820.455 6   1176176.72321        12.250           0.438
  20644130.996   -20606659.083 7  -9627043.54422        20.250           1.531
 91  5 21 20 12 59.9960000  0  4G 2G19G11G 6
  19697670.973   -21550147.679 8  -7946038.13623        28.500           2.688
  21176833.566     1814609.858 6   2246633.33521        15.000           1.250
  23049427.543    -5724431.429 6   1195181.11021        12.500           0.375
  20637048.371   -20643880.741 7  -9656047.41722        20.000           1.719
 91  5 21 20 13 14.9960000  0  4G 2G19G11G 6
  19693617.113   -21571455.311 8  -7962641.48223        28.250           2.750
  21180326.098     1832970.579 6   2260940.34421        14.500           1.281
  23054087.699    -5699930.479 5   1214272.70721        11.750           0.406
  20629970.621   -20681068.323 7  -9685024.72722        20.750           1.531
 91  5 21 20 13 29.9960000  0  4G 2G19G11G 6
  19689576.270   -21592686.206 8  -7979185.03323        28.000           2.500
  21183831.801     1851388.212 6   2275291.69621        15.250           1.281
  23058771.824    -5675321.443 5   1233448.54121        11.500           0.344
  20622901.793   -20718225.284 7  -9713978.19521        20.250           1.406
 91  5 21 20 13 44.9960000  0  4G 2G19G11G 6
  19685551.645   -21613840.305 8  -7995668.78121        28.750           0.156
  21187347.934     1869862.809 6   2289687.43521        15.250           0.125
  23063475.637    -5650604.521 5                        11.750
  20615835.106   -20755351.325 7                        20.500
 91  5 21 20 13 59.9960000  0  4G 2G19G11G 6
  19681542.715   -21634906.000 8                        28.000
  21190876.395     1888405.905 6                        14.750
  23068202.801    -5625768.510 5                        11.750
  20608779.043   -20792434.813 7                        20.500
 91  5 21 20 14 14.9960000  0  4G 2G19G11G 6
  19677547.027   -21655902.727 8                        29.250
  21194412.809     1906998.275 6                        14.500
  23072947.543    -5600832.963 6                        12.500
  20601726.934   -20829494.932 7                        20.750
 91  5 21 20 14 29.9960000  0  4G 2G19G11G 6
  19673566.965   -21676819.344 8                        28.000
  21197963.449     1925651.374 6                        14.000
  23077713.856    -5575786.900 6                        12.500
  20594680.707   -20866520.246 7                        20.000
 91  5 21 20 14 44.9960000  0  4G 2G19G11G 6
  19669601.465   -21697654.877 8                        28.250
  21201524.231     1944366.135 6                        14.250
  23082500.488    -5550629.567 6                        13.000
  20587642.316   -20903509.529 7                        20.000
 91  5 21 20 14 59.9960000  0  4G 2G19G11G 6
  19665652.027   -21718413.266 7                        27.750
  21205099.199     1963138.618 6                        13.500
  23087308.176    -5525365.181 6                        12.250
  20580609.629   -20940466.568 7                        20.500
 91  5 21 20 15 14.9960000  0  4G 2G19G11G 6
  19661717.512   -21739086.563 8        -0.18333        28.750           2.563
  21208683.059     1981976.805 6        -0.27531        14.500           1.125
  23092137.027    -5499986.250 5                        11.750
  20573585.410   -20977383.352 7        -0.45331        21.000           1.406
 91  5 21 20 15 29.9960000  0  4G 2G19G11G 6
  19657800.059   -21759672.431 8    -16041.11622        28.750           1.938
  21212280.449     2000883.219 6     14731.95221        13.750           0.813
  23096989.629    -5474490.616 5        -0.32331        11.750           0.344
  20566567.684   -21014257.255 7    -28733.35521        20.750           1.156
 91  5 21 20 15 44.9960000  0  4G 2G19G11G 6
  19653898.137   -21780178.386 8    -32019.83321        28.500           0.719
  21215888.363     2019850.240 6                        14.500
  23101860.449    -5448885.958 5                        11.500
  20559556.379   -21051095.632 7    -57438.59221        20.500           1.188
 91  5 21 20 15 59.9960000  0  4G 2G19G11G 6
  19650005.481   -21800629.833 8    -47955.95421        29.000           0.219
  21219511.801     2038852.424 6                        13.250
  23106748.371    -5423198.039 5                        11.250
  20552549.965   -21087923.722 7                        20.500
 91  5 21 20 16 14.9960000  0  4G 2G19G11G 6
  19646129.598   -21821001.181 8    -63829.73923        29.000           2.563
  21223131.910     2057915.458 6                        15.000
  23111656.410    -5397401.578 5                        11.000
  20545547.746   -21124715.799 7                        20.500
 91  5 21 20 16 29.9960000  0  4G 2G19G11G 6
  19642270.910   -21841283.838 8    -79634.38623        29.250           2.688
  21226777.918     2077048.063 6                        13.000
  23116588.910    -5371488.234 5                        11.250
  20538554.754   -21161463.080 7                        20.750
 91  5 21 20 16 44.9960000  0  4G 2G19G11G 6
  19638424.965   -21861487.166 8    -95377.23723        28.250           2.719
  21230424.363     2096240.756 6        -0.21431        14.500           1.156
  23121542.535    -5345467.650 5        -0.18831        11.250           0.281
  20531569.746   -21198174.843 7        -0.18932        20.500           1.594
 91  5 21 20 16 59.9960000  0  4G 2G19G11G 6
  19634594.410   -21881613.421 7   -111060.02123        27.750           2.563
  21234093.707     2115491.467 6     15000.29321        13.000           1.094
  23126512.223    -5319342.158 5     20357.26621        11.000           0.344
  20524588.981   -21234852.902 7    -28580.47522        20.500           1.563
 91  5 21 20 17 14.9960000  0  4G 2G19G11G 6
  19630779.691   -21901664.859 8   -126684.51023        28.750           2.844
  21237762.816     2134798.200 6     30044.45121        14.750           1.281
  23131504.895    -5293114.410 5     40794.43521        11.000           0.375
  20517615.043   -21271499.479 7    -57136.23722        20.750           1.688
 91  5 21 20 17 29.9960000  0  4G 2G19G11G 6
  19626980.027   -21921634.176 8   -142245.00523        29.000           2.781
  21241454.160     2154168.130 6     45137.85121        13.250           1.219
  23136516.770    -5266777.450 5     61316.67621        11.000           0.313
  20510648.910   -21308107.074 7    -85661.61922        20.750           1.625
 91  5 21 20 17 44.9960000  0  4G 2G19G11G 6
  19623196.066   -21941521.090 8   -157741.29223        29.000           2.531
  21245147.082     2173601.468 6     60280.65421        14.250           1.094
  23141549.387    -5240331.305 5     81924.02321        10.750           0.375
  20503690.621   -21344675.285 7   -114156.32222        20.500           1.531
 91  5 21 20 17 59.9960000  0  4G 2G19G11G 6
  19619424.434   -21961337.394 8   -173182.56122        28.750           2.281
  21248858.723     2193086.721 6     75463.91221        13.000           1.000
  23146598.356    -5213787.912 5    102607.12221        10.750           0.375
  20496738.098   -21381215.681 7   -142629.34121        20.500           1.438
 91  5 21 20 18 14.9960000  0  4G 2G19G11G 6
  19615668.020   -21981076.677 8   -188563.80922        28.500           2.438
  21252573.973     2212630.521 6     90692.79721        14.500           1.094
  23151669.441    -5187140.943 5    123370.95221        10.750           0.313
  20489792.066   -21417721.422 7   -171075.36622        20.750           1.500
 91  5 21 20 18 29.9960000  0  4G 2G19G11G 6
  19611927.043   -22000742.404 8   -203887.73622        29.000           2.469
  21256306.074     2232229.124 6    105964.37221        13.750           1.063
  23156759.113    -5160394.165 5    144212.53221        10.500           0.344
  20482849.496   -21454195.975 7   -199497.09122        20.500           1.625
 91  5 21 20 18 44.9960000  0  4G 2G19G11G 6
  19608201.012   -22020318.360 8   -219141.71623        29.250           2.594
  21260047.074     2251898.671 6    121291.23921        14.750           1.094
  23161871.738    -5133531.821 5    165144.18821        11.250           0.281
  20475917.879   -21490622.990 7   -227881.77622        21.250           1.625
 91  5 21 20 18 59.9960000  0  4G 2G19G11G 6
  19604491.481   -22039814.025 8   -234333.13423        28.750           2.594
  21263804.426     2271630.014 6    136666.26921        14.000           1.000
  23167003.043    -5106563.510 5    186158.41621        11.000           0.344
  20468993.582   -21527011.612 7   -256236.53322        21.250           1.656
 91  5 21 20 19 14.9960000  0  4G 2G19G11G 6
  19600794.551   -22059244.689 8   -249473.90223        28.500           2.531
  21267563.824     2291407.718 6    152077.41521        14.000           1.094
  23172153.473    -5079504.956 5    207242.94621        10.750           0.406
  20462072.543   -21563377.000 7   -284573.18322        20.500           1.688
 91  5 21 20 19 29.9960000  0  4G 2G19G11G 6
  19597112.254   -22078592.098 8   -264549.79822        28.500           2.438
  21271343.059     2311250.070 6    167538.93121        13.750           1.094
  23177322.512    -5052338.110 5    228411.85721        10.750           0.344
  20455160.981   -21599700.699 7   -312877.35622        20.500           1.625
 91  5 21 20 19 44.9960000  0  4G 2G19G11G 6
  19593448.066   -22097846.295 8   -279553.05222        28.250           2.469
  21275133.090     2331167.085 6    183058.63921        15.250           1.188
  23182514.809    -5025053.284 5    249672.70621        11.000           0.438
  20448258.457   -21635972.641 7   -341141.20122        20.750           1.781
 91  5 21 20 19 59.9960000  0  4G 2G19G11G 6
  19589797.481   -22117023.076 7   -294495.98923        26.750           2.500
  21278937.074     2351143.164 6    198624.36421        14.250           1.063
  23187728.473    -4997666.530 5    271012.99221        11.250           0.281
  20441363.738   -21672208.295 7   -369376.76822        20.500           1.656
 91  5 21 20 20 14.9960000  0  4G 2G19G11G 6
  19586163.465   -22136125.494 8   -309380.98123        28.000           2.625
  21282744.949     2371175.290 6    214233.76421        15.250           1.094
  23192958.973    -4970181.149 5    292430.10821        11.000           0.406
  20434475.676   -21708410.581 7   -397586.32722        21.250           1.625
 91  5 21 20 20 29.9960000  0  4G 2G19G11G 6
  19582543.895   -22155147.569 8   -324203.36423        28.250           2.688
  21286571.473     2391269.560 6    229891.59121        14.500           1.188
  23198207.348    -4942591.484 5    313928.50021        10.750           0.406
  20427592.332   -21744573.256 7   -425765.02522        21.000           1.688
 91  5 21 20 20 44.9960000  0  4G 2G19G11G 6
  19578938.215   -22174097.845 8   -338969.80323        29.000           2.594
  21290402.035     2411417.509 6    245591.24621        15.000           1.094
  23203475.285    -4914906.402 5    335501.23521        11.000           0.438
  20420716.152   -21780704.741 7   -453919.41622        21.250           1.750
 91  5 21 20 20 59.9960000  0  4G 2G19G11G 6
  19575345.387   -22192980.010 8   -353683.17123        29.500           2.781
  21294253.090     2431615.353 6    261329.77121        13.500           1.188
  23208761.512    -4887129.732 5    357145.34621        11.000           0.344
  20413846.012   -21816808.428 7   -482052.14322        21.750           1.719
 91  5 21 20 21 14.9960000  0  4G 2G19G11G 6
  19571765.918   -22211787.330 8   -368338.21523        28.750           2.719
  21298099.863     2451869.663 6    277112.29921        14.500           1.281
  23214064.606    -4859255.223 5    378865.68921        10.750           0.375
  20406983.043   -21852877.630 7   -510157.99422        21.500           1.625
 91  5 21 20 21 29.9960000  0  4G 2G19G11G 6
  19568200.035   -22230524.240 8   -382938.39623        28.250           2.563
  21301965.316     2472176.617 6    292935.83921        13.750           1.094
  23219386.301    -4831287.343 5    400658.79921        10.750           0.406
  20400124.879   -21888916.251 7   -538240.02522        21.250           1.656
 91  5 21 20 21 44.9960000  0  4G 2G19G11G 6
  19564646.801   -22249195.419 8   -397487.36623        28.750           2.688
  21305838.223     2492531.439 6    308796.68421        14.750           1.094
  23224726.301    -4803231.122 5    422520.74021        10.750           0.375
  20393271.738   -21924929.000 7   -566301.88822        21.000           1.594
 91  5 21 20 21 59.9960000  0  4G 2G19G11G 6
  19561110.395   -22267784.601 8   -411972.43523        29.000           2.531
  21309726.434     2512950.435 6    324707.54121        13.750           1.063
  23230087.160    -4775070.513 5    444464.02121        11.250           0.250
  20386427.387   -21960899.276 7   -594330.65621        21.250           1.469
 91  5 21 20 22 14.9960000  0  4G 2G19G11G 6
  19557585.059   -22286304.078 8   -426403.18923        28.250           2.719
  21313619.676     2533421.383 6    340658.87521        14.250           1.219
  23235462.887    -4746818.132 5    466478.80621        11.000           0.281
  20379587.395   -21996839.212 7   -622335.78121        21.250           1.469
 91  5 21 20 22 29.9960000  0  4G 2G19G11G 6
  19554074.434   -22304752.857 8   -440778.85723        28.500           2.719
  21317525.527     2553945.067 6    356651.30121        13.250           1.063
  23240857.410    -4718473.245 5    488565.68521        11.250           0.344
  20372755.395   -22032747.714 7   -650316.42322        21.500           1.594
 91  5 21 20 22 44.9960000  0  4G 2G19G11G 6
  19550578.645   -22323126.979 8   -455096.35323        28.750           2.625
  21321441.613     2574525.833 6    372688.20121        14.250           1.125
  23246268.676    -4690032.047 5    510727.59921        10.750           0.438
  20365926.527   -22068620.376 7   -678269.13222        21.250           1.531
 91  5 21 20 22 59.9960000  0  4G 2G19G11G 6
  19547095.613   -22341430.170 8   -469358.57623        29.000           2.625
  21325369.262     2595159.896 6    388766.64021        14.250           1.094
  23251696.457    -4661498.594 5    532961.40421        10.750           0.406
  20359108.520   -22104460.755 7   -706196.68822        21.250           1.563
 91  5 21 20 23 14.9960000  0  4G 2G19G11G 6
  19543628.809   -22359645.036 8   -483551.96823        28.500           2.531
  21329308.356     2615864.533 6    404900.08021        14.750           0.906
  23257148.184    -4632855.882 5    555280.35921        10.750           0.406
  20352297.145   -22140251.421 7   -734085.50122        21.000           1.594
 91  5 21 20 23 29.9960000  0  4G 2G19G11G 6
  19540178.106   -22377775.227 8   -497679.38923        28.250           2.750
  21333263.184     2636635.990 6    421085.58221        14.000           1.156
  23262619.856    -4604107.883 5    577681.35121        10.750           0.438
  20345494.941   -22175995.926 7   -761938.33822        20.500           1.875
 91  5 21 20 23 44.9960000  0  4G 2G19G11G 6
  19536741.543   -22395836.509 8   -511753.11523        29.000           2.750
  21337223.731     2657458.829 6    437311.11921        14.750           1.156
  23268108.098    -4575270.633 5    600151.86521        10.500           0.375
  20338699.160   -22211709.691 7   -789767.23022        20.750           1.688
 91  5 21 20 23 59.9960000  0  4G 2G19G11G 6
  19533320.238   -22413821.867 8   -525767.67722        29.000           2.375
  21341197.965     2678340.173 6    453582.23421        13.500           1.156
  23273612.402    -4546337.126 5    622697.42121        10.250           0.313
  20331910.559   -22247385.328 7   -817566.40722        20.500           1.531
 91  5 21 20 24 14.9960000  0  4G 2G19G11G 6
  19529911.551   -22431730.896 8   -539722.76523        29.250           2.688
  21345181.184     2699280.350 6    469899.18921        14.750           1.281
  23279137.949    -4517307.385 5    645317.93421        10.250           0.313
  20325130.301   -22283022.439 7   -845335.56622        21.250           1.750
 91  5 21 20 24 29.9960000  0  4G 2G19G11G 6
  19526516.902   -22449570.476 8   -553623.72723        29.000           2.750
  21349180.082     2720272.517 6    486256.66621        13.750           1.219
  23284675.965    -4488188.537 5    668007.89621        10.250           0.344
  20318353.848   -22318627.613 7   -873079.83522        21.250           1.719
 91  5 21 20 24 44.9960000  0  4G 2G19G11G 6
  19523138.574   -22467326.918 8   -567459.91622        29.000           2.375
  21353182.746     2741330.507 6    502665.45121        13.750           1.000
  23290238.520    -4458967.257 5    690777.68321        10.250           0.313
  20311586.715   -22354186.945 7   -900788.39122        21.000           1.594
 91  5 21 20 24 59.9960000  0  4G 2G19G11G 6
  19519773.731   -22485007.583 8   -581237.05723        29.000           2.594
  21357203.629     2762446.940 6    519119.75021        12.750           1.156
  23295817.793    -4429651.031 5    713621.43321        10.000           0.344
  20304828.832   -22389707.532 7   -928466.75522        21.250           1.813
 91  5 21 20 25 14.9960000  0  4G 2G19G11G 6
  19516423.676   -22502611.165 8   -594954.13322        29.000           2.469
  21361232.231     2783623.057 6    535620.55521        13.250           1.063
  23301415.285    -4400238.975 5    736539.87721        10.250           0.281
  20298076.387   -22425188.036 7   -956113.89022        21.750           1.625
 91  5 21 20 25 29.9960000  0  4G 2G19G11G 6
  19513089.832   -22520127.346 8   -608603.09923        28.750           2.563
  21365276.004     2804869.351 6    552176.05721        13.250           1.188
  23307032.816    -4370721.021 5    759540.82721        10.250           0.344
  20291334.402   -22460617.813 7   -983721.48622        21.500           1.750
 91  5 21 20 25 44.9960000  0  4G 2G19G11G 6
  19509771.707   -22537563.750 8   -622189.90623        28.750           2.531
  21369329.418     2826178.115 6    568780.23021        13.500           1.094
  23312667.957    -4341105.120 5    782618.09921        10.000           0.313
  20284599.684   -22496004.430 7  -1011295.46122        21.500           1.781
 91  5 21 20 25 59.9960000  0  4G 2G19G11G 6
  19506469.441   -22554924.597 8   -635717.83922        29.750           2.438
  21373396.152     2847545.465 6    585430.06021        12.750           1.000
  23318320.371    -4311395.599 5    805768.32821         9.750           0.281
  20277873.379   -22531351.658 7  -1038838.73722        21.750           1.750
 91  5 21 20 26 14.9960000  0  4G 2G19G11G 6
  19503179.082   -22572214.491 8   -649190.48422        30.000           2.469
  21377472.309     2868966.710 6    602121.88321        13.000           0.969
  23323990.613    -4281597.400 5    828987.64221         9.750           0.250
  20271154.121   -22566663.998 7  -1066354.82522        21.500           1.844
 91  5 21 20 26 29.9960000  0  4G 2G19G11G 6
  19499901.606   -22589435.227 8   -662609.24222        29.000           2.406
  21381561.473     2890440.231 6    618854.43821        13.000           0.969
  23329677.121    -4251712.642 5    852274.41821         9.500           0.313
  20264441.301   -22601942.925 7  -1093844.88422        21.750           1.750
 91  5 21 20 26 44.9960000  0  4G 2G19G11G 6
  19496637.949   -22606584.778 8   -675972.52323        29.000           2.719
  21385654.965     2911968.005 6    635629.28221        13.250           1.094
  23335379.871    -4221739.539 5    875630.04221         9.750           0.281
  20257733.582   -22637186.154 7  -1121307.11722        22.250           1.875
 91  5 21 20 26 59.9960000  0  4G 2G19G11G 6
  19493388.395   -22623663.917 8   -689280.94223        29.000           2.750
  21389763.676     2933549.152 6    652445.70321        13.000           1.094
  23341101.356    -4191679.288 5    899053.55621         9.750           0.219
  20251032.957   -22672394.466 7  -1148742.14722        22.000           1.938
 91  5 21 20 27 14.9960000  0  4G 2G19G11G 6
  19490153.590   -22640661.386 8   -702525.72023        29.000           2.656
  21393881.441     2955194.894 6    669312.45921        13.250           1.094
  23346840.762    -4161520.855 5    922553.59021         9.750           0.344
  20244342.941   -22707556.302 7  -1176140.96922        21.750           1.688
 91  5 21 20 27 29.9960000  0  4G 2G19G11G 6
  19486930.832   -22657588.563 8   -715715.72422        28.750           2.469
  21398013.434     2976894.131 6    686220.89721        12.000           0.906
  23352597.332    -4131275.772 5    946121.12121        10.250           0.219
  20237659.801   -22742682.804 7  -1203512.25722        22.750           1.625
 91  5 21 20 27 44.9960000  0  4G 2G19G11G 6
  19483723.277   -22674450.024 8   -728854.52422        28.500           2.375
  21402149.285     2998642.419 6    703167.55921        12.500           0.875
  23358367.973    -4100949.044 5    969752.27821        10.000           0.281
  20230980.051   -22777778.351 7  -1230859.41422        22.000           1.594
 91  5 21 20 27 59.9960000  0  4G 2G19G11G 6
  19480529.863   -22691232.884 8   -741932.08122        28.500           2.250
  21406301.715     3020452.622 6    720162.47121        12.250           0.875
  23364156.379    -4070528.004 5    993456.94921        10.000           0.250
  20224310.332   -22812829.796 7  -1258172.21722        22.000           1.500
 91  5 21 20 28 14.9960000  0  4G 2G19G11G 6
  19477350.762   -22707940.585 8   -754951.06423        28.000           2.531
  21410461.371     3042321.381 6    737203.01121        12.500           0.969
  23369963.238    -4040016.348 5   1017232.21721         9.750           0.281
  20217648.215   -22847840.433 7  -1285453.21322        22.500           1.813
 91  5 21 20 28 29.9960000  0  4G 2G19G11G 6
  19474185.262   -22724575.766 8   -767913.53822        29.000           2.313
  21414638.488     3064246.147 5    754287.18221        11.750           0.906
  23375785.699    -4009416.956 5   1041075.85121         9.750           0.219
  20210991.426   -22882812.572 7  -1312704.21622        22.250           1.719
 91  5 21 20 28 44.9960000  0  3G 2G19G 6
  19471035.324   -22741130.632 8   -780813.43223        29.250           2.500
  21418817.098     3086234.685 6    771421.04721        13.500           0.938
  20204346.887   -22917738.186 7  -1339918.96922        22.750           1.719
 91  5 21 20 28 59.9960000  0  3G 2G19G 6
  19467897.965   -22757615.768 8   -793658.99022        29.000           2.375
  21423017.543     3108276.391 6    788596.34821        12.750           0.844
  20197707.231   -22952627.685 7  -1367105.57122        23.000           1.750
 91  5 21 20 29 14.9960000  0  3G 2G19G 6
  19464775.199   -22774026.608 8   -806446.65822        28.750           2.313
  21427218.621     3130375.770 6    805816.59121        13.750           0.844
  20191074.590   -22987476.417 7  -1394260.42022        22.250           1.625
 91  5 21 20 29 29.9960000  0  3G 2G19G 6
  19461664.488   -22790370.479 8   -819182.13923        28.750           2.750
  21431438.348     3152525.784 6    823076.29321        12.500           0.938
  20184450.856   -23022291.285 7  -1421388.86722        23.000           1.844
 91  5 21 20 29 44.9960000  0  3G 2G19G 6
  19458566.965   -22806649.420 8   -831867.02322        28.500           2.469
  21435656.934     3174724.499 6    840373.93421        14.000           0.906
  20177830.770   -23057074.062 7  -1448492.32022        22.500           1.688
 91  5 21 20 29 59.9960000  0  3G 2G19G 6
  19455484.691   -22822848.470 8   -844489.65822        28.250           2.281
  21439897.684     3196986.618 6    857720.98521        12.750           0.750
  20171222.027   -23091809.731 7  -1475559.06322        22.750           1.531
 91  5 21 20 30 14.9960000  0  3G 2G19G 6
  19452417.113   -22838969.693 8   -857051.64422        28.750           2.250
  21444141.223     3219310.081 6    875115.83921        14.250           0.781
  20164619.606   -23126500.180 7  -1502590.56222        22.750           1.594
 91  5 21 20 30 29.9960000  0  3G 2G19G 6
  19449362.676   -22855024.453 8   -869561.84223        28.500           2.656
  21448404.770     3241683.882 6    892549.91321        13.000           1.094
  20158024.582   -23161156.367 7  -1529595.36322        23.000           1.844
 91  5 21 20 30 44.9960000  0  3G 2G19G 6
  19446323.527   -22870993.189 8   -882005.01223        28.500           2.563
  21452669.754     3264127.656 6    910038.51221        13.750           0.969
  20151441.113   -23195758.551 7  -1556558.09422        23.250           1.844
 91  5 21 20 30 59.9960000  0  3G 2G19G 6
  19443297.012   -22886893.381 8   -894394.76422        29.000           2.469
  21456953.098     3286623.928 6    927568.02021        13.000           0.844
  20144864.645   -23230323.999 7  -1583492.19422        23.500           1.594
 91  5 21 20 31 14.9960000  0  3G 2G19G 6
  19440286.801   -22902707.360 7   -906717.34623        27.750           2.531
  21461245.590     3309190.387 6    945152.21521        14.000           0.844
  20138295.754   -23264834.734 7  -1610383.65522        22.750           1.750
 91  5 21 20 31 29.9960000  0  3G 2G19G 6
  19437291.871   -22918445.940 8   -918981.16923        28.500           2.656
  21465554.121     3331816.083 6    962782.57121        13.750           0.875
  20131739.496   -23299301.464 7  -1637240.83922        23.000           1.781
 91  5 21 20 31 44.9960000  0  3G 2G19G 6
  19434309.879   -22934122.356 8   -931196.55623        29.500           2.688
  21469866.176     3354487.945 6    980448.90921        14.250           0.750
  20125183.856   -23333737.187 7  -1664073.85022        22.750           1.844
 91  5 21 20 31 59.9960000  0  3G 2G19G 6
  19431343.176   -22949713.435 8   -943345.44422        29.250           2.469
  21474194.824     3377229.192 6    998169.30121        13.500           0.688
  20118640.238   -23368118.504 7  -1690864.47922        22.750           1.781
 91  5 21 20 32 14.9960000  0  3G 2G19G 6
  19428388.981   -22965231.735 8   -955437.62222        28.250           2.438
  21478531.535     3400027.347 6   1015934.03821        14.000           0.781
  20112107.621   -23402457.750 7  -1717622.31722        23.250           1.625
 91  5 21 20 32 29.9960000  0  3G 2G19G 6
  19425449.848   -22980678.966 8   -967474.41923        28.750           2.500
  21482881.856     3422880.685 6   1033741.78421        13.250           0.656
  20105580.660   -23436756.359 7  -1744348.48522        23.000           1.750
 91  5 21 20 32 44.9960000  0  3G 2G19G 6
  19422525.856   -22996046.654 8   -979449.24122        29.000           2.281
  21487240.238     3445797.694 6   1051599.12921        13.500           0.750
  20099063.856   -23471005.743 7  -1771036.30222        23.500           1.625
 91  5 21 20 32 59.9960000  0  3G 2G19G 6
  19419615.137   -23011345.274 8   -991370.22923        29.750           2.563
  21491614.606     3468767.856 6   1069497.89221        12.750           0.813
  20092551.684   -23505216.062 7  -1797693.67522        23.000           1.781
 91  5 21 20 33 14.9960000  0  3G 2G19G 6
  19416716.395   -23026575.940 8  -1003238.28322        29.000           2.406
  21495993.285     3491790.503 6   1087437.56021        13.000           0.656
  20086051.379   -23539388.000 7  -1824321.14422        23.250           1.688
 91  5 21 20 33 29.9960000  0  3G 2G19G 6
  19413831.738   -23041734.657 8  -1015050.26422        29.500           2.469
  21500390.418     3514869.359 5   1105421.03021        11.500           0.719
  20079556.621   -23573517.519 7  -1850915.55522        23.000           1.688
 91  5 21 20 33 44.9960000  0  3G 2G19G 6
  19410960.145   -23056824.760 8  -1026808.78423        29.250           2.563
  21504786.340     3538001.185 6   1123445.76621        12.500           0.750
  20073069.035   -23607607.772 7  -1877479.37322        23.000           1.656
 91  5 21 20 33 59.9960000  0  3G 2G19G 6
  19408102.270   -23071842.332 8  -1038510.77822        29.000           2.344
  21509200.512     3561189.929 6   1141514.86021        12.000           0.688
  20066591.590   -23641654.473 7  -1904009.25222        23.750           1.531
 91  5 21 20 34 14.9960000  0  3G 2G19G 6
  19405259.856   -23086780.393 8  -1050150.82522        28.250           2.406
  21513623.121     3584442.303 6   1159633.52421        12.250           0.719
  20060121.926   -23675650.674 7  -1930499.78422        23.500           1.688
 91  5 21 20 34 29.9960000  0  3G 2G19G 6
  19402430.551   -23101649.915 8  -1061737.45322        28.250           2.469
  21518060.801     3607747.606 6   1177793.43521        12.500           0.781
  20053658.910   -23709607.004 7  -1956959.24822        23.000           1.750
 91  5 21 20 34 44.9960000  0  3G 2G19G 6
  19399615.309   -23116441.848 8  -1073263.63523        29.000           2.781
  21522506.215     3631115.127 6   1196001.82721        13.000           0.844
  20047207.324   -23743514.096 7  -1983380.34722        22.750           1.844
 91  5 21 20 34 59.9960000  0  3G 2G19G 6
  19396813.871   -23131166.942 8  -1084737.73022        28.750           2.438
  21526964.590     3654534.068 6   1214250.29121        12.500           0.844
  20040760.840   -23777382.272 7  -2009771.11922        23.000           1.719
 91  5 21 20 35 14.9960000  0  3G 2G19G 6
  19394022.051   -23145832.194 8  -1096165.19122        28.500           2.469
  21531427.535     3677997.501 6   1232533.42421        12.750           0.813
  20034323.481   -23811218.525 7  -2036137.01222        23.500           1.563
 91  5 21 20 35 29.9960000  0  3G 2G19G 6
  19391245.762   -23160423.938 8  -1107535.37723        28.750           2.594
  21535904.231     3701519.119 6   1250861.88821        12.250           0.844
  20027893.426   -23845008.825 7  -2062467.10322        24.000           1.906
 91  5 21 20 35 44.9960000  0  3G 2G19G 6
  19388482.731   -23174940.559 8  -1118847.02323        28.750           2.688
  21540391.215     3725100.567 6   1269236.97221        12.750           0.906
  20021469.660   -23878751.426 7  -2088760.02722        23.000           1.938
 91  5 21 20 35 59.9960000  0  3G 2G19G 6
  19385733.387   -23189391.272 8  -1130107.31722        28.750           2.375
  21544892.199     3748732.692 6   1287651.55621        12.000           0.813
  20015058.512   -23912455.152 7  -2115022.66822        23.750           1.844
 91  5 21 20 36 14.9960000  0  3G 2G19G 6
  19382997.145   -23203772.703 8  -1141313.61723        28.500           2.719
  21549395.246     3772418.894 6   1306108.27421        12.500           0.906
  20008652.652   -23946116.593 7  -2141252.34822        23.750           1.938
 91  5 21 20 36 29.9960000  0  3G 2G19G 6
  19380273.988   -23218082.603 8  -1152464.18722        29.000           2.438
  21553915.309     3796161.424 5   1324608.87221        11.750           0.688
  20002255.246   -23979733.139 7  -2167447.05222        23.500           1.875
 91  5 21 20 36 44.9960000  0  3G 2G19G 6
  19377565.949   -23232311.420 8  -1163551.57622        29.500           2.375
  21558444.059     3819969.844 6   1343160.82721        12.000           0.781
  19995870.270   -24013294.941 7  -2193599.09522        23.750           1.719
 91  5 21 20 36 59.9960000  0  3G 2G19G 6
  19374873.746   -23246465.961 8  -1174581.07823        29.250           2.594
  21562987.301     3843837.365 5   1361758.81921        11.250           0.938
  19989491.223   -24046808.781 7  -2219713.76122        23.000           2.063
 91  5 21 20 37 14.9960000  0  3G 2G19G 6
  19372192.418   -23260547.165 8  -1185553.43423        28.250           2.656
  21567539.660     3867763.096 5   1380402.17821        11.500           0.750
  19983123.723   -24080275.215 7  -2245791.49722        22.750           1.906
 91  5 21 20 37 29.9960000  0  3G 2G19G 6
  19369527.551   -23274555.387 8  -1196468.92323        28.000           2.750
  21572105.684     3891746.815 5   1399090.72121        11.250           0.906
  19976763.738   -24113694.322 7  -2271832.34622        23.250           2.094
 91  5 21 20 37 44.9960000  0  3G 2G19G 6
  19366872.535   -23288505.435 8  -1207339.08723        28.750           2.781
  21576675.606     3915773.676 6   1417812.87821        12.000           0.750
  19970409.926   -24147080.723 7  -2297847.71222        22.750           2.094
 91  5 21 20 37 59.9960000  0  3G 2G19G 6
  19364230.699   -23302386.119 8  -1218155.19623        28.750           2.719
  21581259.488     3939854.853 6   1436577.36221        12.000           0.781
  19964066.176   -24180423.097 7  -2323828.77722        22.750           1.969
 91  5 21 20 38 14.9960000  0  3G 2G19G 6
  19361603.832   -23316197.283 8  -1228917.13323        29.500           2.781
  21585850.770     3963990.611 6   1455384.38421        12.000           0.719
  19957728.973   -24213720.834 7  -2349775.04922        22.500           2.156
 91  5 21 20 38 29.9960000  0  3G 2G19G 6
  19358990.207   -23329929.401 8  -1239617.47523        29.750           2.594
  21590454.973     3988190.701 6   1474241.51921        12.000           0.719
  19951403.332   -24246964.172 7  -2375678.94022        22.000           1.906
 91  5 21 20 38 44.9960000  0  3G 2G19G 6
  19356390.566   -23343590.659 8  -1250262.61123        29.750           2.656
  21595072.473     4012446.863 6   1493142.35421        12.500           0.719
  19945086.465   -24280161.088 7  -2401546.65222        22.500           2.031
 91  5 21 20 38 59.9960000  0  3G 2G19G 6
  19353803.223   -23357188.358 8  -1260858.21523        29.000           2.688
  21599699.270     4036751.667 6   1512081.09121        12.000           0.688
  19938775.184   -24313318.849 7  -2427383.85622        22.750           1.969
 91  5 21 20 39 14.9960000  0  3G 2G19G 6
  19351229.191   -23370712.011 8  -1271396.12323        28.750           2.844
  21604332.801     4061115.656 6   1531065.94421        12.500           0.719
  19932475.020   -24346426.594 7  -2453182.08522        22.500           2.219
 91  5 21 20 39 29.9960000  0  3G 2G19G 6
  19348670.512   -23384162.514 8  -1281877.02923        29.250           2.594
  21608982.465     4085538.007 5   1550096.27821        11.750           0.750
  19926185.051   -24379484.919 7  -2478941.80622        22.000           2.188
 91  5 21 20 39 44.9960000  0  3G 2G19G 6
  19346120.145   -23397559.132 8  -1292315.94923        29.250           2.750
  21613636.754     4109999.441 6   1569157.06321        12.500           0.781
  19919900.074   -24412512.848 7  -2504677.84222        22.500           2.281
 91  5 21 20 39 59.9960000  0  3G 2G19G 6
  19343585.449   -23410879.905 8  -1302695.76423        29.000           2.656
  21618306.566     4134522.256 6   1588265.67921        12.000           0.625
  19913624.106   -24445488.029 7  -2530372.77922        22.750           2.188
 91  5 21 20 40 14.9960000  0  3G 2G19G 6
  19341063.270   -23424135.418 8  -1313024.72823        29.000           2.500
  21622978.129     4159095.716 6   1607413.76221        12.500           0.656
  19907358.527   -24478420.922 7  -2556034.76022        22.500           1.969
 91  5 21 20 40 29.9960000  0  3G 2G19G 6
  19338555.293   -23437314.571 8  -1323294.19523        29.750           2.750
  21627667.504     4183730.896 6   1626609.93221        12.000           0.719
  19901102.246   -24511300.245 7  -2581654.99122        22.250           2.156
 91  5 21 20 40 44.9960000  0  3G 2G19G 6
  19336059.699   -23450424.031 8  -1333509.36223        29.500           2.531
  21632364.809     4208421.096 6   1645848.97221        13.000           0.750
  19894854.801   -24544132.560 7  -2607238.60222        22.750           2.125
 91  5 21 20 40 59.9960000  0  3G 2G19G 6
  19333581.871   -23463449.917 8  -1343659.40122        29.500           2.469
  21637081.340     4233180.428 5   1665141.89121        11.250           0.813
  19888617.965   -24576903.422 7  -2632774.32422        22.750           2.125
 91  5 21 20 41 14.9960000  0  3G 2G19G 6
  19331119.660   -23476392.909 8  -1353744.84022        30.000           2.438
  21641801.004     4258008.143 6   1684488.09221        12.250           0.813
  19882391.777   -24609613.401 7  -2658262.61122        22.250           2.156
 91  5 21 20 41 29.9960000  0  3G 2G19G 6
  19328668.223   -23489270.719 8  -1363779.49523        29.250           2.625
  21646540.762     4282886.571 5   1703873.81021        11.000           0.750
  19876176.527   -24642279.924 7  -2683717.02122        22.500           2.344
 91  5 21 20 41 44.9960000  0  3G 2G19G 6
  19326229.285   -23502087.361 8  -1373766.48823        29.250           2.750
  21651277.996     4307811.815 6   1723295.99321        12.000           0.750
  19869967.457   -24674906.784 7  -2709140.52922        23.250           2.344
 91  5 21 20 41 59.9960000  0  3G 2G19G 6
  19323803.637   -23514831.775 8  -1383697.20123        29.250           2.688
  21656037.395     4332794.917 5   1742763.27621        11.000           0.719
  19863768.246   -24707482.645 7  -2734524.30422        23.000           2.188
 91  5 21 20 42 14.9950000  0  3G 2G19G 6
  19321392.257   -23527500.822 8  -1393569.18223        29.000           2.625
  21660798.468     4357836.469 6   1762276.10121        12.250           0.688
  19857581.148   -24740002.741 7  -2759864.62222        23.250           2.156
 91  5 21 20 42 29.9950000  0  3G 2G19G 6
  19318998.413   -23540083.372 8  -1403373.76023        29.000           2.500
  21665582.101     4382952.819 5   1781847.20521        11.250           0.688
  19851406.069   -24772458.335 7  -2785154.68122        23.250           2.063
 91  5 21 20 42 44.9950000  0  3G 2G19G 6
  19316617.155   -23552603.321 8  -1413129.56523        29.750           2.719
  21670366.054     4408117.522 6   1801455.99621        12.500           0.531
  19845236.312   -24804871.819 7  -2810411.92622        23.000           2.250
 91  5 21 20 42 59.9950000  0  3G 2G19G 6
  19314246.491   -23565058.193 8  -1422834.65923        29.750           2.813
  21675169.179     4433332.923 5   1821104.28721        10.750           0.531
  19839078.515   -24837240.456 7  -2835634.22822        23.500           2.125
 91  5 21 20 43 14.9950000  0  3G 2G19G 6
  19311892.812   -23577427.453 8  -1432473.04223        29.500           2.688
  21679975.726     4458619.676 5   1840808.18621        11.500           0.656
  19832930.687   -24869543.588 7  -2860805.47922        23.250           2.156
 91  5 21 20 43 29.9950000  0  3G 2G19G 6
  19309554.710   -23589714.158 8  -1442047.09823        29.500           2.781
  21684803.663     4483974.824 5   1860565.37321        11.250           0.594
  19826794.132   -24901783.825 7  -2885927.72722        23.250           2.344
 91  5 21 20 43 44.9950000  0  3G 2G19G 6
  19307227.562   -23601944.259 8  -1451577.04723        29.500           2.875
  21689635.507     4509372.298 5   1880355.53921        11.750           0.688
  19820667.101   -24933986.931 7  -2911021.03522        23.500           2.438
 91  5 21 20 43 59.9950000  0  3G 2G19G 6
  19304911.483   -23614114.361 8  -1461060.23923        29.250           2.813
  21694479.038     4534815.593 5   1900181.40821        11.500           0.750
  19814546.077   -24966149.345 7  -2936082.64222        23.000           2.344
 91  5 21 20 44 14.9950000  0  3G 2G19G 6
  19302608.491   -23626213.081 8  -1470487.81623        28.750           2.688
  21699329.843     4560316.210 5   1920051.94221        11.750           0.688
  19808435.640   -24998259.298 7  -2961103.36922        23.000           2.375
 91  5 21 20 44 29.9950000  0  3G 2G19G 6
  19300320.046   -23638244.456 8  -1479862.91923        28.750           2.688
  21704193.687     4585870.044 5   1939963.94421        11.000           0.656
  19802334.819   -25030320.614 7  -2986086.19522        23.000           2.250
 91  5 21 20 44 44.9950000  0  3G 2G19G 6
  19298045.640   -23650193.258 8  -1489173.66823        29.000           2.656
  21709068.007     4611492.397 5   1959929.34421        11.750           0.719
  19796245.648   -25062317.841 7  -3011019.08022        22.750           2.250
 91  5 21 20 44 59.9950000  0  3G 2G19G 6
  19295785.140   -23662073.437 8  -1498430.95423        29.750           2.750
  21713956.202     4637169.457 5   1979937.36521        11.250           0.781
  19790166.640   -25094264.552 7  -3035912.60922        22.750           2.281
 91  5 21 20 45 14.9950000  0  3G 2G19G 6
  19293538.679   -23673882.210 8  -1507632.59322        30.000           2.281
  21718850.874     4662904.083 5   1999990.24621        11.500           0.688
  19784097.890   -25126157.772 7  -3060764.45022        22.250           1.906
 91  5 21 20 45 29.9950000  0  3G 2G19G 6
  19291303.601   -23685622.839 8  -1516781.13622        29.500           2.406
  21723760.226     4688692.779 5   2020085.25521        11.250           0.750
  19778037.991   -25158000.568 7  -3085577.00222        22.750           2.156
 91  5 21 20 45 44.9950000  0  4G13G 2G19G 6
  22751405.233          -0.24713                         6.000
  19289083.108   -23697289.495 8  -1525872.03122        29.250           2.406
  21728677.296     4714541.435 5   2040226.99021        11.250           0.813
  19771990.702   -25189786.853 7  -3110345.51322        23.000           2.219
 91  5 21 20 45 59.9950000  0  4G13G 2G19G 6
  22737514.655      -72988.741 3                         5.750
  19286878.483   -23708881.956 8  -1534905.12122        30.000           2.375
  21733613.968     4740450.466 5   2060415.75821        10.500           0.813
  19765951.468   -25221516.040 7  -3135069.54022        22.500           2.094
 91  5 21 20 46 14.9950000  0  4G13G 2G19G 6
  22723630.093     -145950.003 3                         5.750
  19284685.757   -23720402.549 8  -1543882.20722        30.500           2.469
  21738549.062     4766417.627 5   2080649.82721        10.750           0.781
  19759925.843   -25253190.237 7  -3159750.71722        23.250           2.219
